Wetterdaten: Donnerstag, 14.04.2016
Datum Zeit Temp. A. Feuchte A. Luftdruck Regen Wind Richtung Richtung Sonnenschein ET UV Solar Taupunkt Windchill Windben Empfang
14.04.2016 00:00 9,6 C 92 % 1007,5 hPa 0,0 l/m 7,9 km/h (2 Bft) SW 230 0 min 0,000 mm 0,0 UV-I 0 W/m 8,4 C 8,5 C 12,9 km/h (3 Bft) 100,00 %
14.04.2016 00:02 9,6 C 92 % 1007,6 hPa 0,0 l/m 9,1 km/h (2 Bft) SW 230 0 min 0,000 mm 0,0 UV-I 0 W/m 8,4 C 7,7 C 12,9 km/h (3 Bft) 97,78 %
14.04.2016 00:03 9,6 C 92 % 1007,6 hPa 0,0 l/m 11,2 km/h (2 Bft) W-SW 245 0 min 0,000 mm 0,0 UV-I 0 W/m 8,4 C 6,5 C 14,5 km/h (3 Bft) 100,00 %
14.04.2016 00:04 9,6 C 92 % 1007,5 hPa 0,0 l/m 8,5 km/h (2 Bft) W-SW 255 0 min 0,000 mm 0,0 UV-I 0 W/m 8,4 C 8,1 C 12,9 km/h (3 Bft) 100,00 %
14.04.2016 00:05 9,6 C 92 % 1007,5 hPa 0,0 l/m 7,5 km/h (2 Bft) W-SW 246 0 min 0,000 mm 0,0 UV-I 0 W/m 8,4 C 8,8 C 11,3 km/h (2 Bft) 95,65 %
14.04.2016 00:06 9,6 C 92 % 1007,5 hPa 0,0 l/m 10,2 km/h (2 Bft) W 267 0 min 0,000 mm 0,0 UV-I 0 W/m 8,4 C 7,0 C 14,5 km/h (3 Bft) 100,00 %
14.04.2016 00:07 9,6 C 92 % 1007,5 hPa 0,0 l/m 8,8 km/h (2 Bft) W 261 0 min 0,000 mm 0,0 UV-I 0 W/m 8,4 C 7,9 C 11,3 km/h (2 Bft) 96,15 %
14.04.2016 00:08 9,6 C 92 % 1007,5 hPa 0,0 l/m 6,2 km/h (2 Bft) W 264 0 min 0,000 mm 0,0 UV-I 0 W/m 8,4 C 9,6 C 8,0 km/h (2 Bft) 100,00 %
14.04.2016 00:09 9,6 C 92 % 1007,6 hPa 0,0 l/m 7,2 km/h (2 Bft) W-SW 240 0 min 0,000 mm 0,0 UV-I 0 W/m 8,4 C 9,0 C 11,3 km/h (2 Bft) 100,00 %
14.04.2016 00:10 9,6 C 92 % 1007,5 hPa 0,0 l/m 7,8 km/h (2 Bft) W 263 0 min 0,000 mm 0,0 UV-I 0 W/m 8,4 C 8,6 C 11,3 km/h (2 Bft) 100,00 %
14.04.2016 00:11 9,6 C 92 % 1007,5 hPa 0,0 l/m 7,8 km/h (2 Bft) W 266 0 min 0,000 mm 0,0 UV-I 0 W/m 8,4 C 8,6 C 11,3 km/h (2 Bft) 100,00 %
14.04.2016 00:12 9,6 C 92 % 1007,5 hPa 0,0 l/m 8,3 km/h (2 Bft) W-SW 253 0 min 0,000 mm 0,0 UV-I 0 W/m 8,4 C 8,2 C 12,9 km/h (3 Bft) 100,00 %
14.04.2016 00:13 9,5 C 92 % 1007,5 hPa 0,0 l/m 8,0 km/h (2 Bft) W 263 0 min 0,000 mm 0,0 UV-I 0 W/m 8,3 C 8,3 C 12,9 km/h (3 Bft) 100,00 %
14.04.2016 00:14 9,6 C 92 % 1007,6 hPa 0,0 l/m 9,0 km/h (2 Bft) W-SW 246 0 min 0,000 mm 0,0 UV-I 0 W/m 8,4 C 7,8 C 12,9 km/h (3 Bft) 96,15 %
14.04.2016 00:15 9,6 C 92 % 1007,5 hPa 0,0 l/m 8,4 km/h (2 Bft) SW 230 0 min 0,000 mm 0,0 UV-I 0 W/m 8,4 C 8,2 C 12,9 km/h (3 Bft) 98,74 %
14.04.2016 00:16 9,6 C 92 % 1007,5 hPa 0,0 l/m 10,2 km/h (2 Bft) W 260 0 min 0,000 mm 0,0 UV-I 0 W/m 8,4 C 7,0 C 12,9 km/h (3 Bft) 100,00 %
14.04.2016 00:17 9,6 C 92 % 1007,5 hPa 0,0 l/m 11,9 km/h (2 Bft) W-SW 249 0 min 0,000 mm 0,0 UV-I 0 W/m 8,4 C 6,1 C 16,1 km/h (3 Bft) 100,00 %
14.04.2016 00:18 9,5 C 92 % 1007,5 hPa 0,0 l/m 10,5 km/h (2 Bft) W-NW 291 0 min 0,000 mm 0,0 UV-I 0 W/m 8,3 C 6,8 C 16,1 km/h (3 Bft) 100,00 %
14.04.2016 00:19 9,5 C 92 % 1007,5 hPa 0,0 l/m 7,3 km/h (2 Bft) W 273 0 min 0,000 mm 0,0 UV-I 0 W/m 8,3 C 8,8 C 11,3 km/h (2 Bft) 100,00 %
14.04.2016 00:20 9,5 C 92 % 1007,5 hPa 0,0 l/m 8,2 km/h (2 Bft) W-SW 245 0 min 0,000 mm 0,0 UV-I 0 W/m 8,3 C 8,2 C 12,9 km/h (3 Bft) 100,00 %
14.04.2016 00:21 9,5 C 92 % 1007,5 hPa 0,0 l/m 6,9 km/h (2 Bft) W-SW 244 0 min 0,000 mm 0,0 UV-I 0 W/m 8,3 C 9,1 C 9,7 km/h (2 Bft) 100,00 %
14.04.2016 00:22 9,5 C 92 % 1007,5 hPa 0,0 l/m 11,5 km/h (2 Bft) W 269 0 min 0,000 mm 0,0 UV-I 0 W/m 8,3 C 6,2 C 17,7 km/h (3 Bft) 96,88 %
14.04.2016 00:23 9,5 C 92 % 1007,4 hPa 0,0 l/m 6,4 km/h (2 Bft) W-SW 248 0 min 0,000 mm 0,0 UV-I 0 W/m 8,3 C 9,5 C 11,3 km/h (2 Bft) 100,00 %
14.04.2016 00:24 9,5 C 92 % 1007,3 hPa 0,0 l/m 7,9 km/h (2 Bft) W 265 0 min 0,000 mm 0,0 UV-I 0 W/m 8,3 C 8,4 C 11,3 km/h (2 Bft) 100,00 %
14.04.2016 00:25 9,5 C 92 % 1007,3 hPa 0,0 l/m 9,8 km/h (2 Bft) W 267 0 min 0,000 mm 0,0 UV-I 0 W/m 8,3 C 7,2 C 12,9 km/h (3 Bft) 100,00 %
14.04.2016 00:26 9,5 C 92 % 1007,3 hPa 0,0 l/m 10,1 km/h (2 Bft) W-SW 258 0 min 0,000 mm 0,0 UV-I 0 W/m 8,3 C 7,0 C 16,1 km/h (3 Bft) 100,00 %
14.04.2016 00:27 9,5 C 92 % 1007,3 hPa 0,0 l/m 9,1 km/h (2 Bft) W-NW 286 0 min 0,000 mm 0,0 UV-I 0 W/m 8,3 C 7,6 C 14,5 km/h (3 Bft) 100,00 %
14.04.2016 00:28 9,5 C 92 % 1007,3 hPa 0,0 l/m 8,0 km/h (2 Bft) W 261 0 min 0,000 mm 0,0 UV-I 0 W/m 8,3 C 8,3 C 11,3 km/h (2 Bft) 92,86 %
14.04.2016 00:29 9,5 C 92 % 1007,3 hPa 0,0 l/m 10,5 km/h (2 Bft) W 264 0 min 0,000 mm 0,0 UV-I 0 W/m 8,3 C 6,8 C 14,5 km/h (3 Bft) 100,00 %
14.04.2016 00:30 9,5 C 92 % 1007,3 hPa 0,0 l/m 9,3 km/h (2 Bft) W-SW 244 0 min 0,000 mm 0,0 UV-I 0 W/m 8,3 C 7,5 C 12,9 km/h (3 Bft) 100,00 %
14.04.2016 00:31 9,5 C 92 % 1007,3 hPa 0,0 l/m 9,3 km/h (2 Bft) W-SW 243 0 min 0,000 mm 0,0 UV-I 0 W/m 8,3 C 7,5 C 12,9 km/h (3 Bft) 100,00 %
14.04.2016 00:32 9,5 C 92 % 1007,3 hPa 0,0 l/m 8,0 km/h (2 Bft) W-SW 251 0 min 0,000 mm 0,0 UV-I 0 W/m 8,3 C 8,3 C 11,3 km/h (2 Bft) 95,65 %
14.04.2016 00:33 9,5 C 92 % 1007,3 hPa 0,0 l/m 8,8 km/h (2 Bft) W-SW 254 0 min 0,000 mm 0,0 UV-I 0 W/m 8,3 C 7,8 C 16,1 km/h (3 Bft) 100,00 %
14.04.2016 00:34 9,5 C 92 % 1007,3 hPa 0,0 l/m 8,0 km/h (2 Bft) W-SW 242 0 min 0,000 mm 0,0 UV-I 0 W/m 8,3 C 8,3 C 12,9 km/h (3 Bft) 100,00 %
14.04.2016 00:35 9,5 C 92 % 1007,3 hPa 0,0 l/m 8,4 km/h (2 Bft) SW 235 0 min 0,000 mm 0,0 UV-I 0 W/m 8,3 C 8,1 C 14,5 km/h (3 Bft) 100,00 %
14.04.2016 00:36 9,5 C 92 % 1007,3 hPa 0,0 l/m 9,7 km/h (2 Bft) SW 223 0 min 0,000 mm 0,0 UV-I 0 W/m 8,3 C 7,2 C 14,5 km/h (3 Bft) 100,00 %
14.04.2016 00:37 9,5 C 92 % 1007,3 hPa 0,0 l/m 10,5 km/h (2 Bft) SW 221 0 min 0,000 mm 0,0 UV-I 0 W/m 8,3 C 6,8 C 17,7 km/h (3 Bft) 100,00 %
14.04.2016 00:38 9,5 C 92 % 1007,3 hPa 0,0 l/m 10,0 km/h (2 Bft) S-SW 213 0 min 0,000 mm 0,0 UV-I 0 W/m 8,3 C 7,0 C 14,5 km/h (3 Bft) 100,00 %
14.04.2016 00:39 9,6 C 92 % 1007,3 hPa 0,0 l/m 9,7 km/h (2 Bft) SW 232 0 min 0,000 mm 0,0 UV-I 0 W/m 8,4 C 7,3 C 12,9 km/h (3 Bft) 100,00 %
14.04.2016 00:40 9,6 C 92 % 1007,3 hPa 0,0 l/m 8,5 km/h (2 Bft) W-SW 240 0 min 0,000 mm 0,0 UV-I 0 W/m 8,4 C 8,1 C 11,3 km/h (2 Bft) 100,00 %
14.04.2016 00:41 9,6 C 92 % 1007,2 hPa 0,0 l/m 8,2 km/h (2 Bft) SW 229 0 min 0,000 mm 0,0 UV-I 0 W/m 8,4 C 8,3 C 9,7 km/h (2 Bft) 96,15 %
14.04.2016 00:42 9,6 C 92 % 1007,3 hPa 0,0 l/m 9,5 km/h (2 Bft) W-SW 238 0 min 0,000 mm 0,0 UV-I 0 W/m 8,4 C 7,5 C 14,5 km/h (3 Bft) 100,00 %
14.04.2016 00:43 9,6 C 92 % 1007,3 hPa 0,0 l/m 9,7 km/h (2 Bft) W-SW 239 0 min 0,000 mm 0,0 UV-I 0 W/m 8,4 C 7,3 C 12,9 km/h (3 Bft) 100,00 %
14.04.2016 00:44 9,6 C 91 % 1007,2 hPa 0,0 l/m 7,4 km/h (2 Bft) W-SW 256 0 min 0,000 mm 0,0 UV-I 0 W/m 8,2 C 8,9 C 9,7 km/h (2 Bft) 95,83 %
14.04.2016 00:45 9,6 C 91 % 1007,3 hPa 0,0 l/m 9,0 km/h (2 Bft) S-SW 211 0 min 0,000 mm 0,0 UV-I 0 W/m 8,2 C 7,8 C 12,9 km/h (3 Bft) 100,00 %
14.04.2016 00:46 9,6 C 91 % 1007,3 hPa 0,0 l/m 11,3 km/h (2 Bft) W-SW 243 0 min 0,000 mm 0,0 UV-I 0 W/m 8,2 C 6,4 C 17,7 km/h (3 Bft) 95,83 %
14.04.2016 00:47 9,7 C 91 % 1007,3 hPa 0,0 l/m 8,3 km/h (2 Bft) SW 235 0 min 0,000 mm 0,0 UV-I 0 W/m 8,3 C 8,3 C 12,9 km/h (3 Bft) 92,86 %
14.04.2016 00:48 9,7 C 91 % 1007,3 hPa 0,0 l/m 6,8 km/h (2 Bft) W-SW 252 0 min 0,000 mm 0,0 UV-I 0 W/m 8,3 C 9,4 C 9,7 km/h (2 Bft) 96,30 %
14.04.2016 00:49 9,7 C 91 % 1007,3 hPa 0,0 l/m 8,9 km/h (2 Bft) S-SW 199 0 min 0,000 mm 0,0 UV-I 0 W/m 8,3 C 7,9 C 12,9 km/h (3 Bft) 100,00 %
14.04.2016 00:50 9,7 C 91 % 1007,3 hPa 0,0 l/m 7,1 km/h (2 Bft) W-SW 243 0 min 0,000 mm 0,0 UV-I 0 W/m 8,3 C 9,2 C 11,3 km/h (2 Bft) 96,30 %
14.04.2016 00:51 9,7 C 91 % 1007,3 hPa 0,0 l/m 7,4 km/h (2 Bft) SW 236 0 min 0,000 mm 0,0 UV-I 0 W/m 8,3 C 9,0 C 11,3 km/h (2 Bft) 100,00 %
14.04.2016 00:52 9,7 C 91 % 1007,3 hPa 0,0 l/m 7,9 km/h (2 Bft) S-SW 211 0 min 0,000 mm 0,0 UV-I 0 W/m 8,3 C 8,6 C 12,9 km/h (3 Bft) 91,67 %
14.04.2016 00:53 9,7 C 91 % 1007,3 hPa 0,0 l/m 9,7 km/h (2 Bft) W 261 0 min 0,000 mm 0,0 UV-I 0 W/m 8,3 C 7,4 C 12,9 km/h (3 Bft) 100,00 %
14.04.2016 00:54 9,6 C 91 % 1007,3 hPa 0,0 l/m 10,3 km/h (2 Bft) W-SW 240 0 min 0,000 mm 0,0 UV-I 0 W/m 8,2 C 7,0 C 14,5 km/h (3 Bft) 96,30 %
14.04.2016 00:55 9,7 C 91 % 1007,3 hPa 0,0 l/m 8,3 km/h (2 Bft) W-SW 252 0 min 0,000 mm 0,0 UV-I 0 W/m 8,3 C 8,3 C 12,9 km/h (3 Bft) 95,65 %
14.04.2016 00:56 9,7 C 91 % 1007,2 hPa 0,0 l/m 8,9 km/h (2 Bft) W-SW 247 0 min 0,000 mm 0,0 UV-I 0 W/m 8,3 C 7,9 C 12,9 km/h (3 Bft) 100,00 %
14.04.2016 00:57 9,7 C 91 % 1007,2 hPa 0,0 l/m 9,1 km/h (2 Bft) W 259 0 min 0,000 mm 0,0 UV-I 0 W/m 8,3 C 7,8 C 11,3 km/h (2 Bft) 95,65 %
14.04.2016 00:58 9,7 C 91 % 1007,3 hPa 0,0 l/m 8,8 km/h (2 Bft) W-SW 257 0 min 0,000 mm 0,0 UV-I 0 W/m 8,3 C 8,0 C 12,9 km/h (3 Bft) 100,00 %
14.04.2016 00:59 9,7 C 91 % 1007,3 hPa 0,0 l/m 7,7 km/h (2 Bft) W-SW 251 0 min 0,000 mm 0,0 UV-I 0 W/m 8,3 C 8,7 C 14,5 km/h (3 Bft) 91,67 %
14.04.2016 01:00 9,7 C 91 % 1007,3 hPa 0,0 l/m 9,1 km/h (2 Bft) W-SW 238 0 min 0,000 mm 0,0 UV-I 0 W/m 8,3 C 7,8 C 14,5 km/h (3 Bft) 100,00 %
14.04.2016 01:01 9,7 C 91 % 1007,3 hPa 0,0 l/m 8,0 km/h (2 Bft) W-SW 246 0 min 0,000 mm 0,0 UV-I 0 W/m 8,3 C 8,5 C 9,7 km/h (2 Bft) 96,30 %
14.04.2016 01:02 9,7 C 91 % 1007,3 hPa 0,0 l/m 6,8 km/h (2 Bft) W-SW 240 0 min 0,000 mm 0,0 UV-I 0 W/m 8,3 C 9,4 C 9,7 km/h (2 Bft) 92,31 %
14.04.2016 01:03 9,7 C 91 % 1007,2 hPa 0,0 l/m 8,3 km/h (2 Bft) SW 227 0 min 0,000 mm 0,0 UV-I 0 W/m 8,3 C 8,3 C 9,7 km/h (2 Bft) 100,00 %
14.04.2016 01:04 9,7 C 91 % 1007,2 hPa 0,0 l/m 9,0 km/h (2 Bft) SW 229 0 min 0,000 mm 0,0 UV-I 0 W/m 8,3 C 7,9 C 14,5 km/h (3 Bft) 92,86 %
14.04.2016 01:05 9,7 C 91 % 1007,2 hPa 0,0 l/m 7,4 km/h (2 Bft) SW 225 0 min 0,000 mm 0,0 UV-I 0 W/m 8,3 C 9,0 C 9,7 km/h (2 Bft) 100,00 %
14.04.2016 01:06 9,7 C 91 % 1007,2 hPa 0,0 l/m 6,7 km/h (2 Bft) SW 217 0 min 0,000 mm 0,0 UV-I 0 W/m 8,3 C 9,5 C 11,3 km/h (2 Bft) 92,31 %
14.04.2016 01:07 9,7 C 91 % 1007,2 hPa 0,0 l/m 6,0 km/h (2 Bft) SW 218 0 min 0,000 mm 0,0 UV-I 0 W/m 8,3 C 9,7 C 9,7 km/h (2 Bft) 100,00 %
14.04.2016 01:08 9,7 C 91 % 1007,2 hPa 0,0 l/m 6,9 km/h (2 Bft) W-SW 244 0 min 0,000 mm 0,0 UV-I 0 W/m 8,3 C 9,3 C 9,7 km/h (2 Bft) 90,91 %
14.04.2016 01:09 9,7 C 91 % 1007,2 hPa 0,0 l/m 9,2 km/h (2 Bft) SW 230 0 min 0,000 mm 0,0 UV-I 0 W/m 8,3 C 7,7 C 12,9 km/h (3 Bft) 100,00 %
14.04.2016 01:10 9,7 C 91 % 1007,2 hPa 0,0 l/m 8,1 km/h (2 Bft) W-SW 252 0 min 0,000 mm 0,0 UV-I 0 W/m 8,3 C 8,5 C 12,9 km/h (3 Bft) 96,15 %
14.04.2016 01:11 9,7 C 91 % 1007,2 hPa 0,0 l/m 6,4 km/h (2 Bft) W 273 0 min 0,000 mm 0,0 UV-I 0 W/m 8,3 C 9,7 C 11,3 km/h (2 Bft) 96,30 %
14.04.2016 01:12 9,7 C 91 % 1007,2 hPa 0,0 l/m 10,9 km/h (2 Bft) W 261 0 min 0,000 mm 0,0 UV-I 0 W/m 8,3 C 6,8 C 16,1 km/h (3 Bft) 100,00 %
14.04.2016 01:13 9,7 C 91 % 1007,2 hPa 0,0 l/m 9,0 km/h (2 Bft) SW 229 0 min 0,000 mm 0,0 UV-I 0 W/m 8,3 C 7,9 C 12,9 km/h (3 Bft) 96,15 %
14.04.2016 01:14 9,7 C 91 % 1007,2 hPa 0,0 l/m 8,6 km/h (2 Bft) W 267 0 min 0,000 mm 0,0 UV-I 0 W/m 8,3 C 8,1 C 11,3 km/h (2 Bft) 100,00 %
14.04.2016 01:15 9,7 C 91 % 1007,1 hPa 0,0 l/m 7,7 km/h (2 Bft) W-SW 241 0 min 0,000 mm 0,0 UV-I 0 W/m 8,3 C 8,7 C 12,9 km/h (3 Bft) 96,55 %
14.04.2016 01:16 9,7 C 91 % 1007,1 hPa 0,0 l/m 7,5 km/h (2 Bft) W 273 0 min 0,000 mm 0,0 UV-I 0 W/m 8,3 C 8,9 C 11,3 km/h (2 Bft) 100,00 %
14.04.2016 01:17 9,7 C 91 % 1007,1 hPa 0,0 l/m 7,1 km/h (2 Bft) SW 234 0 min 0,000 mm 0,0 UV-I 0 W/m 8,3 C 9,2 C 11,3 km/h (2 Bft) 92,31 %
14.04.2016 01:18 9,7 C 91 % 1007,1 hPa 0,0 l/m 6,6 km/h (2 Bft) SW 227 0 min 0,000 mm 0,0 UV-I 0 W/m 8,3 C 9,6 C 8,0 km/h (2 Bft) 100,00 %
14.04.2016 01:19 9,7 C 91 % 1007,0 hPa 0,0 l/m 7,5 km/h (2 Bft) W-SW 247 0 min 0,000 mm 0,0 UV-I 0 W/m 8,3 C 8,9 C 9,7 km/h (2 Bft) 96,55 %
14.04.2016 01:20 9,7 C 91 % 1007,0 hPa 0,0 l/m 9,7 km/h (2 Bft) SW 228 0 min 0,000 mm 0,0 UV-I 0 W/m 8,3 C 7,4 C 12,9 km/h (3 Bft) 100,00 %
14.04.2016 01:21 9,7 C 91 % 1007,0 hPa 0,0 l/m 7,4 km/h (2 Bft) SW 225 0 min 0,000 mm 0,0 UV-I 0 W/m 8,3 C 9,0 C 11,3 km/h (2 Bft) 100,00 %
14.04.2016 01:22 9,7 C 91 % 1007,0 hPa 0,0 l/m 10,0 km/h (2 Bft) W-SW 241 0 min 0,000 mm 0,0 UV-I 0 W/m 8,3 C 7,3 C 11,3 km/h (2 Bft) 100,00 %
14.04.2016 01:23 9,7 C 91 % 1007,0 hPa 0,0 l/m 9,1 km/h (2 Bft) SW 219 0 min 0,000 mm 0,0 UV-I 0 W/m 8,3 C 7,8 C 12,9 km/h (3 Bft) 90,91 %
14.04.2016 01:24 9,7 C 90 % 1007,0 hPa 0,0 l/m 12,2 km/h (2 Bft) W-NW 284 0 min 0,000 mm 0,0 UV-I 0 W/m 8,1 C 6,1 C 16,1 km/h (3 Bft) 96,30 %
14.04.2016 01:25 9,7 C 90 % 1007,0 hPa 0,0 l/m 11,4 km/h (2 Bft) W-SW 247 0 min 0,000 mm 0,0 UV-I 0 W/m 8,1 C 6,5 C 16,1 km/h (3 Bft) 100,00 %
14.04.2016 01:26 9,7 C 90 % 1007,0 hPa 0,0 l/m 8,9 km/h (2 Bft) W 263 0 min 0,000 mm 0,0 UV-I 0 W/m 8,1 C 7,9 C 14,5 km/h (3 Bft) 100,00 %
14.04.2016 01:27 9,7 C 90 % 1006,9 hPa 0,0 l/m 9,2 km/h (2 Bft) SW 236 0 min 0,000 mm 0,0 UV-I 0 W/m 8,1 C 7,7 C 11,3 km/h (2 Bft) 100,00 %
14.04.2016 01:28 9,7 C 90 % 1006,9 hPa 0,0 l/m 8,8 km/h (2 Bft) W-SW 238 0 min 0,000 mm 0,0 UV-I 0 W/m 8,1 C 8,0 C 12,9 km/h (3 Bft) 100,00 %
14.04.2016 01:29 9,7 C 90 % 1007,0 hPa 0,0 l/m 8,9 km/h (2 Bft) W-SW 250 0 min 0,000 mm 0,0 UV-I 0 W/m 8,1 C 7,9 C 14,5 km/h (3 Bft) 89,66 %
14.04.2016 01:30 9,7 C 90 % 1007,0 hPa 0,0 l/m 11,2 km/h (2 Bft) SW 230 0 min 0,000 mm 0,0 UV-I 0 W/m 8,1 C 6,6 C 14,5 km/h (3 Bft) 100,00 %
14.04.2016 01:31 9,7 C 90 % 1007,0 hPa 0,0 l/m 10,7 km/h (2 Bft) W 271 0 min 0,000 mm 0,0 UV-I 0 W/m 8,1 C 6,9 C 14,5 km/h (3 Bft) 100,00 %
14.04.2016 01:32 9,7 C 90 % 1007,0 hPa 0,0 l/m 9,3 km/h (2 Bft) W-SW 238 0 min 0,000 mm 0,0 UV-I 0 W/m 8,1 C 7,7 C 12,9 km/h (3 Bft) 100,00 %
14.04.2016 01:33 9,7 C 90 % 1007,0 hPa 0,0 l/m 9,1 km/h (2 Bft) S-SW 212 0 min 0,000 mm 0,0 UV-I 0 W/m 8,1 C 7,8 C 11,3 km/h (2 Bft) 96,15 %
14.04.2016 01:34 9,7 C 90 % 1007,0 hPa 0,0 l/m 10,0 km/h (2 Bft) SW 230 0 min 0,000 mm 0,0 UV-I 0 W/m 8,1 C 7,3 C 14,5 km/h (3 Bft) 100,00 %
14.04.2016 01:35 9,7 C 90 % 1007,1 hPa 0,0 l/m 8,1 km/h (2 Bft) W-SW 241 0 min 0,000 mm 0,0 UV-I 0 W/m 8,1 C 8,5 C 11,3 km/h (2 Bft) 96,15 %
14.04.2016 01:36 9,7 C 90 % 1007,1 hPa 0,0 l/m 10,4 km/h (2 Bft) SW 236 0 min 0,000 mm 0,0 UV-I 0 W/m 8,1 C 7,0 C 12,9 km/h (3 Bft) 100,00 %
14.04.2016 01:37 9,7 C 90 % 1007,1 hPa 0,0 l/m 10,8 km/h (2 Bft) W-SW 252 0 min 0,000 mm 0,0 UV-I 0 W/m 8,1 C 6,8 C 14,5 km/h (3 Bft) 100,00 %
14.04.2016 01:38 9,7 C 90 % 1007,0 hPa 0,0 l/m 10,9 km/h (2 Bft) SW 235 0 min 0,000 mm 0,0 UV-I 0 W/m 8,1 C 6,8 C 12,9 km/h (3 Bft) 100,00 %
14.04.2016 01:39 9,7 C 90 % 1007,0 hPa 0,0 l/m 10,1 km/h (2 Bft) S-SW 213 0 min 0,000 mm 0,0 UV-I 0 W/m 8,1 C 7,2 C 14,5 km/h (3 Bft) 100,00 %
14.04.2016 01:40 9,7 C 90 % 1007,0 hPa 0,0 l/m 8,0 km/h (2 Bft) SW 224 0 min 0,000 mm 0,0 UV-I 0 W/m 8,1 C 8,5 C 12,9 km/h (3 Bft) 100,00 %
14.04.2016 01:41 9,7 C 90 % 1007,0 hPa 0,0 l/m 10,9 km/h (2 Bft) W-SW 237 0 min 0,000 mm 0,0 UV-I 0 W/m 8,1 C 6,8 C 16,1 km/h (3 Bft) 100,00 %
14.04.2016 01:42 9,7 C 90 % 1007,0 hPa 0,0 l/m 10,6 km/h (2 Bft) S-SW 213 0 min 0,000 mm 0,0 UV-I 0 W/m 8,1 C 6,9 C 14,5 km/h (3 Bft) 100,00 %
14.04.2016 01:43 9,7 C 90 % 1007,0 hPa 0,0 l/m 8,0 km/h (2 Bft) SW 234 0 min 0,000 mm 0,0 UV-I 0 W/m 8,1 C 8,5 C 12,9 km/h (3 Bft) 100,00 %
14.04.2016 01:44 9,7 C 90 % 1006,9 hPa 0,0 l/m 10,0 km/h (2 Bft) SW 224 0 min 0,000 mm 0,0 UV-I 0 W/m 8,1 C 7,3 C 14,5 km/h (3 Bft) 100,00 %
14.04.2016 01:45 9,7 C 90 % 1006,8 hPa 0,0 l/m 12,3 km/h (3 Bft) W-SW 256 0 min 0,000 mm 0,0 UV-I 0 W/m 8,1 C 6,0 C 16,1 km/h (3 Bft) 100,00 %
14.04.2016 01:46 9,7 C 90 % 1006,8 hPa 0,0 l/m 9,2 km/h (2 Bft) W-SW 248 0 min 0,000 mm 0,0 UV-I 0 W/m 8,1 C 7,7 C 12,9 km/h (3 Bft) 100,00 %
14.04.2016 01:47 9,7 C 90 % 1006,8 hPa 0,0 l/m 8,9 km/h (2 Bft) W-SW 242 0 min 0,000 mm 0,0 UV-I 0 W/m 8,1 C 7,9 C 11,3 km/h (2 Bft) 100,00 %
14.04.2016 01:48 9,7 C 90 % 1006,8 hPa 0,0 l/m 10,4 km/h (2 Bft) W-SW 247 0 min 0,000 mm 0,0 UV-I 0 W/m 8,1 C 7,0 C 14,5 km/h (3 Bft) 100,00 %
14.04.2016 01:49 9,7 C 90 % 1006,7 hPa 0,0 l/m 10,6 km/h (2 Bft) W 263 0 min 0,000 mm 0,0 UV-I 0 W/m 8,1 C 6,9 C 14,5 km/h (3 Bft) 93,33 %
14.04.2016 01:50 9,7 C 90 % 1006,7 hPa 0,0 l/m 8,5 km/h (2 Bft) W-SW 247 0 min 0,000 mm 0,0 UV-I 0 W/m 8,1 C 8,2 C 12,9 km/h (3 Bft) 100,00 %
14.04.2016 01:51 9,7 C 90 % 1006,7 hPa 0,0 l/m 9,3 km/h (2 Bft) W-SW 238 0 min 0,000 mm 0,0 UV-I 0 W/m 8,1 C 7,7 C 12,9 km/h (3 Bft) 100,00 %
14.04.2016 01:52 9,7 C 90 % 1006,7 hPa 0,0 l/m 7,1 km/h (2 Bft) W 259 0 min 0,000 mm 0,0 UV-I 0 W/m 8,1 C 9,2 C 12,9 km/h (3 Bft) 100,00 %
14.04.2016 01:53 9,7 C 90 % 1006,7 hPa 0,0 l/m 10,4 km/h (2 Bft) W-SW 254 0 min 0,000 mm 0,0 UV-I 0 W/m 8,1 C 7,0 C 12,9 km/h (3 Bft) 100,00 %
14.04.2016 01:54 9,7 C 90 % 1006,7 hPa 0,0 l/m 10,4 km/h (2 Bft) SW 236 0 min 0,000 mm 0,0 UV-I 0 W/m 8,1 C 7,0 C 12,9 km/h (3 Bft) 100,00 %
14.04.2016 01:55 9,7 C 90 % 1006,7 hPa 0,0 l/m 8,9 km/h (2 Bft) W-SW 246 0 min 0,000 mm 0,0 UV-I 0 W/m 8,1 C 7,9 C 12,9 km/h (3 Bft) 100,00 %
14.04.2016 01:56 9,7 C 90 % 1006,8 hPa 0,0 l/m 9,7 km/h (2 Bft) W-SW 247 0 min 0,000 mm 0,0 UV-I 0 W/m 8,1 C 7,4 C 12,9 km/h (3 Bft) 100,00 %
14.04.2016 01:57 9,7 C 90 % 1006,8 hPa 0,0 l/m 8,2 km/h (2 Bft) W-SW 255 0 min 0,000 mm 0,0 UV-I 0 W/m 8,1 C 8,4 C 14,5 km/h (3 Bft) 100,00 %
14.04.2016 01:58 9,7 C 90 % 1006,8 hPa 0,0 l/m 7,7 km/h (2 Bft) W-SW 257 0 min 0,000 mm 0,0 UV-I 0 W/m 8,1 C 8,7 C 11,3 km/h (2 Bft) 100,00 %
14.04.2016 01:59 9,7 C 90 % 1006,8 hPa 0,0 l/m 10,0 km/h (2 Bft) W 259 0 min 0,000 mm 0,0 UV-I 0 W/m 8,1 C 7,3 C 14,5 km/h (3 Bft) 97,37 %
14.04.2016 02:00 9,6 C 90 % 1006,8 hPa 0,0 l/m 7,4 km/h (2 Bft) SW 234 0 min 0,000 mm 0,0 UV-I 0 W/m 8,0 C 8,9 C 12,9 km/h (3 Bft) 100,00 %
14.04.2016 02:01 9,6 C 90 % 1006,8 hPa 0,0 l/m 9,0 km/h (2 Bft) W-SW 251 0 min 0,000 mm 0,0 UV-I 0 W/m 8,0 C 7,8 C 12,9 km/h (3 Bft) 100,00 %
14.04.2016 02:02 9,7 C 90 % 1006,8 hPa 0,0 l/m 9,3 km/h (2 Bft) W-SW 242 0 min 0,000 mm 0,0 UV-I 0 W/m 8,1 C 7,7 C 11,3 km/h (2 Bft) 96,30 %
14.04.2016 02:03 9,6 C 90 % 1006,8 hPa 0,0 l/m 7,4 km/h (2 Bft) W 261 0 min 0,000 mm 0,0 UV-I 0 W/m 8,0 C 8,9 C 12,9 km/h (3 Bft) 100,00 %
14.04.2016 02:04 9,6 C 90 % 1006,8 hPa 0,0 l/m 8,3 km/h (2 Bft) SW 229 0 min 0,000 mm 0,0 UV-I 0 W/m 8,0 C 8,2 C 12,9 km/h (3 Bft) 100,00 %
14.04.2016 02:05 9,6 C 90 % 1006,8 hPa 0,0 l/m 7,3 km/h (2 Bft) SW 236 0 min 0,000 mm 0,0 UV-I 0 W/m 8,0 C 8,9 C 9,7 km/h (2 Bft) 100,00 %
14.04.2016 02:06 9,6 C 90 % 1006,8 hPa 0,0 l/m 8,3 km/h (2 Bft) SW 233 0 min 0,000 mm 0,0 UV-I 0 W/m 8,0 C 8,2 C 11,3 km/h (2 Bft) 100,00 %
14.04.2016 02:07 9,6 C 90 % 1006,8 hPa 0,0 l/m 9,2 km/h (2 Bft) S-SW 211 0 min 0,000 mm 0,0 UV-I 0 W/m 8,0 C 7,6 C 11,3 km/h (2 Bft) 100,00 %
14.04.2016 02:08 9,6 C 90 % 1006,8 hPa 0,0 l/m 11,3 km/h (2 Bft) SW 230 0 min 0,000 mm 0,0 UV-I 0 W/m 8,0 C 6,4 C 14,5 km/h (3 Bft) 100,00 %
14.04.2016 02:09 9,6 C 90 % 1006,8 hPa 0,0 l/m 8,1 km/h (2 Bft) W-SW 238 0 min 0,000 mm 0,0 UV-I 0 W/m 8,0 C 8,4 C 9,7 km/h (2 Bft) 100,00 %
14.04.2016 02:10 9,6 C 90 % 1006,9 hPa 0,0 l/m 7,4 km/h (2 Bft) W-SW 242 0 min 0,000 mm 0,0 UV-I 0 W/m 8,0 C 8,9 C 11,3 km/h (2 Bft) 100,00 %
14.04.2016 02:11 9,6 C 90 % 1006,9 hPa 0,0 l/m 9,7 km/h (2 Bft) SW 236 0 min 0,000 mm 0,0 UV-I 0 W/m 8,0 C 7,3 C 14,5 km/h (3 Bft) 100,00 %
14.04.2016 02:12 9,6 C 90 % 1006,8 hPa 0,0 l/m 10,0 km/h (2 Bft) SW 231 0 min 0,000 mm 0,0 UV-I 0 W/m 8,0 C 7,2 C 14,5 km/h (3 Bft) 100,00 %
14.04.2016 02:13 9,6 C 90 % 1006,9 hPa 0,0 l/m 8,7 km/h (2 Bft) SW 219 0 min 0,000 mm 0,0 UV-I 0 W/m 8,0 C 8,0 C 14,5 km/h (3 Bft) 100,00 %
14.04.2016 02:14 9,6 C 90 % 1006,8 hPa 0,0 l/m 7,9 km/h (2 Bft) SW 232 0 min 0,000 mm 0,0 UV-I 0 W/m 8,0 C 8,5 C 11,3 km/h (2 Bft) 100,00 %
14.04.2016 02:15 9,6 C 90 % 1006,8 hPa 0,0 l/m 7,6 km/h (2 Bft) W-SW 248 0 min 0,000 mm 0,0 UV-I 0 W/m 8,0 C 8,7 C 11,3 km/h (2 Bft) 100,00 %
14.04.2016 02:16 9,6 C 90 % 1006,8 hPa 0,0 l/m 9,0 km/h (2 Bft) W-SW 246 0 min 0,000 mm 0,0 UV-I 0 W/m 8,0 C 7,8 C 14,5 km/h (3 Bft) 100,00 %
14.04.2016 02:17 9,6 C 90 % 1006,8 hPa 0,0 l/m 8,7 km/h (2 Bft) SW 223 0 min 0,000 mm 0,0 UV-I 0 W/m 8,0 C 8,0 C 9,7 km/h (2 Bft) 96,15 %
14.04.2016 02:18 9,6 C 90 % 1006,8 hPa 0,0 l/m 7,4 km/h (2 Bft) SW 227 0 min 0,000 mm 0,0 UV-I 0 W/m 8,0 C 8,9 C 9,7 km/h (2 Bft) 100,00 %
14.04.2016 02:19 9,6 C 90 % 1006,8 hPa 0,0 l/m 8,4 km/h (2 Bft) SW 233 0 min 0,000 mm 0,0 UV-I 0 W/m 8,0 C 8,2 C 11,3 km/h (2 Bft) 100,00 %
14.04.2016 02:20 9,6 C 90 % 1006,7 hPa 0,0 l/m 9,6 km/h (2 Bft) SW 235 0 min 0,000 mm 0,0 UV-I 0 W/m 8,0 C 7,4 C 16,1 km/h (3 Bft) 100,00 %
14.04.2016 02:21 9,6 C 90 % 1006,7 hPa 0,0 l/m 8,7 km/h (2 Bft) SW 229 0 min 0,000 mm 0,0 UV-I 0 W/m 8,0 C 8,0 C 11,3 km/h (2 Bft) 100,00 %
14.04.2016 02:22 9,7 C 90 % 1006,7 hPa 0,0 l/m 7,6 km/h (2 Bft) SW 232 0 min 0,000 mm 0,0 UV-I 0 W/m 8,1 C 8,8 C 11,3 km/h (2 Bft) 100,00 %
14.04.2016 02:23 9,6 C 90 % 1006,7 hPa 0,0 l/m 6,0 km/h (2 Bft) W-SW 256 0 min 0,000 mm 0,0 UV-I 0 W/m 8,0 C 9,6 C 8,0 km/h (2 Bft) 100,00 %
14.04.2016 02:24 9,7 C 90 % 1006,7 hPa 0,0 l/m 8,5 km/h (2 Bft) S-SW 207 0 min 0,000 mm 0,0 UV-I 0 W/m 8,1 C 8,2 C 12,9 km/h (3 Bft) 100,00 %
14.04.2016 02:25 9,7 C 90 % 1006,7 hPa 0,0 l/m 7,2 km/h (2 Bft) SW 220 0 min 0,000 mm 0,0 UV-I 0 W/m 8,1 C 9,1 C 12,9 km/h (3 Bft) 100,00 %
14.04.2016 02:26 9,7 C 90 % 1006,7 hPa 0,0 l/m 7,7 km/h (2 Bft) SW 221 0 min 0,000 mm 0,0 UV-I 0 W/m 8,1 C 8,7 C 9,7 km/h (2 Bft) 100,00 %
14.04.2016 02:27 9,7 C 90 % 1006,7 hPa 0,0 l/m 6,6 km/h (2 Bft) W-SW 238 0 min 0,000 mm 0,0 UV-I 0 W/m 8,1 C 9,6 C 11,3 km/h (2 Bft) 100,00 %
14.04.2016 02:28 9,7 C 90 % 1006,7 hPa 0,0 l/m 6,1 km/h (2 Bft) S-SW 211 0 min 0,000 mm 0,0 UV-I 0 W/m 8,1 C 9,7 C 8,0 km/h (2 Bft) 95,65 %
14.04.2016 02:29 9,7 C 90 % 1006,7 hPa 0,0 l/m 8,6 km/h (2 Bft) SW 229 0 min 0,000 mm 0,0 UV-I 0 W/m 8,1 C 8,1 C 12,9 km/h (3 Bft) 96,30 %
14.04.2016 02:30 9,7 C 90 % 1006,8 hPa 0,0 l/m 6,6 km/h (2 Bft) SW 228 0 min 0,000 mm 0,0 UV-I 0 W/m 8,1 C 9,6 C 8,0 km/h (2 Bft) 100,00 %
14.04.2016 02:31 9,7 C 89 % 1006,8 hPa 0,0 l/m 6,2 km/h (2 Bft) SW 228 0 min 0,000 mm 0,0 UV-I 0 W/m 8,0 C 9,7 C 8,0 km/h (2 Bft) 100,00 %
14.04.2016 02:32 9,7 C 89 % 1006,8 hPa 0,0 l/m 7,3 km/h (2 Bft) S-SW 205 0 min 0,000 mm 0,0 UV-I 0 W/m 8,0 C 9,0 C 9,7 km/h (2 Bft) 100,00 %
14.04.2016 02:33 9,7 C 89 % 1006,8 hPa 0,0 l/m 8,4 km/h (2 Bft) SW 235 0 min 0,000 mm 0,0 UV-I 0 W/m 8,0 C 8,3 C 12,9 km/h (3 Bft) 96,30 %
14.04.2016 02:34 9,7 C 89 % 1006,8 hPa 0,0 l/m 8,7 km/h (2 Bft) S-SW 210 0 min 0,000 mm 0,0 UV-I 0 W/m 8,0 C 8,1 C 11,3 km/h (2 Bft) 100,00 %
14.04.2016 02:35 9,7 C 89 % 1006,8 hPa 0,0 l/m 8,1 km/h (2 Bft) SW 227 0 min 0,000 mm 0,0 UV-I 0 W/m 8,0 C 8,5 C 9,7 km/h (2 Bft) 100,00 %
14.04.2016 02:36 9,7 C 89 % 1006,8 hPa 0,0 l/m 6,8 km/h (2 Bft) S-SW 196 0 min 0,000 mm 0,0 UV-I 0 W/m 8,0 C 9,4 C 9,7 km/h (2 Bft) 100,00 %
14.04.2016 02:37 9,7 C 89 % 1006,8 hPa 0,0 l/m 7,8 km/h (2 Bft) SW 227 0 min 0,000 mm 0,0 UV-I 0 W/m 8,0 C 8,7 C 14,5 km/h (3 Bft) 100,00 %
14.04.2016 02:38 9,7 C 89 % 1006,8 hPa 0,0 l/m 8,5 km/h (2 Bft) SW 234 0 min 0,000 mm 0,0 UV-I 0 W/m 8,0 C 8,2 C 11,3 km/h (2 Bft) 100,00 %
14.04.2016 02:39 9,7 C 90 % 1006,8 hPa 0,0 l/m 7,6 km/h (2 Bft) S-SW 211 0 min 0,000 mm 0,0 UV-I 0 W/m 8,1 C 8,8 C 9,7 km/h (2 Bft) 95,65 %
14.04.2016 02:40 9,7 C 89 % 1006,8 hPa 0,0 l/m 9,2 km/h (2 Bft) SW 227 0 min 0,000 mm 0,0 UV-I 0 W/m 8,0 C 7,7 C 12,9 km/h (3 Bft) 100,00 %
14.04.2016 02:41 9,7 C 90 % 1006,7 hPa 0,0 l/m 8,9 km/h (2 Bft) SW 225 0 min 0,000 mm 0,0 UV-I 0 W/m 8,1 C 7,9 C 11,3 km/h (2 Bft) 100,00 %
14.04.2016 02:42 9,7 C 90 % 1006,7 hPa 0,0 l/m 7,4 km/h (2 Bft) SW 231 0 min 0,000 mm 0,0 UV-I 0 W/m 8,1 C 9,0 C 9,7 km/h (2 Bft) 100,00 %
14.04.2016 02:43 9,7 C 90 % 1006,8 hPa 0,0 l/m 6,6 km/h (2 Bft) SW 215 0 min 0,000 mm 0,0 UV-I 0 W/m 8,1 C 9,6 C 8,0 km/h (2 Bft) 100,00 %
14.04.2016 02:44 9,6 C 90 % 1006,8 hPa 0,0 l/m 6,2 km/h (2 Bft) W 262 0 min 0,000 mm 0,0 UV-I 0 W/m 8,0 C 9,6 C 8,0 km/h (2 Bft) 96,30 %
14.04.2016 02:45 9,6 C 90 % 1006,8 hPa 0,0 l/m 7,8 km/h (2 Bft) SW 234 0 min 0,000 mm 0,0 UV-I 0 W/m 8,0 C 8,6 C 9,7 km/h (2 Bft) 100,00 %
14.04.2016 02:46 9,6 C 90 % 1006,8 hPa 0,0 l/m 7,0 km/h (2 Bft) SW 236 0 min 0,000 mm 0,0 UV-I 0 W/m 8,0 C 9,2 C 9,7 km/h (2 Bft) 100,00 %
14.04.2016 02:47 9,6 C 90 % 1006,8 hPa 0,0 l/m 8,6 km/h (2 Bft) SW 234 0 min 0,000 mm 0,0 UV-I 0 W/m 8,0 C 8,0 C 11,3 km/h (2 Bft) 100,00 %
14.04.2016 02:48 9,6 C 90 % 1006,8 hPa 0,0 l/m 7,4 km/h (2 Bft) SW 226 0 min 0,000 mm 0,0 UV-I 0 W/m 8,0 C 8,9 C 11,3 km/h (2 Bft) 100,00 %
14.04.2016 02:49 9,6 C 90 % 1006,8 hPa 0,0 l/m 7,1 km/h (2 Bft) SW 217 0 min 0,000 mm 0,0 UV-I 0 W/m 8,0 C 9,1 C 9,7 km/h (2 Bft) 96,15 %
14.04.2016 02:50 9,6 C 90 % 1006,8 hPa 0,0 l/m 6,1 km/h (2 Bft) SW 220 0 min 0,000 mm 0,0 UV-I 0 W/m 8,0 C 9,6 C 8,0 km/h (2 Bft) 100,00 %
14.04.2016 02:51 9,6 C 90 % 1006,8 hPa 0,0 l/m 6,9 km/h (2 Bft) SW 225 0 min 0,000 mm 0,0 UV-I 0 W/m 8,0 C 9,2 C 8,0 km/h (2 Bft) 100,00 %
14.04.2016 02:52 9,6 C 90 % 1006,8 hPa 0,0 l/m 6,1 km/h (2 Bft) SW 229 0 min 0,000 mm 0,0 UV-I 0 W/m 8,0 C 9,6 C 8,0 km/h (2 Bft) 100,00 %
14.04.2016 02:53 9,6 C 90 % 1006,8 hPa 0,0 l/m 6,6 km/h (2 Bft) W-SW 240 0 min 0,000 mm 0,0 UV-I 0 W/m 8,0 C 9,5 C 9,7 km/h (2 Bft) 100,00 %
14.04.2016 02:54 9,6 C 90 % 1006,8 hPa 0,0 l/m 7,4 km/h (2 Bft) W-SW 242 0 min 0,000 mm 0,0 UV-I 0 W/m 8,0 C 8,9 C 9,7 km/h (2 Bft) 96,15 %
14.04.2016 02:55 9,6 C 90 % 1006,8 hPa 0,0 l/m 8,0 km/h (2 Bft) W-SW 243 0 min 0,000 mm 0,0 UV-I 0 W/m 8,0 C 8,4 C 11,3 km/h (2 Bft) 100,00 %
14.04.2016 02:56 9,6 C 90 % 1006,8 hPa 0,0 l/m 7,2 km/h (2 Bft) W-SW 248 0 min 0,000 mm 0,0 UV-I 0 W/m 8,0 C 9,0 C 9,7 km/h (2 Bft) 91,30 %
14.04.2016 02:57 9,6 C 90 % 1006,8 hPa 0,0 l/m 7,0 km/h (2 Bft) W-SW 243 0 min 0,000 mm 0,0 UV-I 0 W/m 8,0 C 9,2 C 11,3 km/h (2 Bft) 96,67 %
14.04.2016 02:58 9,6 C 90 % 1006,8 hPa 0,0 l/m 6,7 km/h (2 Bft) W-SW 239 0 min 0,000 mm 0,0 UV-I 0 W/m 8,0 C 9,4 C 9,7 km/h (2 Bft) 100,00 %
14.04.2016 02:59 9,6 C 90 % 1006,8 hPa 0,0 l/m 6,8 km/h (2 Bft) SW 234 0 min 0,000 mm 0,0 UV-I 0 W/m 8,0 C 9,3 C 11,3 km/h (2 Bft) 100,00 %
14.04.2016 03:00 9,6 C 90 % 1006,8 hPa 0,0 l/m 6,6 km/h (2 Bft) W-SW 243 0 min 0,000 mm 0,0 UV-I 0 W/m 8,0 C 9,5 C 9,7 km/h (2 Bft) 97,73 %
14.04.2016 03:01 9,6 C 90 % 1006,8 hPa 0,0 l/m 7,2 km/h (2 Bft) SW 231 0 min 0,000 mm 0,0 UV-I 0 W/m 8,0 C 9,0 C 8,0 km/h (2 Bft) 93,33 %
14.04.2016 03:02 9,6 C 90 % 1006,7 hPa 0,0 l/m 7,4 km/h (2 Bft) SW 227 0 min 0,000 mm 0,0 UV-I 0 W/m 8,0 C 8,9 C 9,7 km/h (2 Bft) 100,00 %
14.04.2016 03:03 9,6 C 90 % 1006,7 hPa 0,0 l/m 6,7 km/h (2 Bft) W-SW 238 0 min 0,000 mm 0,0 UV-I 0 W/m 8,0 C 9,4 C 9,7 km/h (2 Bft) 96,30 %
14.04.2016 03:04 9,6 C 90 % 1006,7 hPa 0,0 l/m 5,2 km/h (1 Bft) SW 231 0 min 0,000 mm 0,0 UV-I 0 W/m 8,0 C 9,6 C 6,4 km/h (2 Bft) 96,15 %
14.04.2016 03:05 9,6 C 90 % 1006,7 hPa 0,0 l/m 5,7 km/h (1 Bft) SW 234 0 min 0,000 mm 0,0 UV-I 0 W/m 8,0 C 9,6 C 8,0 km/h (2 Bft) 100,00 %
14.04.2016 03:06 9,6 C 90 % 1006,7 hPa 0,0 l/m 5,4 km/h (1 Bft) SW 233 0 min 0,000 mm 0,0 UV-I 0 W/m 8,0 C 9,6 C 8,0 km/h (2 Bft) 96,15 %
14.04.2016 03:07 9,6 C 90 % 1006,7 hPa 0,0 l/m 5,3 km/h (1 Bft) W-SW 254 0 min 0,000 mm 0,0 UV-I 0 W/m 8,0 C 9,6 C 8,0 km/h (2 Bft) 100,00 %
14.04.2016 03:08 9,6 C 90 % 1006,7 hPa 0,0 l/m 6,7 km/h (2 Bft) SW 234 0 min 0,000 mm 0,0 UV-I 0 W/m 8,0 C 9,4 C 8,0 km/h (2 Bft) 96,15 %
14.04.2016 03:09 9,6 C 90 % 1006,8 hPa 0,0 l/m 6,2 km/h (2 Bft) SW 223 0 min 0,000 mm 0,0 UV-I 0 W/m 8,0 C 9,6 C 8,0 km/h (2 Bft) 100,00 %
14.04.2016 03:10 9,6 C 90 % 1006,8 hPa 0,0 l/m 5,8 km/h (2 Bft) W-SW 250 0 min 0,000 mm 0,0 UV-I 0 W/m 8,0 C 9,6 C 8,0 km/h (2 Bft) 92,31 %
14.04.2016 03:11 9,6 C 90 % 1006,8 hPa 0,0 l/m 6,0 km/h (2 Bft) W-SW 248 0 min 0,000 mm 0,0 UV-I 0 W/m 8,0 C 9,6 C 8,0 km/h (2 Bft) 95,83 %
14.04.2016 03:12 9,6 C 90 % 1006,8 hPa 0,0 l/m 6,3 km/h (2 Bft) W-SW 254 0 min 0,000 mm 0,0 UV-I 0 W/m 8,0 C 9,6 C 6,4 km/h (2 Bft) 100,00 %
14.04.2016 03:13 9,6 C 90 % 1006,8 hPa 0,0 l/m 7,6 km/h (2 Bft) W-SW 244 0 min 0,000 mm 0,0 UV-I 0 W/m 8,0 C 8,7 C 9,7 km/h (2 Bft) 96,55 %
14.04.2016 03:14 9,6 C 90 % 1006,8 hPa 0,0 l/m 5,4 km/h (1 Bft) W-SW 244 0 min 0,000 mm 0,0 UV-I 0 W/m 8,0 C 9,6 C 8,0 km/h (2 Bft) 100,00 %
14.04.2016 03:15 9,6 C 90 % 1006,8 hPa 0,0 l/m 5,7 km/h (1 Bft) W 269 0 min 0,000 mm 0,0 UV-I 0 W/m 8,0 C 9,6 C 8,0 km/h (2 Bft) 95,83 %
14.04.2016 03:16 9,6 C 90 % 1006,8 hPa 0,0 l/m 5,7 km/h (1 Bft) W-SW 253 0 min 0,000 mm 0,0 UV-I 0 W/m 8,0 C 9,6 C 8,0 km/h (2 Bft) 100,00 %
14.04.2016 03:17 9,6 C 90 % 1006,8 hPa 0,0 l/m 4,3 km/h (1 Bft) W-SW 244 0 min 0,000 mm 0,0 UV-I 0 W/m 8,0 C 9,6 C 4,8 km/h (1 Bft) 93,33 %
14.04.2016 03:18 9,6 C 90 % 1006,8 hPa 0,0 l/m 5,6 km/h (1 Bft) SW 234 0 min 0,000 mm 0,0 UV-I 0 W/m 8,0 C 9,6 C 8,0 km/h (2 Bft) 100,00 %
14.04.2016 03:19 9,6 C 90 % 1006,8 hPa 0,0 l/m 5,9 km/h (2 Bft) W-SW 242 0 min 0,000 mm 0,0 UV-I 0 W/m 8,0 C 9,6 C 8,0 km/h (2 Bft) 96,15 %
14.04.2016 03:20 9,6 C 90 % 1006,8 hPa 0,0 l/m 7,3 km/h (2 Bft) W 270 0 min 0,000 mm 0,0 UV-I 0 W/m 8,0 C 8,9 C 11,3 km/h (2 Bft) 96,30 %
14.04.2016 03:21 9,6 C 90 % 1006,8 hPa 0,0 l/m 4,4 km/h (1 Bft) SW 235 0 min 0,000 mm 0,0 UV-I 0 W/m 8,0 C 9,6 C 6,4 km/h (2 Bft) 100,00 %
14.04.2016 03:22 9,6 C 90 % 1006,9 hPa 0,0 l/m 4,8 km/h (1 Bft) W-SW 245 0 min 0,000 mm 0,0 UV-I 0 W/m 8,0 C 9,6 C 6,4 km/h (2 Bft) 96,30 %
14.04.2016 03:23 9,6 C 90 % 1006,9 hPa 0,0 l/m 5,2 km/h (1 Bft) W-SW 248 0 min 0,000 mm 0,0 UV-I 0 W/m 8,0 C 9,6 C 8,0 km/h (2 Bft) 100,00 %
14.04.2016 03:24 9,6 C 90 % 1006,9 hPa 0,0 l/m 4,5 km/h (1 Bft) W-SW 250 0 min 0,000 mm 0,0 UV-I 0 W/m 8,0 C 9,6 C 6,4 km/h (2 Bft) 95,83 %
14.04.2016 03:25 9,6 C 90 % 1006,8 hPa 0,0 l/m 5,4 km/h (1 Bft) SW 234 0 min 0,000 mm 0,0 UV-I 0 W/m 8,0 C 9,6 C 6,4 km/h (2 Bft) 100,00 %
14.04.2016 03:26 9,6 C 90 % 1006,8 hPa 0,0 l/m 5,8 km/h (2 Bft) W-SW 246 0 min 0,000 mm 0,0 UV-I 0 W/m 8,0 C 9,6 C 8,0 km/h (2 Bft) 95,83 %
14.04.2016 03:27 9,6 C 90 % 1006,9 hPa 0,0 l/m 4,6 km/h (1 Bft) SW 235 0 min 0,000 mm 0,0 UV-I 0 W/m 8,0 C 9,6 C 4,8 km/h (1 Bft) 100,00 %
14.04.2016 03:28 9,6 C 90 % 1006,9 hPa 0,0 l/m 5,5 km/h (1 Bft) SW 231 0 min 0,000 mm 0,0 UV-I 0 W/m 8,0 C 9,6 C 6,4 km/h (2 Bft) 100,00 %
14.04.2016 03:29 9,6 C 90 % 1006,9 hPa 0,0 l/m 4,1 km/h (1 Bft) SW 232 0 min 0,000 mm 0,0 UV-I 0 W/m 8,0 C 9,6 C 4,8 km/h (1 Bft) 96,15 %
14.04.2016 03:30 9,6 C 90 % 1006,9 hPa 0,0 l/m 4,2 km/h (1 Bft) SW 233 0 min 0,000 mm 0,0 UV-I 0 W/m 8,0 C 9,6 C 4,8 km/h (1 Bft) 98,55 %
14.04.2016 03:31 9,6 C 90 % 1006,9 hPa 0,0 l/m 4,0 km/h (1 Bft) SW 233 0 min 0,000 mm 0,0 UV-I 0 W/m 8,0 C 9,6 C 4,8 km/h (1 Bft) 100,00 %
14.04.2016 03:32 9,6 C 90 % 1006,9 hPa 0,0 l/m 3,2 km/h (1 Bft) SW 233 0 min 0,000 mm 0,0 UV-I 0 W/m 8,0 C 9,6 C 4,8 km/h (1 Bft) 100,00 %
14.04.2016 03:33 9,6 C 90 % 1006,9 hPa 0,0 l/m 4,4 km/h (1 Bft) SW 217 0 min 0,000 mm 0,0 UV-I 0 W/m 8,0 C 9,6 C 6,4 km/h (2 Bft) 100,00 %
14.04.2016 03:34 9,6 C 90 % 1006,9 hPa 0,0 l/m 5,5 km/h (1 Bft) SW 234 0 min 0,000 mm 0,0 UV-I 0 W/m 8,0 C 9,6 C 8,0 km/h (2 Bft) 92,59 %
14.04.2016 03:35 9,6 C 90 % 1006,9 hPa 0,0 l/m 5,6 km/h (1 Bft) S-SW 193 0 min 0,000 mm 0,0 UV-I 0 W/m 8,0 C 9,6 C 8,0 km/h (2 Bft) 100,00 %
14.04.2016 03:36 9,6 C 90 % 1007,0 hPa 0,0 l/m 3,3 km/h (1 Bft) SW 219 0 min 0,000 mm 0,0 UV-I 0 W/m 8,0 C 9,6 C 6,4 km/h (2 Bft) 100,00 %
14.04.2016 03:37 9,6 C 90 % 1007,0 hPa 0,0 l/m 5,0 km/h (1 Bft) SW 229 0 min 0,000 mm 0,0 UV-I 0 W/m 8,0 C 9,6 C 6,4 km/h (2 Bft) 95,65 %
14.04.2016 03:38 9,6 C 90 % 1007,0 hPa 0,0 l/m 4,5 km/h (1 Bft) S-SW 203 0 min 0,000 mm 0,0 UV-I 0 W/m 8,0 C 9,6 C 6,4 km/h (2 Bft) 100,00 %
14.04.2016 03:39 9,6 C 90 % 1007,0 hPa 0,0 l/m 5,9 km/h (2 Bft) S-SW 213 0 min 0,000 mm 0,0 UV-I 0 W/m 8,0 C 9,6 C 8,0 km/h (2 Bft) 96,43 %
14.04.2016 03:40 9,6 C 90 % 1007,0 hPa 0,0 l/m 4,6 km/h (1 Bft) W-SW 253 0 min 0,000 mm 0,0 UV-I 0 W/m 8,0 C 9,6 C 6,4 km/h (2 Bft) 95,65 %
14.04.2016 03:41 9,6 C 90 % 1007,0 hPa 0,0 l/m 6,6 km/h (2 Bft) W-SW 240 0 min 0,000 mm 0,0 UV-I 0 W/m 8,0 C 9,5 C 9,7 km/h (2 Bft) 100,00 %
14.04.2016 03:42 9,6 C 90 % 1007,1 hPa 0,0 l/m 8,4 km/h (2 Bft) W-SW 240 0 min 0,000 mm 0,0 UV-I 0 W/m 8,0 C 8,2 C 12,9 km/h (3 Bft) 100,00 %
14.04.2016 03:43 9,6 C 90 % 1007,0 hPa 0,0 l/m 8,0 km/h (2 Bft) W-SW 250 0 min 0,000 mm 0,0 UV-I 0 W/m 8,0 C 8,4 C 11,3 km/h (2 Bft) 100,00 %
14.04.2016 03:44 9,6 C 90 % 1007,0 hPa 0,0 l/m 5,3 km/h (1 Bft) W-SW 245 0 min 0,000 mm 0,0 UV-I 0 W/m 8,0 C 9,6 C 8,0 km/h (2 Bft) 100,00 %
14.04.2016 03:45 9,6 C 90 % 1007,0 hPa 0,0 l/m 6,7 km/h (2 Bft) W-SW 244 0 min 0,000 mm 0,0 UV-I 0 W/m 8,0 C 9,4 C 9,7 km/h (2 Bft) 100,00 %
14.04.2016 03:46 9,6 C 90 % 1007,0 hPa 0,0 l/m 8,4 km/h (2 Bft) SW 236 0 min 0,000 mm 0,0 UV-I 0 W/m 8,0 C 8,2 C 12,9 km/h (3 Bft) 96,15 %
14.04.2016 03:47 9,6 C 90 % 1007,0 hPa 0,0 l/m 5,7 km/h (1 Bft) W-SW 244 0 min 0,000 mm 0,0 UV-I 0 W/m 8,0 C 9,6 C 8,0 km/h (2 Bft) 100,00 %
14.04.2016 03:48 9,6 C 90 % 1007,0 hPa 0,0 l/m 6,9 km/h (2 Bft) W-SW 238 0 min 0,000 mm 0,0 UV-I 0 W/m 8,0 C 9,2 C 11,3 km/h (2 Bft) 100,00 %
14.04.2016 03:49 9,6 C 90 % 1007,1 hPa 0,0 l/m 4,7 km/h (1 Bft) W 260 0 min 0,000 mm 0,0 UV-I 0 W/m 8,0 C 9,6 C 6,4 km/h (2 Bft) 100,00 %
14.04.2016 03:50 9,6 C 89 % 1007,0 hPa 0,0 l/m 5,7 km/h (1 Bft) W-SW 247 0 min 0,000 mm 0,0 UV-I 0 W/m 7,9 C 9,6 C 6,4 km/h (2 Bft) 100,00 %
14.04.2016 03:51 9,6 C 90 % 1007,1 hPa 0,0 l/m 6,3 km/h (2 Bft) W-SW 252 0 min 0,000 mm 0,0 UV-I 0 W/m 8,0 C 9,6 C 9,7 km/h (2 Bft) 100,00 %
14.04.2016 03:52 9,6 C 90 % 1007,1 hPa 0,0 l/m 6,0 km/h (2 Bft) W-SW 244 0 min 0,000 mm 0,0 UV-I 0 W/m 8,0 C 9,6 C 8,0 km/h (2 Bft) 100,00 %
14.04.2016 03:53 9,6 C 90 % 1007,1 hPa 0,0 l/m 5,0 km/h (1 Bft) W 259 0 min 0,000 mm 0,0 UV-I 0 W/m 8,0 C 9,6 C 6,4 km/h (2 Bft) 95,65 %
14.04.2016 03:54 9,6 C 90 % 1007,1 hPa 0,0 l/m 5,6 km/h (1 Bft) W-SW 248 0 min 0,000 mm 0,0 UV-I 0 W/m 8,0 C 9,6 C 8,0 km/h (2 Bft) 100,00 %
14.04.2016 03:55 9,6 C 90 % 1007,1 hPa 0,0 l/m 5,6 km/h (1 Bft) W-SW 241 0 min 0,000 mm 0,0 UV-I 0 W/m 8,0 C 9,6 C 8,0 km/h (2 Bft) 100,00 %
14.04.2016 03:56 9,6 C 90 % 1007,1 hPa 0,0 l/m 5,2 km/h (1 Bft) W-SW 237 0 min 0,000 mm 0,0 UV-I 0 W/m 8,0 C 9,6 C 6,4 km/h (2 Bft) 100,00 %
14.04.2016 03:57 9,6 C 90 % 1007,1 hPa 0,0 l/m 6,0 km/h (2 Bft) SW 229 0 min 0,000 mm 0,0 UV-I 0 W/m 8,0 C 9,6 C 8,0 km/h (2 Bft) 100,00 %
14.04.2016 03:58 9,6 C 90 % 1007,1 hPa 0,0 l/m 6,1 km/h (2 Bft) SW 228 0 min 0,000 mm 0,0 UV-I 0 W/m 8,0 C 9,6 C 8,0 km/h (2 Bft) 100,00 %
14.04.2016 03:59 9,6 C 90 % 1007,1 hPa 0,0 l/m 5,6 km/h (1 Bft) SW 222 0 min 0,000 mm 0,0 UV-I 0 W/m 8,0 C 9,6 C 8,0 km/h (2 Bft) 100,00 %
14.04.2016 04:00 9,6 C 90 % 1007,0 hPa 0,0 l/m 7,3 km/h (2 Bft) SW 231 0 min 0,000 mm 0,0 UV-I 0 W/m 8,0 C 8,9 C 9,7 km/h (2 Bft) 100,00 %
14.04.2016 04:01 9,6 C 90 % 1007,0 hPa 0,0 l/m 5,8 km/h (2 Bft) SW 227 0 min 0,000 mm 0,0 UV-I 0 W/m 8,0 C 9,6 C 8,0 km/h (2 Bft) 100,00 %
14.04.2016 04:02 9,6 C 90 % 1007,0 hPa 0,0 l/m 5,5 km/h (1 Bft) S-SW 211 0 min 0,000 mm 0,0 UV-I 0 W/m 8,0 C 9,6 C 9,7 km/h (2 Bft) 100,00 %
14.04.2016 04:03 9,6 C 90 % 1007,1 hPa 0,0 l/m 6,0 km/h (2 Bft) W-SW 242 0 min 0,000 mm 0,0 UV-I 0 W/m 8,0 C 9,6 C 8,0 km/h (2 Bft) 100,00 %
14.04.2016 04:04 9,6 C 90 % 1007,1 hPa 0,0 l/m 5,3 km/h (1 Bft) SW 225 0 min 0,000 mm 0,0 UV-I 0 W/m 8,0 C 9,6 C 8,0 km/h (2 Bft) 100,00 %
14.04.2016 04:05 9,5 C 90 % 1007,1 hPa 0,0 l/m 6,6 km/h (2 Bft) SW 225 0 min 0,000 mm 0,0 UV-I 0 W/m 7,9 C 9,4 C 8,0 km/h (2 Bft) 96,55 %
14.04.2016 04:06 9,5 C 90 % 1007,0 hPa 0,0 l/m 7,4 km/h (2 Bft) W-SW 252 0 min 0,000 mm 0,0 UV-I 0 W/m 7,9 C 8,8 C 11,3 km/h (2 Bft) 100,00 %
14.04.2016 04:07 9,6 C 90 % 1007,0 hPa 0,0 l/m 5,5 km/h (1 Bft) W-SW 238 0 min 0,000 mm 0,0 UV-I 0 W/m 8,0 C 9,6 C 8,0 km/h (2 Bft) 100,00 %
14.04.2016 04:08 9,5 C 90 % 1007,0 hPa 0,0 l/m 7,4 km/h (2 Bft) W-SW 238 0 min 0,000 mm 0,0 UV-I 0 W/m 7,9 C 8,8 C 9,7 km/h (2 Bft) 100,00 %
14.04.2016 04:09 9,5 C 90 % 1007,1 hPa 0,0 l/m 7,0 km/h (2 Bft) S-SW 213 0 min 0,000 mm 0,0 UV-I 0 W/m 7,9 C 9,1 C 9,7 km/h (2 Bft) 100,00 %
14.04.2016 04:10 9,5 C 90 % 1007,1 hPa 0,0 l/m 5,7 km/h (1 Bft) W-SW 244 0 min 0,000 mm 0,0 UV-I 0 W/m 7,9 C 9,5 C 8,0 km/h (2 Bft) 100,00 %
14.04.2016 04:11 9,5 C 90 % 1007,1 hPa 0,0 l/m 5,5 km/h (1 Bft) W-SW 244 0 min 0,000 mm 0,0 UV-I 0 W/m 7,9 C 9,5 C 9,7 km/h (2 Bft) 100,00 %
14.04.2016 04:12 9,5 C 90 % 1007,0 hPa 0,0 l/m 7,6 km/h (2 Bft) W-SW 248 0 min 0,000 mm 0,0 UV-I 0 W/m 7,9 C 8,6 C 11,3 km/h (2 Bft) 100,00 %
14.04.2016 04:13 9,5 C 90 % 1007,0 hPa 0,0 l/m 5,4 km/h (1 Bft) W-SW 242 0 min 0,000 mm 0,0 UV-I 0 W/m 7,9 C 9,5 C 6,4 km/h (2 Bft) 100,00 %
14.04.2016 04:14 9,5 C 90 % 1007,0 hPa 0,0 l/m 8,4 km/h (2 Bft) SW 230 0 min 0,000 mm 0,0 UV-I 0 W/m 7,9 C 8,1 C 11,3 km/h (2 Bft) 100,00 %
14.04.2016 04:15 9,5 C 90 % 1007,0 hPa 0,0 l/m 6,6 km/h (2 Bft) SW 230 0 min 0,000 mm 0,0 UV-I 0 W/m 7,9 C 9,4 C 9,7 km/h (2 Bft) 100,00 %
14.04.2016 04:16 9,5 C 90 % 1007,1 hPa 0,0 l/m 6,3 km/h (2 Bft) SW 229 0 min 0,000 mm 0,0 UV-I 0 W/m 7,9 C 9,5 C 8,0 km/h (2 Bft) 100,00 %
14.04.2016 04:17 9,5 C 91 % 1007,1 hPa 0,0 l/m 9,4 km/h (2 Bft) S 190 0 min 0,000 mm 0,0 UV-I 0 W/m 8,1 C 7,4 C 14,5 km/h (3 Bft) 100,00 %
14.04.2016 04:18 9,4 C 91 % 1007,1 hPa 0,0 l/m 5,7 km/h (1 Bft) SW 227 0 min 0,000 mm 0,0 UV-I 0 W/m 8,0 C 9,4 C 8,0 km/h (2 Bft) 95,65 %
14.04.2016 04:19 9,5 C 91 % 1007,1 hPa 0,0 l/m 7,8 km/h (2 Bft) W-SW 257 0 min 0,000 mm 0,0 UV-I 0 W/m 8,1 C 8,5 C 11,3 km/h (2 Bft) 100,00 %
14.04.2016 04:20 9,4 C 90 % 1007,1 hPa 0,0 l/m 7,7 km/h (2 Bft) W-SW 242 0 min 0,000 mm 0,0 UV-I 0 W/m 7,8 C 8,4 C 11,3 km/h (2 Bft) 96,15 %
14.04.2016 04:21 9,4 C 90 % 1007,1 hPa 0,0 l/m 7,5 km/h (2 Bft) SW 225 0 min 0,000 mm 0,0 UV-I 0 W/m 7,8 C 8,6 C 9,7 km/h (2 Bft) 100,00 %
14.04.2016 04:22 9,4 C 90 % 1007,1 hPa 0,0 l/m 10,3 km/h (2 Bft) SW 224 0 min 0,000 mm 0,0 UV-I 0 W/m 7,8 C 6,8 C 16,1 km/h (3 Bft) 100,00 %
14.04.2016 04:23 9,4 C 90 % 1007,1 hPa 0,0 l/m 10,2 km/h (2 Bft) W-SW 254 0 min 0,000 mm 0,0 UV-I 0 W/m 7,8 C 6,8 C 16,1 km/h (3 Bft) 100,00 %
14.04.2016 04:24 9,4 C 90 % 1007,1 hPa 0,0 l/m 9,0 km/h (2 Bft) SW 236 0 min 0,000 mm 0,0 UV-I 0 W/m 7,8 C 7,6 C 11,3 km/h (2 Bft) 100,00 %
14.04.2016 04:25 9,4 C 91 % 1007,1 hPa 0,0 l/m 8,1 km/h (2 Bft) S-SW 209 0 min 0,000 mm 0,0 UV-I 0 W/m 8,0 C 8,2 C 9,7 km/h (2 Bft) 100,00 %
14.04.2016 04:26 9,4 C 91 % 1007,1 hPa 0,0 l/m 8,0 km/h (2 Bft) W-SW 239 0 min 0,000 mm 0,0 UV-I 0 W/m 8,0 C 8,2 C 11,3 km/h (2 Bft) 100,00 %
14.04.2016 04:27 9,4 C 91 % 1007,1 hPa 0,0 l/m 7,4 km/h (2 Bft) W-SW 237 0 min 0,000 mm 0,0 UV-I 0 W/m 8,0 C 8,7 C 11,3 km/h (2 Bft) 100,00 %
14.04.2016 04:28 9,4 C 91 % 1007,1 hPa 0,0 l/m 8,3 km/h (2 Bft) SW 221 0 min 0,000 mm 0,0 UV-I 0 W/m 8,0 C 8,0 C 11,3 km/h (2 Bft) 100,00 %
14.04.2016 04:29 9,4 C 91 % 1007,1 hPa 0,0 l/m 7,2 km/h (2 Bft) SW 231 0 min 0,000 mm 0,0 UV-I 0 W/m 8,0 C 8,8 C 9,7 km/h (2 Bft) 100,00 %
14.04.2016 04:30 9,4 C 91 % 1007,1 hPa 0,0 l/m 7,0 km/h (2 Bft) SW 225 0 min 0,000 mm 0,0 UV-I 0 W/m 8,0 C 9,0 C 9,7 km/h (2 Bft) 92,31 %
14.04.2016 04:31 9,4 C 91 % 1007,1 hPa 0,0 l/m 7,4 km/h (2 Bft) W-SW 254 0 min 0,000 mm 0,0 UV-I 0 W/m 8,0 C 8,7 C 11,3 km/h (2 Bft) 100,00 %
14.04.2016 04:32 9,4 C 91 % 1007,0 hPa 0,0 l/m 6,5 km/h (2 Bft) W-SW 255 0 min 0,000 mm 0,0 UV-I 0 W/m 8,0 C 9,4 C 8,0 km/h (2 Bft) 100,00 %
14.04.2016 04:33 9,3 C 91 % 1007,1 hPa 0,0 l/m 7,6 km/h (2 Bft) SW 227 0 min 0,000 mm 0,0 UV-I 0 W/m 7,9 C 8,4 C 9,7 km/h (2 Bft) 100,00 %
14.04.2016 04:34 9,3 C 91 % 1007,1 hPa 0,0 l/m 7,4 km/h (2 Bft) S-SW 206 0 min 0,000 mm 0,0 UV-I 0 W/m 7,9 C 8,6 C 11,3 km/h (2 Bft) 100,00 %
14.04.2016 04:35 9,3 C 91 % 1007,0 hPa 0,0 l/m 9,2 km/h (2 Bft) SW 227 0 min 0,000 mm 0,0 UV-I 0 W/m 7,9 C 7,3 C 12,9 km/h (3 Bft) 96,15 %
14.04.2016 04:36 9,3 C 92 % 1007,0 hPa 0,0 l/m 6,9 km/h (2 Bft) SW 223 0 min 0,000 mm 0,0 UV-I 0 W/m 8,1 C 8,9 C 9,7 km/h (2 Bft) 100,00 %
14.04.2016 04:37 9,3 C 92 % 1007,1 hPa 0,0 l/m 8,7 km/h (2 Bft) SW 228 0 min 0,000 mm 0,0 UV-I 0 W/m 8,1 C 7,6 C 11,3 km/h (2 Bft) 100,00 %
14.04.2016 04:38 9,3 C 92 % 1007,1 hPa 0,0 l/m 10,1 km/h (2 Bft) SW 229 0 min 0,000 mm 0,0 UV-I 0 W/m 8,1 C 6,8 C 11,3 km/h (2 Bft) 100,00 %
14.04.2016 04:39 9,3 C 91 % 1007,1 hPa 0,0 l/m 8,9 km/h (2 Bft) W-SW 250 0 min 0,000 mm 0,0 UV-I 0 W/m 7,9 C 7,5 C 12,9 km/h (3 Bft) 100,00 %
14.04.2016 04:40 9,3 C 91 % 1007,1 hPa 0,0 l/m 9,1 km/h (2 Bft) W 265 0 min 0,000 mm 0,0 UV-I 0 W/m 7,9 C 7,4 C 12,9 km/h (3 Bft) 100,00 %
14.04.2016 04:41 9,3 C 91 % 1007,1 hPa 0,0 l/m 8,0 km/h (2 Bft) S-SW 212 0 min 0,000 mm 0,0 UV-I 0 W/m 7,9 C 8,1 C 9,7 km/h (2 Bft) 100,00 %
14.04.2016 04:42 9,3 C 91 % 1007,0 hPa 0,0 l/m 10,1 km/h (2 Bft) SW 219 0 min 0,000 mm 0,0 UV-I 0 W/m 7,9 C 6,8 C 14,5 km/h (3 Bft) 100,00 %
14.04.2016 04:43 9,3 C 91 % 1007,0 hPa 0,0 l/m 6,7 km/h (2 Bft) SW 216 0 min 0,000 mm 0,0 UV-I 0 W/m 7,9 C 9,1 C 9,7 km/h (2 Bft) 100,00 %
14.04.2016 04:44 9,3 C 91 % 1007,0 hPa 0,0 l/m 7,5 km/h (2 Bft) W-SW 251 0 min 0,000 mm 0,0 UV-I 0 W/m 7,9 C 8,5 C 11,3 km/h (2 Bft) 100,00 %
14.04.2016 04:45 9,3 C 91 % 1007,1 hPa 0,0 l/m 11,1 km/h (2 Bft) W-SW 246 0 min 0,000 mm 0,0 UV-I 0 W/m 7,9 C 6,2 C 14,5 km/h (3 Bft) 100,00 %
14.04.2016 04:46 9,3 C 91 % 1007,0 hPa 0,0 l/m 10,9 km/h (2 Bft) W-SW 246 0 min 0,000 mm 0,0 UV-I 0 W/m 7,9 C 6,3 C 14,5 km/h (3 Bft) 100,00 %
14.04.2016 04:47 9,3 C 91 % 1007,0 hPa 0,0 l/m 9,9 km/h (2 Bft) W-SW 244 0 min 0,000 mm 0,0 UV-I 0 W/m 7,9 C 6,9 C 16,1 km/h (3 Bft) 100,00 %
14.04.2016 04:48 9,3 C 91 % 1007,0 hPa 0,0 l/m 8,6 km/h (2 Bft) W-SW 245 0 min 0,000 mm 0,0 UV-I 0 W/m 7,9 C 7,7 C 12,9 km/h (3 Bft) 100,00 %
14.04.2016 04:49 9,3 C 91 % 1007,0 hPa 0,0 l/m 7,5 km/h (2 Bft) W-SW 246 0 min 0,000 mm 0,0 UV-I 0 W/m 7,9 C 8,5 C 11,3 km/h (2 Bft) 96,55 %
14.04.2016 04:50 9,3 C 91 % 1007,0 hPa 0,0 l/m 6,4 km/h (2 Bft) SW 225 0 min 0,000 mm 0,0 UV-I 0 W/m 7,9 C 9,3 C 9,7 km/h (2 Bft) 100,00 %
14.04.2016 04:51 9,3 C 91 % 1007,0 hPa 0,0 l/m 7,8 km/h (2 Bft) W 264 0 min 0,000 mm 0,0 UV-I 0 W/m 7,9 C 8,3 C 12,9 km/h (3 Bft) 100,00 %
14.04.2016 04:52 9,3 C 91 % 1007,0 hPa 0,0 l/m 9,1 km/h (2 Bft) W-SW 237 0 min 0,000 mm 0,0 UV-I 0 W/m 7,9 C 7,4 C 12,9 km/h (3 Bft) 100,00 %
14.04.2016 04:53 9,3 C 91 % 1007,0 hPa 0,0 l/m 7,5 km/h (2 Bft) SW 236 0 min 0,000 mm 0,0 UV-I 0 W/m 7,9 C 8,5 C 11,3 km/h (2 Bft) 100,00 %
14.04.2016 04:54 9,3 C 91 % 1007,0 hPa 0,0 l/m 9,7 km/h (2 Bft) SW 224 0 min 0,000 mm 0,0 UV-I 0 W/m 7,9 C 7,0 C 14,5 km/h (3 Bft) 96,30 %
14.04.2016 04:55 9,3 C 91 % 1007,0 hPa 0,0 l/m 9,9 km/h (2 Bft) SW 227 0 min 0,000 mm 0,0 UV-I 0 W/m 7,9 C 6,9 C 12,9 km/h (3 Bft) 100,00 %
14.04.2016 04:56 9,3 C 91 % 1007,0 hPa 0,0 l/m 10,6 km/h (2 Bft) W-SW 237 0 min 0,000 mm 0,0 UV-I 0 W/m 7,9 C 6,5 C 12,9 km/h (3 Bft) 95,65 %
14.04.2016 04:57 9,3 C 91 % 1007,0 hPa 0,0 l/m 8,6 km/h (2 Bft) SW 220 0 min 0,000 mm 0,0 UV-I 0 W/m 7,9 C 7,7 C 12,9 km/h (3 Bft) 100,00 %
14.04.2016 04:58 9,3 C 91 % 1007,0 hPa 0,0 l/m 8,7 km/h (2 Bft) W-SW 238 0 min 0,000 mm 0,0 UV-I 0 W/m 7,9 C 7,6 C 16,1 km/h (3 Bft) 100,00 %
14.04.2016 04:59 9,3 C 91 % 1007,0 hPa 0,0 l/m 8,6 km/h (2 Bft) W-SW 243 0 min 0,000 mm 0,0 UV-I 0 W/m 7,9 C 7,7 C 14,5 km/h (3 Bft) 95,83 %
14.04.2016 05:00 9,3 C 91 % 1007,0 hPa 0,0 l/m 7,2 km/h (2 Bft) SW 228 0 min 0,000 mm 0,0 UV-I 0 W/m 7,9 C 8,7 C 11,3 km/h (2 Bft) 100,00 %
14.04.2016 05:01 9,3 C 91 % 1007,0 hPa 0,0 l/m 8,2 km/h (2 Bft) SW 229 0 min 0,000 mm 0,0 UV-I 0 W/m 7,9 C 8,0 C 9,7 km/h (2 Bft) 91,67 %
14.04.2016 05:02 9,3 C 91 % 1007,0 hPa 0,0 l/m 7,5 km/h (2 Bft) SW 224 0 min 0,000 mm 0,0 UV-I 0 W/m 7,9 C 8,5 C 12,9 km/h (3 Bft) 93,75 %
14.04.2016 05:03 9,3 C 91 % 1007,0 hPa 0,0 l/m 8,1 km/h (2 Bft) W-SW 239 0 min 0,000 mm 0,0 UV-I 0 W/m 7,9 C 8,0 C 12,9 km/h (3 Bft) 95,83 %
14.04.2016 05:04 9,3 C 91 % 1007,0 hPa 0,0 l/m 9,3 km/h (2 Bft) SW 229 0 min 0,000 mm 0,0 UV-I 0 W/m 7,9 C 7,3 C 12,9 km/h (3 Bft) 100,00 %
14.04.2016 05:05 9,3 C 91 % 1007,1 hPa 0,0 l/m 7,0 km/h (2 Bft) SW 219 0 min 0,000 mm 0,0 UV-I 0 W/m 7,9 C 8,9 C 9,7 km/h (2 Bft) 96,67 %
14.04.2016 05:06 9,2 C 91 % 1007,0 hPa 0,0 l/m 6,6 km/h (2 Bft) SW 236 0 min 0,000 mm 0,0 UV-I 0 W/m 7,8 C 9,1 C 9,7 km/h (2 Bft) 96,15 %
14.04.2016 05:07 9,2 C 91 % 1007,1 hPa 0,0 l/m 8,3 km/h (2 Bft) W 261 0 min 0,000 mm 0,0 UV-I 0 W/m 7,8 C 7,8 C 12,9 km/h (3 Bft) 100,00 %
14.04.2016 05:08 9,2 C 91 % 1007,1 hPa 0,0 l/m 7,1 km/h (2 Bft) SW 226 0 min 0,000 mm 0,0 UV-I 0 W/m 7,8 C 8,7 C 9,7 km/h (2 Bft) 86,96 %
14.04.2016 05:09 9,2 C 92 % 1007,1 hPa 0,0 l/m 6,0 km/h (2 Bft) SW 232 0 min 0,000 mm 0,0 UV-I 0 W/m 8,0 C 9,2 C 6,4 km/h (2 Bft) 100,00 %
14.04.2016 05:10 9,2 C 92 % 1007,2 hPa 0,0 l/m 7,9 km/h (2 Bft) SW 221 0 min 0,000 mm 0,0 UV-I 0 W/m 8,0 C 8,1 C 9,7 km/h (2 Bft) 98,80 %
14.04.2016 05:11 9,2 C 92 % 1007,2 hPa 0,0 l/m 7,0 km/h (2 Bft) W-SW 244 0 min 0,000 mm 0,0 UV-I 0 W/m 8,0 C 8,8 C 11,3 km/h (2 Bft) 97,56 %
14.04.2016 05:12 9,2 C 92 % 1007,2 hPa 0,0 l/m 5,9 km/h (2 Bft) W-SW 238 0 min 0,000 mm 0,0 UV-I 0 W/m 8,0 C 9,2 C 9,7 km/h (2 Bft) 96,15 %
14.04.2016 05:13 9,2 C 92 % 1007,2 hPa 0,0 l/m 5,9 km/h (2 Bft) SW 217 0 min 0,000 mm 0,0 UV-I 0 W/m 8,0 C 9,2 C 8,0 km/h (2 Bft) 96,30 %
14.04.2016 05:14 9,2 C 92 % 1007,2 hPa 0,0 l/m 8,9 km/h (2 Bft) SW 235 0 min 0,000 mm 0,0 UV-I 0 W/m 8,0 C 7,4 C 11,3 km/h (2 Bft) 100,00 %
14.04.2016 05:15 9,2 C 92 % 1007,2 hPa 0,0 l/m 7,0 km/h (2 Bft) S-SW 213 0 min 0,000 mm 0,0 UV-I 0 W/m 8,0 C 8,8 C 9,7 km/h (2 Bft) 95,65 %
14.04.2016 05:16 9,2 C 92 % 1007,2 hPa 0,0 l/m 6,5 km/h (2 Bft) S-SW 200 0 min 0,000 mm 0,0 UV-I 0 W/m 8,0 C 9,2 C 11,3 km/h (2 Bft) 91,67 %
14.04.2016 05:17 9,2 C 92 % 1007,2 hPa 0,0 l/m 7,3 km/h (2 Bft) SW 231 0 min 0,000 mm 0,0 UV-I 0 W/m 8,0 C 8,5 C 11,3 km/h (2 Bft) 93,10 %
14.04.2016 05:18 9,2 C 92 % 1007,2 hPa 0,0 l/m 9,0 km/h (2 Bft) S-SW 207 0 min 0,000 mm 0,0 UV-I 0 W/m 8,0 C 7,3 C 12,9 km/h (3 Bft) 100,00 %
14.04.2016 05:19 9,2 C 92 % 1007,2 hPa 0,0 l/m 5,2 km/h (1 Bft) S-SW 196 0 min 0,000 mm 0,0 UV-I 0 W/m 8,0 C 9,2 C 6,4 km/h (2 Bft) 96,55 %
14.04.2016 05:20 9,2 C 92 % 1007,2 hPa 0,0 l/m 7,5 km/h (2 Bft) SW 227 0 min 0,000 mm 0,0 UV-I 0 W/m 8,0 C 8,4 C 9,7 km/h (2 Bft) 100,00 %
14.04.2016 05:21 9,2 C 92 % 1007,2 hPa 0,0 l/m 10,1 km/h (2 Bft) SW 230 0 min 0,000 mm 0,0 UV-I 0 W/m 8,0 C 6,7 C 12,9 km/h (3 Bft) 95,65 %
14.04.2016 05:22 9,2 C 92 % 1007,1 hPa 0,0 l/m 11,2 km/h (2 Bft) W-SW 237 0 min 0,000 mm 0,0 UV-I 0 W/m 8,0 C 6,0 C 14,5 km/h (3 Bft) 95,83 %
14.04.2016 05:23 9,2 C 91 % 1007,2 hPa 0,0 l/m 8,8 km/h (2 Bft) SW 223 0 min 0,000 mm 0,0 UV-I 0 W/m 7,8 C 7,5 C 11,3 km/h (2 Bft) 100,00 %
14.04.2016 05:24 9,2 C 91 % 1007,2 hPa 0,0 l/m 9,7 km/h (2 Bft) W-SW 237 0 min 0,000 mm 0,0 UV-I 0 W/m 7,8 C 6,9 C 14,5 km/h (3 Bft) 95,83 %
14.04.2016 05:25 9,2 C 91 % 1007,1 hPa 0,0 l/m 10,6 km/h (2 Bft) W-SW 255 0 min 0,000 mm 0,0 UV-I 0 W/m 7,8 C 6,4 C 14,5 km/h (3 Bft) 100,00 %
14.04.2016 05:26 9,3 C 91 % 1007,2 hPa 0,0 l/m 8,6 km/h (2 Bft) W 267 0 min 0,000 mm 0,0 UV-I 0 W/m 7,9 C 7,7 C 12,9 km/h (3 Bft) 95,83 %
14.04.2016 05:27 9,3 C 91 % 1007,2 hPa 0,0 l/m 8,1 km/h (2 Bft) W-SW 250 0 min 0,000 mm 0,0 UV-I 0 W/m 7,9 C 8,0 C 11,3 km/h (2 Bft) 100,00 %
14.04.2016 05:28 9,3 C 91 % 1007,2 hPa 0,0 l/m 10,3 km/h (2 Bft) SW 224 0 min 0,000 mm 0,0 UV-I 0 W/m 7,9 C 6,6 C 14,5 km/h (3 Bft) 96,15 %
14.04.2016 05:29 9,3 C 91 % 1007,2 hPa 0,0 l/m 9,5 km/h (2 Bft) W-SW 257 0 min 0,000 mm 0,0 UV-I 0 W/m 7,9 C 7,1 C 14,5 km/h (3 Bft) 100,00 %
14.04.2016 05:30 9,3 C 91 % 1007,2 hPa 0,0 l/m 11,6 km/h (2 Bft) W-SW 241 0 min 0,000 mm 0,0 UV-I 0 W/m 7,9 C 5,9 C 14,5 km/h (3 Bft) 92,86 %
14.04.2016 05:31 9,3 C 91 % 1007,2 hPa 0,0 l/m 8,0 km/h (2 Bft) SW 229 0 min 0,000 mm 0,0 UV-I 0 W/m 7,9 C 8,1 C 11,3 km/h (2 Bft) 97,56 %
14.04.2016 05:32 9,3 C 91 % 1007,2 hPa 0,0 l/m 9,6 km/h (2 Bft) W-SW 237 0 min 0,000 mm 0,0 UV-I 0 W/m 7,9 C 7,1 C 12,9 km/h (3 Bft) 100,00 %
14.04.2016 05:33 9,3 C 91 % 1007,2 hPa 0,0 l/m 9,1 km/h (2 Bft) W 269 0 min 0,000 mm 0,0 UV-I 0 W/m 7,9 C 7,4 C 14,5 km/h (3 Bft) 96,30 %
14.04.2016 05:34 9,3 C 91 % 1007,2 hPa 0,0 l/m 11,7 km/h (2 Bft) W-SW 248 0 min 0,000 mm 0,0 UV-I 0 W/m 7,9 C 5,9 C 16,1 km/h (3 Bft) 100,00 %
14.04.2016 05:35 9,3 C 91 % 1007,2 hPa 0,0 l/m 12,3 km/h (3 Bft) W-SW 257 0 min 0,000 mm 0,0 UV-I 0 W/m 7,9 C 5,6 C 16,1 km/h (3 Bft) 95,83 %
14.04.2016 05:36 9,3 C 91 % 1007,2 hPa 0,0 l/m 10,4 km/h (2 Bft) W-SW 240 0 min 0,000 mm 0,0 UV-I 0 W/m 7,9 C 6,6 C 14,5 km/h (3 Bft) 100,00 %
14.04.2016 05:37 9,3 C 91 % 1007,2 hPa 0,0 l/m 7,2 km/h (2 Bft) W 259 0 min 0,000 mm 0,0 UV-I 0 W/m 7,9 C 8,7 C 11,3 km/h (2 Bft) 100,00 %
14.04.2016 05:38 9,3 C 91 % 1007,2 hPa 0,0 l/m 5,0 km/h (1 Bft) W 275 0 min 0,000 mm 0,0 UV-I 0 W/m 7,9 C 9,3 C 6,4 km/h (2 Bft) 96,15 %
14.04.2016 05:39 9,3 C 91 % 1007,2 hPa 0,0 l/m 7,4 km/h (2 Bft) W-SW 237 0 min 0,000 mm 0,0 UV-I 0 W/m 7,9 C 8,6 C 11,3 km/h (2 Bft) 100,00 %
14.04.2016 05:40 9,3 C 91 % 1007,2 hPa 0,0 l/m 7,3 km/h (2 Bft) SW 231 0 min 0,000 mm 0,0 UV-I 0 W/m 7,9 C 8,6 C 12,9 km/h (3 Bft) 100,00 %
14.04.2016 05:41 9,3 C 91 % 1007,2 hPa 0,0 l/m 10,5 km/h (2 Bft) W 263 0 min 0,000 mm 0,0 UV-I 0 W/m 7,9 C 6,5 C 12,9 km/h (3 Bft) 100,00 %
14.04.2016 05:42 9,3 C 91 % 1007,2 hPa 0,0 l/m 9,1 km/h (2 Bft) W 259 0 min 0,000 mm 0,0 UV-I 0 W/m 7,9 C 7,4 C 16,1 km/h (3 Bft) 100,00 %
14.04.2016 05:43 9,3 C 91 % 1007,1 hPa 0,0 l/m 7,3 km/h (2 Bft) W 261 0 min 0,000 mm 0,0 UV-I 0 W/m 7,9 C 8,6 C 16,1 km/h (3 Bft) 100,00 %
14.04.2016 05:44 9,3 C 91 % 1007,2 hPa 0,0 l/m 10,3 km/h (2 Bft) W 267 0 min 0,000 mm 0,0 UV-I 0 W/m 7,9 C 6,6 C 12,9 km/h (3 Bft) 95,65 %
14.04.2016 05:45 9,3 C 91 % 1007,1 hPa 0,0 l/m 8,6 km/h (2 Bft) SW 233 0 min 0,000 mm 0,0 UV-I 0 W/m 7,9 C 7,7 C 12,9 km/h (3 Bft) 96,30 %
14.04.2016 05:46 9,3 C 91 % 1007,2 hPa 0,0 l/m 8,2 km/h (2 Bft) W-SW 252 0 min 0,000 mm 0,0 UV-I 0 W/m 7,9 C 8,0 C 11,3 km/h (2 Bft) 95,65 %
14.04.2016 05:47 9,3 C 91 % 1007,1 hPa 0,0 l/m 6,2 km/h (2 Bft) W-SW 254 0 min 0,000 mm 0,0 UV-I 0 W/m 7,9 C 9,3 C 8,0 km/h (2 Bft) 100,00 %
14.04.2016 05:48 9,3 C 91 % 1007,1 hPa 0,0 l/m 3,3 km/h (1 Bft) W-NW 282 0 min 0,000 mm 0,0 UV-I 0 W/m 7,9 C 9,3 C 4,8 km/h (1 Bft) 100,00 %
14.04.2016 05:49 9,3 C 91 % 1007,1 hPa 0,0 l/m 4,8 km/h (1 Bft) W-NW 288 0 min 0,000 mm 0,0 UV-I 0 W/m 7,9 C 9,3 C 11,3 km/h (2 Bft) 95,65 %
14.04.2016 05:50 9,3 C 91 % 1007,1 hPa 0,0 l/m 6,4 km/h (2 Bft) W-NW 286 0 min 0,000 mm 0,0 UV-I 0 W/m 7,9 C 9,3 C 11,3 km/h (2 Bft) 100,00 %
14.04.2016 05:51 9,3 C 91 % 1007,1 hPa 0,0 l/m 5,7 km/h (1 Bft) W-NW 284 0 min 0,000 mm 0,0 UV-I 0 W/m 7,9 C 9,3 C 9,7 km/h (2 Bft) 100,00 %
14.04.2016 05:52 9,3 C 91 % 1007,1 hPa 0,0 l/m 4,0 km/h (1 Bft) W-SW 247 0 min 0,000 mm 0,0 UV-I 0 W/m 7,9 C 9,3 C 6,4 km/h (2 Bft) 96,15 %
14.04.2016 05:53 9,3 C 91 % 1007,2 hPa 0,0 l/m 5,4 km/h (1 Bft) W 262 0 min 0,000 mm 0,0 UV-I 0 W/m 7,9 C 9,3 C 8,0 km/h (2 Bft) 100,00 %
14.04.2016 05:54 9,3 C 91 % 1007,1 hPa 0,0 l/m 3,8 km/h (1 Bft) SW 223 0 min 0,000 mm 0,0 UV-I 0 W/m 7,9 C 9,3 C 4,8 km/h (1 Bft) 100,00 %
14.04.2016 05:55 9,3 C 91 % 1007,1 hPa 0,0 l/m 4,9 km/h (1 Bft) W-SW 252 0 min 0,000 mm 0,0 UV-I 0 W/m 7,9 C 9,3 C 9,7 km/h (2 Bft) 95,83 %
14.04.2016 05:56 9,3 C 91 % 1007,2 hPa 0,0 l/m 5,2 km/h (1 Bft) W-SW 250 0 min 0,000 mm 0,0 UV-I 0 W/m 7,9 C 9,3 C 6,4 km/h (2 Bft) 100,00 %
14.04.2016 05:57 9,3 C 91 % 1007,2 hPa 0,0 l/m 5,4 km/h (1 Bft) W-SW 256 0 min 0,000 mm 0,0 UV-I 0 W/m 7,9 C 9,3 C 9,7 km/h (2 Bft) 100,00 %
14.04.2016 05:58 9,3 C 91 % 1007,2 hPa 0,0 l/m 5,2 km/h (1 Bft) W 264 0 min 0,000 mm 0,0 UV-I 0 W/m 7,9 C 9,3 C 6,4 km/h (2 Bft) 100,00 %
14.04.2016 05:59 9,3 C 91 % 1007,2 hPa 0,0 l/m 4,6 km/h (1 Bft) W 277 0 min 0,000 mm 0,0 UV-I 0 W/m 7,9 C 9,3 C 6,4 km/h (2 Bft) 90,91 %
14.04.2016 06:00 9,2 C 91 % 1007,2 hPa 0,0 l/m 5,9 km/h (2 Bft) W 265 0 min 0,000 mm 0,0 UV-I 0 W/m 7,8 C 9,2 C 9,7 km/h (2 Bft) 100,00 %
14.04.2016 06:01 9,2 C 91 % 1007,2 hPa 0,0 l/m 7,1 km/h (2 Bft) W-SW 254 0 min 0,000 mm 0,0 UV-I 0 W/m 7,8 C 8,7 C 9,7 km/h (2 Bft) 92,86 %
14.04.2016 06:02 9,2 C 91 % 1007,1 hPa 0,0 l/m 7,3 km/h (2 Bft) W 263 0 min 0,000 mm 0,0 UV-I 0 W/m 7,8 C 8,5 C 9,7 km/h (2 Bft) 100,00 %
14.04.2016 06:03 9,2 C 91 % 1007,2 hPa 0,0 l/m 4,5 km/h (1 Bft) W-SW 253 0 min 0,000 mm 0,0 UV-I 0 W/m 7,8 C 9,2 C 4,8 km/h (1 Bft) 100,00 %
14.04.2016 06:04 9,2 C 91 % 1007,2 hPa 0,0 l/m 6,5 km/h (2 Bft) W-SW 252 0 min 0,000 mm 0,0 UV-I 0 W/m 7,8 C 9,2 C 11,3 km/h (2 Bft) 100,00 %
14.04.2016 06:05 9,2 C 91 % 1007,2 hPa 0,0 l/m 6,6 km/h (2 Bft) W-SW 251 0 min 0,000 mm 0,0 UV-I 0 W/m 7,8 C 9,1 C 11,3 km/h (2 Bft) 96,15 %
14.04.2016 06:06 9,2 C 91 % 1007,1 hPa 0,0 l/m 7,3 km/h (2 Bft) W-SW 248 0 min 0,000 mm 0,0 UV-I 0 W/m 7,8 C 8,5 C 12,9 km/h (3 Bft) 100,00 %
14.04.2016 06:07 9,2 C 91 % 1007,1 hPa 0,0 l/m 6,6 km/h (2 Bft) W-SW 246 0 min 0,000 mm 0,0 UV-I 0 W/m 7,8 C 9,1 C 11,3 km/h (2 Bft) 100,00 %
14.04.2016 06:08 9,2 C 91 % 1007,2 hPa 0,0 l/m 11,1 km/h (2 Bft) W-SW 246 0 min 0,000 mm 0,0 UV-I 0 W/m 7,8 C 6,1 C 16,1 km/h (3 Bft) 100,00 %
14.04.2016 06:09 9,2 C 91 % 1007,2 hPa 0,0 l/m 9,3 km/h (2 Bft) W-SW 241 0 min 0,000 mm 0,0 UV-I 0 W/m 7,8 C 7,1 C 12,9 km/h (3 Bft) 100,00 %
14.04.2016 06:10 9,2 C 91 % 1007,2 hPa 0,0 l/m 8,8 km/h (2 Bft) W-SW 258 0 min 0,000 mm 0,0 UV-I 0 W/m 7,8 C 7,5 C 12,9 km/h (3 Bft) 100,00 %
14.04.2016 06:11 9,2 C 91 % 1007,1 hPa 0,0 l/m 7,5 km/h (2 Bft) W-SW 244 0 min 0,000 mm 0,0 UV-I 0 W/m 7,8 C 8,4 C 9,7 km/h (2 Bft) 98,44 %
14.04.2016 06:12 9,2 C 91 % 1007,1 hPa 0,0 l/m 7,1 km/h (2 Bft) W-SW 250 0 min 0,000 mm 0,0 UV-I 0 W/m 7,8 C 8,7 C 9,7 km/h (2 Bft) 95,45 %
14.04.2016 06:13 9,2 C 91 % 1007,1 hPa 0,0 l/m 7,6 km/h (2 Bft) W 259 0 min 0,000 mm 0,0 UV-I 0 W/m 7,8 C 8,3 C 12,9 km/h (3 Bft) 100,00 %
14.04.2016 06:14 9,2 C 91 % 1007,1 hPa 0,0 l/m 9,1 km/h (2 Bft) SW 223 0 min 0,000 mm 0,0 UV-I 0 W/m 7,8 C 7,3 C 16,1 km/h (3 Bft) 100,00 %
14.04.2016 06:15 9,2 C 91 % 1007,1 hPa 0,0 l/m 5,2 km/h (1 Bft) W 261 0 min 0,000 mm 0,0 UV-I 0 W/m 7,8 C 9,2 C 8,0 km/h (2 Bft) 100,00 %
14.04.2016 06:16 9,2 C 91 % 1007,1 hPa 0,0 l/m 8,3 km/h (2 Bft) W 260 0 min 0,000 mm 0,0 UV-I 0 W/m 7,8 C 7,8 C 11,3 km/h (2 Bft) 100,00 %
14.04.2016 06:17 9,2 C 91 % 1007,1 hPa 0,0 l/m 8,3 km/h (2 Bft) W 267 0 min 0,000 mm 0,0 UV-I 0 W/m 7,8 C 7,8 C 12,9 km/h (3 Bft) 100,00 %
14.04.2016 06:18 9,2 C 91 % 1007,1 hPa 0,0 l/m 7,2 km/h (2 Bft) W-SW 251 0 min 0,000 mm 0,0 UV-I 0 W/m 7,8 C 8,6 C 9,7 km/h (2 Bft) 100,00 %
14.04.2016 06:19 9,1 C 91 % 1007,2 hPa 0,0 l/m 9,0 km/h (2 Bft) W-SW 240 0 min 0,000 mm 0,0 UV-I 0 W/m 7,7 C 7,2 C 12,9 km/h (3 Bft) 100,00 %
14.04.2016 06:20 9,1 C 91 % 1007,2 hPa 0,0 l/m 7,4 km/h (2 Bft) W-SW 243 0 min 0,000 mm 0,0 UV-I 4 W/m 7,7 C 8,3 C 12,9 km/h (3 Bft) 95,65 %
14.04.2016 06:21 9,1 C 91 % 1007,2 hPa 0,0 l/m 8,7 km/h (2 Bft) SW 235 0 min 0,000 mm 0,0 UV-I 5 W/m 7,7 C 7,4 C 12,9 km/h (3 Bft) 100,00 %
14.04.2016 06:22 9,1 C 91 % 1007,2 hPa 0,0 l/m 8,6 km/h (2 Bft) W-SW 244 0 min 0,000 mm 0,0 UV-I 5 W/m 7,7 C 7,5 C 11,3 km/h (2 Bft) 100,00 %
14.04.2016 06:23 9,1 C 91 % 1007,2 hPa 0,0 l/m 7,8 km/h (2 Bft) W 264 0 min 0,000 mm 0,0 UV-I 5 W/m 7,7 C 8,1 C 11,3 km/h (2 Bft) 100,00 %
14.04.2016 06:24 9,1 C 91 % 1007,2 hPa 0,0 l/m 6,4 km/h (2 Bft) SW 235 0 min 0,000 mm 0,0 UV-I 5 W/m 7,7 C 9,1 C 6,4 km/h (2 Bft) 100,00 %
14.04.2016 06:25 9,1 C 91 % 1007,2 hPa 0,0 l/m 7,6 km/h (2 Bft) W-SW 252 0 min 0,000 mm 0,0 UV-I 5 W/m 7,7 C 8,2 C 11,3 km/h (2 Bft) 100,00 %
14.04.2016 06:26 9,1 C 91 % 1007,2 hPa 0,0 l/m 9,7 km/h (2 Bft) W-SW 252 0 min 0,000 mm 0,0 UV-I 5 W/m 7,7 C 6,8 C 14,5 km/h (3 Bft) 100,00 %
14.04.2016 06:27 9,1 C 91 % 1007,3 hPa 0,0 l/m 9,0 km/h (2 Bft) W-SW 249 0 min 0,000 mm 0,0 UV-I 5 W/m 7,7 C 7,2 C 12,9 km/h (3 Bft) 100,00 %
14.04.2016 06:28 9,1 C 91 % 1007,3 hPa 0,0 l/m 7,3 km/h (2 Bft) W-SW 237 0 min 0,000 mm 0,0 UV-I 5 W/m 7,7 C 8,4 C 9,7 km/h (2 Bft) 100,00 %
14.04.2016 06:29 9,1 C 91 % 1007,3 hPa 0,0 l/m 8,5 km/h (2 Bft) W-SW 255 0 min 0,000 mm 0,0 UV-I 5 W/m 7,7 C 7,6 C 11,3 km/h (2 Bft) 100,00 %
14.04.2016 06:30 9,1 C 91 % 1007,3 hPa 0,0 l/m 7,4 km/h (2 Bft) W-SW 250 0 min 0,000 mm 0,0 UV-I 5 W/m 7,7 C 8,3 C 11,3 km/h (2 Bft) 100,00 %
14.04.2016 06:31 9,1 C 91 % 1007,3 hPa 0,0 l/m 8,9 km/h (2 Bft) W-SW 250 0 min 0,000 mm 0,0 UV-I 5 W/m 7,7 C 7,3 C 11,3 km/h (2 Bft) 100,00 %
14.04.2016 06:32 9,1 C 91 % 1007,3 hPa 0,0 l/m 10,9 km/h (2 Bft) W-SW 246 0 min 0,000 mm 0,0 UV-I 5 W/m 7,7 C 6,1 C 14,5 km/h (3 Bft) 100,00 %
14.04.2016 06:33 9,1 C 91 % 1007,3 hPa 0,0 l/m 12,5 km/h (3 Bft) W 265 0 min 0,000 mm 0,0 UV-I 5 W/m 7,7 C 5,2 C 19,3 km/h (3 Bft) 100,00 %
14.04.2016 06:34 9,1 C 91 % 1007,3 hPa 0,0 l/m 10,7 km/h (2 Bft) W-SW 242 0 min 0,000 mm 0,0 UV-I 5 W/m 7,7 C 6,2 C 14,5 km/h (3 Bft) 100,00 %
14.04.2016 06:35 9,1 C 91 % 1007,3 hPa 0,0 l/m 9,1 km/h (2 Bft) W 259 0 min 0,000 mm 0,0 UV-I 5 W/m 7,7 C 7,2 C 14,5 km/h (3 Bft) 100,00 %
14.04.2016 06:36 9,1 C 91 % 1007,3 hPa 0,0 l/m 12,0 km/h (2 Bft) W-SW 252 0 min 0,000 mm 0,0 UV-I 5 W/m 7,7 C 5,5 C 14,5 km/h (3 Bft) 100,00 %
14.04.2016 06:37 9,2 C 91 % 1007,3 hPa 0,0 l/m 12,7 km/h (3 Bft) W-SW 241 0 min 0,000 mm 0,0 UV-I 5 W/m 7,8 C 5,2 C 17,7 km/h (3 Bft) 100,00 %
14.04.2016 06:38 9,2 C 91 % 1007,3 hPa 0,0 l/m 13,9 km/h (3 Bft) W-SW 244 0 min 0,000 mm 0,0 UV-I 6 W/m 7,8 C 4,7 C 17,7 km/h (3 Bft) 100,00 %
14.04.2016 06:39 9,2 C 91 % 1007,3 hPa 0,0 l/m 12,0 km/h (2 Bft) W-SW 246 0 min 0,000 mm 0,0 UV-I 7 W/m 7,8 C 5,6 C 17,7 km/h (3 Bft) 100,00 %
14.04.2016 06:40 9,2 C 91 % 1007,3 hPa 0,0 l/m 7,2 km/h (2 Bft) SW 221 0 min 0,000 mm 0,0 UV-I 7 W/m 7,8 C 8,6 C 12,9 km/h (3 Bft) 100,00 %
14.04.2016 06:41 9,2 C 91 % 1007,3 hPa 0,0 l/m 10,1 km/h (2 Bft) W-SW 246 0 min 0,000 mm 0,0 UV-I 7 W/m 7,8 C 6,7 C 12,9 km/h (3 Bft) 100,00 %
14.04.2016 06:42 9,2 C 91 % 1007,4 hPa 0,0 l/m 12,4 km/h (3 Bft) W 264 0 min 0,000 mm 0,0 UV-I 7 W/m 7,8 C 5,4 C 17,7 km/h (3 Bft) 100,00 %
14.04.2016 06:43 9,2 C 91 % 1007,5 hPa 0,0 l/m 11,1 km/h (2 Bft) W-SW 246 0 min 0,000 mm 0,0 UV-I 7 W/m 7,8 C 6,1 C 19,3 km/h (3 Bft) 100,00 %
14.04.2016 06:44 9,2 C 91 % 1007,5 hPa 0,0 l/m 10,8 km/h (2 Bft) W 263 0 min 0,000 mm 0,0 UV-I 7 W/m 7,8 C 6,2 C 14,5 km/h (3 Bft) 100,00 %
14.04.2016 06:45 9,2 C 91 % 1007,5 hPa 0,0 l/m 8,4 km/h (2 Bft) W-SW 257 0 min 0,000 mm 0,0 UV-I 7 W/m 7,8 C 7,7 C 12,9 km/h (3 Bft) 100,00 %
14.04.2016 06:46 9,2 C 91 % 1007,5 hPa 0,0 l/m 10,8 km/h (2 Bft) W-SW 238 0 min 0,000 mm 0,0 UV-I 7 W/m 7,8 C 6,2 C 12,9 km/h (3 Bft) 100,00 %
14.04.2016 06:47 9,3 C 91 % 1007,5 hPa 0,0 l/m 10,3 km/h (2 Bft) W 276 0 min 0,000 mm 0,0 UV-I 7 W/m 7,9 C 6,6 C 14,5 km/h (3 Bft) 100,00 %
14.04.2016 06:48 9,3 C 91 % 1007,5 hPa 0,0 l/m 9,4 km/h (2 Bft) W-SW 252 0 min 0,000 mm 0,0 UV-I 7 W/m 7,9 C 7,2 C 12,9 km/h (3 Bft) 100,00 %
14.04.2016 06:49 9,3 C 91 % 1007,5 hPa 0,0 l/m 10,2 km/h (2 Bft) W-SW 240 0 min 0,000 mm 0,0 UV-I 8 W/m 7,9 C 6,7 C 14,5 km/h (3 Bft) 96,15 %
14.04.2016 06:50 9,3 C 91 % 1007,5 hPa 0,0 l/m 10,8 km/h (2 Bft) W-SW 251 0 min 0,000 mm 0,0 UV-I 9 W/m 7,9 C 6,4 C 16,1 km/h (3 Bft) 100,00 %
14.04.2016 06:51 9,3 C 91 % 1007,5 hPa 0,0 l/m 10,5 km/h (2 Bft) W 261 0 min 0,000 mm 0,0 UV-I 9 W/m 7,9 C 6,5 C 14,5 km/h (3 Bft) 100,00 %
14.04.2016 06:52 9,3 C 91 % 1007,5 hPa 0,0 l/m 8,6 km/h (2 Bft) W 281 0 min 0,000 mm 0,0 UV-I 9 W/m 7,9 C 7,7 C 12,9 km/h (3 Bft) 100,00 %
14.04.2016 06:53 9,3 C 91 % 1007,6 hPa 0,0 l/m 7,6 km/h (2 Bft) W-SW 258 0 min 0,000 mm 0,0 UV-I 10 W/m 7,9 C 8,4 C 11,3 km/h (2 Bft) 100,00 %
14.04.2016 06:54 9,3 C 91 % 1007,5 hPa 0,0 l/m 6,3 km/h (2 Bft) W 267 0 min 0,000 mm 0,0 UV-I 12 W/m 7,9 C 9,3 C 11,3 km/h (2 Bft) 100,00 %
14.04.2016 06:55 9,2 C 91 % 1007,4 hPa 0,0 l/m 9,0 km/h (2 Bft) W 262 0 min 0,000 mm 0,0 UV-I 13 W/m 7,8 C 7,3 C 12,9 km/h (3 Bft) 95,83 %
14.04.2016 06:56 9,2 C 91 % 1007,6 hPa 0,0 l/m 7,3 km/h (2 Bft) W-SW 254 0 min 0,000 mm 0,0 UV-I 14 W/m 7,8 C 8,5 C 11,3 km/h (2 Bft) 100,00 %
14.04.2016 06:57 9,2 C 91 % 1007,4 hPa 0,0 l/m 8,2 km/h (2 Bft) W-SW 242 0 min 0,000 mm 0,0 UV-I 14 W/m 7,8 C 7,9 C 11,3 km/h (2 Bft) 100,00 %
14.04.2016 06:58 9,2 C 91 % 1007,5 hPa 0,0 l/m 9,8 km/h (2 Bft) W 259 0 min 0,000 mm 0,0 UV-I 14 W/m 7,8 C 6,8 C 14,5 km/h (3 Bft) 100,00 %
14.04.2016 06:59 9,2 C 91 % 1007,4 hPa 0,0 l/m 8,3 km/h (2 Bft) W-SW 252 0 min 0,000 mm 0,0 UV-I 14 W/m 7,8 C 7,8 C 14,5 km/h (3 Bft) 100,00 %
14.04.2016 07:00 9,2 C 91 % 1007,6 hPa 0,0 l/m 10,3 km/h (2 Bft) W-SW 255 0 min 0,000 mm 0,0 UV-I 14 W/m 7,8 C 6,5 C 12,9 km/h (3 Bft) 100,00 %
14.04.2016 07:01 9,2 C 91 % 1007,5 hPa 0,0 l/m 7,6 km/h (2 Bft) W-SW 243 0 min 0,000 mm 0,0 UV-I 15 W/m 7,8 C 8,3 C 14,5 km/h (3 Bft) 100,00 %
14.04.2016 07:02 9,2 C 91 % 1007,5 hPa 0,0 l/m 6,1 km/h (2 Bft) W-SW 255 0 min 0,000 mm 0,0 UV-I 18 W/m 7,8 C 9,2 C 9,7 km/h (2 Bft) 96,15 %
14.04.2016 07:03 9,2 C 91 % 1007,6 hPa 0,0 l/m 9,9 km/h (2 Bft) W-SW 238 0 min 0,000 mm 0,0 UV-I 18 W/m 7,8 C 6,8 C 16,1 km/h (3 Bft) 100,00 %
14.04.2016 07:04 9,2 C 91 % 1007,6 hPa 0,0 l/m 8,5 km/h (2 Bft) W-SW 255 0 min 0,000 mm 0,0 UV-I 19 W/m 7,8 C 7,7 C 12,9 km/h (3 Bft) 100,00 %
14.04.2016 07:05 9,2 C 91 % 1007,6 hPa 0,0 l/m 10,2 km/h (2 Bft) SW 216 0 min 0,000 mm 0,0 UV-I 18 W/m 7,8 C 6,6 C 16,1 km/h (3 Bft) 91,67 %
14.04.2016 07:06 9,2 C 91 % 1007,6 hPa 0,0 l/m 8,0 km/h (2 Bft) W-SW 248 0 min 0,000 mm 0,0 UV-I 19 W/m 7,8 C 8,0 C 11,3 km/h (2 Bft) 100,00 %
14.04.2016 07:07 9,2 C 91 % 1007,6 hPa 0,0 l/m 10,8 km/h (2 Bft) W-SW 242 0 min 0,000 mm 0,0 UV-I 20 W/m 7,8 C 6,2 C 14,5 km/h (3 Bft) 96,30 %
14.04.2016 07:08 9,2 C 91 % 1007,6 hPa 0,0 l/m 10,7 km/h (2 Bft) SW 236 0 min 0,000 mm 0,0 UV-I 21 W/m 7,8 C 6,3 C 12,9 km/h (3 Bft) 92,31 %
14.04.2016 07:09 9,2 C 91 % 1007,6 hPa 0,0 l/m 8,9 km/h (2 Bft) SW 225 0 min 0,000 mm 0,0 UV-I 19 W/m 7,8 C 7,4 C 12,9 km/h (3 Bft) 100,00 %
14.04.2016 07:10 9,2 C 91 % 1007,6 hPa 0,0 l/m 8,3 km/h (2 Bft) W 263 0 min 0,000 mm 0,0 UV-I 20 W/m 7,8 C 7,8 C 12,9 km/h (3 Bft) 96,67 %
14.04.2016 07:11 9,2 C 91 % 1007,7 hPa 0,0 l/m 11,0 km/h (2 Bft) SW 229 0 min 0,000 mm 0,0 UV-I 22 W/m 7,8 C 6,1 C 14,5 km/h (3 Bft) 100,00 %
14.04.2016 07:12 9,2 C 91 % 1007,7 hPa 0,0 l/m 6,6 km/h (2 Bft) W-SW 245 0 min 0,000 mm 0,0 UV-I 24 W/m 7,8 C 9,1 C 9,7 km/h (2 Bft) 98,67 %
14.04.2016 07:13 9,2 C 91 % 1007,6 hPa 0,0 l/m 10,1 km/h (2 Bft) SW 236 0 min 0,000 mm 0,0 UV-I 25 W/m 7,8 C 6,7 C 12,9 km/h (3 Bft) 97,73 %
14.04.2016 07:14 9,2 C 91 % 1007,6 hPa 0,0 l/m 9,7 km/h (2 Bft) SW 230 0 min 0,000 mm 0,0 UV-I 25 W/m 7,8 C 6,9 C 14,5 km/h (3 Bft) 96,30 %
14.04.2016 07:15 9,2 C 91 % 1007,7 hPa 0,0 l/m 9,6 km/h (2 Bft) SW 229 0 min 0,000 mm 0,0 UV-I 25 W/m 7,8 C 7,0 C 12,9 km/h (3 Bft) 100,00 %
14.04.2016 07:16 9,2 C 91 % 1007,7 hPa 0,0 l/m 8,4 km/h (2 Bft) SW 229 0 min 0,000 mm 0,0 UV-I 25 W/m 7,8 C 7,7 C 11,3 km/h (2 Bft) 96,30 %
14.04.2016 07:17 9,2 C 91 % 1007,7 hPa 0,0 l/m 9,3 km/h (2 Bft) SW 215 0 min 0,000 mm 0,0 UV-I 26 W/m 7,8 C 7,1 C 11,3 km/h (2 Bft) 96,55 %
14.04.2016 07:18 9,2 C 91 % 1007,7 hPa 0,0 l/m 9,2 km/h (2 Bft) SW 229 0 min 0,000 mm 0,0 UV-I 25 W/m 7,8 C 7,2 C 12,9 km/h (3 Bft) 100,00 %
14.04.2016 07:19 9,2 C 91 % 1007,7 hPa 0,0 l/m 10,9 km/h (2 Bft) W-SW 237 0 min 0,000 mm 0,0 UV-I 25 W/m 7,8 C 6,2 C 12,9 km/h (3 Bft) 96,15 %
14.04.2016 07:20 9,2 C 92 % 1007,7 hPa 0,0 l/m 9,8 km/h (2 Bft) SW 229 0 min 0,000 mm 0,0 UV-I 25 W/m 8,0 C 6,8 C 16,1 km/h (3 Bft) 100,00 %
14.04.2016 07:21 9,2 C 92 % 1007,7 hPa 0,0 l/m 12,9 km/h (3 Bft) W-SW 248 0 min 0,000 mm 0,0 UV-I 26 W/m 8,0 C 5,1 C 16,1 km/h (3 Bft) 95,65 %
14.04.2016 07:22 9,2 C 92 % 1007,7 hPa 0,0 l/m 8,4 km/h (2 Bft) W-SW 250 0 min 0,000 mm 0,0 UV-I 25 W/m 8,0 C 7,7 C 11,3 km/h (2 Bft) 93,33 %
14.04.2016 07:23 9,2 C 91 % 1007,7 hPa 0,0 l/m 9,3 km/h (2 Bft) W-SW 244 0 min 0,000 mm 0,0 UV-I 22 W/m 7,8 C 7,1 C 11,3 km/h (2 Bft) 100,00 %
14.04.2016 07:24 9,2 C 92 % 1007,7 hPa 0,0 l/m 12,8 km/h (3 Bft) SW 227 0 min 0,000 mm 0,0 UV-I 19 W/m 8,0 C 5,2 C 16,1 km/h (3 Bft) 96,30 %
14.04.2016 07:25 9,2 C 91 % 1007,7 hPa 0,0 l/m 10,6 km/h (2 Bft) S-SW 207 0 min 0,000 mm 0,0 UV-I 16 W/m 7,8 C 6,4 C 12,9 km/h (3 Bft) 100,00 %
14.04.2016 07:26 9,2 C 91 % 1007,8 hPa 0,0 l/m 14,2 km/h (3 Bft) SW 233 0 min 0,000 mm 0,0 UV-I 14 W/m 7,8 C 4,5 C 19,3 km/h (3 Bft) 96,30 %
14.04.2016 07:27 9,2 C 91 % 1007,7 hPa 0,0 l/m 13,7 km/h (3 Bft) W 261 0 min 0,000 mm 0,0 UV-I 14 W/m 7,8 C 4,8 C 19,3 km/h (3 Bft) 100,00 %
14.04.2016 07:28 9,2 C 91 % 1007,7 hPa 0,0 l/m 11,3 km/h (2 Bft) SW 232 0 min 0,000 mm 0,0 UV-I 14 W/m 7,8 C 6,0 C 14,5 km/h (3 Bft) 93,33 %
14.04.2016 07:29 9,2 C 91 % 1007,7 hPa 0,0 l/m 13,1 km/h (3 Bft) W-SW 247 0 min 0,000 mm 0,0 UV-I 14 W/m 7,8 C 5,0 C 16,1 km/h (3 Bft) 100,00 %
14.04.2016 07:30 9,2 C 91 % 1007,7 hPa 0,0 l/m 12,5 km/h (3 Bft) W-SW 257 0 min 0,000 mm 0,0 UV-I 15 W/m 7,8 C 5,3 C 16,1 km/h (3 Bft) 93,75 %
14.04.2016 07:31 9,2 C 91 % 1007,7 hPa 0,0 l/m 9,1 km/h (2 Bft) W-SW 250 0 min 0,000 mm 0,0 UV-I 16 W/m 7,8 C 7,3 C 12,9 km/h (3 Bft) 100,00 %
14.04.2016 07:32 9,2 C 91 % 1007,7 hPa 0,0 l/m 11,0 km/h (2 Bft) SW 234 0 min 0,000 mm 0,0 UV-I 18 W/m 7,8 C 6,1 C 19,3 km/h (3 Bft) 96,15 %
14.04.2016 07:33 9,2 C 91 % 1007,7 hPa 0,0 l/m 14,7 km/h (3 Bft) W-SW 242 0 min 0,000 mm 0,0 UV-I 22 W/m 7,8 C 4,3 C 19,3 km/h (3 Bft) 95,83 %
14.04.2016 07:34 9,2 C 91 % 1007,7 hPa 0,0 l/m 11,3 km/h (2 Bft) W 279 0 min 0,000 mm 0,0 UV-I 28 W/m 7,8 C 6,0 C 14,5 km/h (3 Bft) 100,00 %
14.04.2016 07:35 9,2 C 91 % 1007,7 hPa 0,0 l/m 9,5 km/h (2 Bft) W 264 0 min 0,000 mm 0,0 UV-I 31 W/m 7,8 C 7,0 C 17,7 km/h (3 Bft) 95,83 %
14.04.2016 07:36 9,2 C 91 % 1007,7 hPa 0,0 l/m 10,5 km/h (2 Bft) W-SW 253 0 min 0,000 mm 0,0 UV-I 36 W/m 7,8 C 6,4 C 16,1 km/h (3 Bft) 96,55 %
14.04.2016 07:37 9,2 C 91 % 1007,7 hPa 0,0 l/m 13,3 km/h (3 Bft) W 275 0 min 0,000 mm 0,0 UV-I 41 W/m 7,8 C 4,9 C 19,3 km/h (3 Bft) 91,67 %
14.04.2016 07:38 9,2 C 91 % 1007,7 hPa 0,0 l/m 11,2 km/h (2 Bft) W-SW 256 0 min 0,000 mm 0,0 UV-I 46 W/m 7,8 C 6,0 C 16,1 km/h (3 Bft) 100,00 %
14.04.2016 07:39 9,2 C 90 % 1007,8 hPa 0,0 l/m 13,4 km/h (3 Bft) W-SW 240 0 min 0,000 mm 0,0 UV-I 45 W/m 7,6 C 4,9 C 17,7 km/h (3 Bft) 100,00 %
14.04.2016 07:40 9,3 C 90 % 1007,8 hPa 0,0 l/m 13,8 km/h (3 Bft) W-SW 247 0 min 0,000 mm 0,0 UV-I 42 W/m 7,7 C 4,8 C 22,5 km/h (4 Bft) 100,00 %
14.04.2016 07:41 9,3 C 90 % 1007,8 hPa 0,0 l/m 15,6 km/h (3 Bft) W 261 0 min 0,000 mm 0,0 UV-I 38 W/m 7,7 C 4,0 C 20,9 km/h (4 Bft) 96,67 %
14.04.2016 07:42 9,3 C 90 % 1007,8 hPa 0,0 l/m 13,3 km/h (3 Bft) W-SW 255 0 min 0,000 mm 0,0 UV-I 34 W/m 7,7 C 5,1 C 17,7 km/h (3 Bft) 100,00 %
14.04.2016 07:43 9,3 C 90 % 1007,8 hPa 0,0 l/m 10,8 km/h (2 Bft) W 259 0 min 0,000 mm 0,0 UV-I 28 W/m 7,7 C 6,4 C 16,1 km/h (3 Bft) 100,00 %
14.04.2016 07:44 9,3 C 90 % 1007,8 hPa 0,0 l/m 8,2 km/h (2 Bft) W 265 0 min 0,000 mm 0,0 UV-I 26 W/m 7,7 C 8,0 C 12,9 km/h (3 Bft) 100,00 %
14.04.2016 07:45 9,3 C 90 % 1007,8 hPa 0,0 l/m 11,5 km/h (2 Bft) SW 232 0 min 0,000 mm 0,0 UV-I 26 W/m 7,7 C 6,0 C 14,5 km/h (3 Bft) 100,00 %
14.04.2016 07:46 9,3 C 90 % 1007,8 hPa 0,0 l/m 9,8 km/h (2 Bft) W 267 0 min 0,000 mm 0,0 UV-I 27 W/m 7,7 C 6,9 C 12,9 km/h (3 Bft) 100,00 %
14.04.2016 07:47 9,4 C 90 % 1007,8 hPa 0,0 l/m 13,5 km/h (3 Bft) W-SW 253 0 min 0,000 mm 0,0 UV-I 26 W/m 7,8 C 5,1 C 17,7 km/h (3 Bft) 100,00 %
14.04.2016 07:48 9,3 C 89 % 1007,9 hPa 0,0 l/m 13,7 km/h (3 Bft) W-SW 255 0 min 0,000 mm 0,0 UV-I 22 W/m 7,6 C 4,9 C 16,1 km/h (3 Bft) 100,00 %
14.04.2016 07:49 9,4 C 89 % 1007,9 hPa 0,0 l/m 12,7 km/h (3 Bft) SW 233 0 min 0,000 mm 0,0 UV-I 21 W/m 7,7 C 5,5 C 22,5 km/h (4 Bft) 91,67 %
14.04.2016 07:50 9,4 C 89 % 1007,9 hPa 0,0 l/m 9,5 km/h (2 Bft) SW 236 0 min 0,000 mm 0,0 UV-I 26 W/m 7,7 C 7,2 C 14,5 km/h (3 Bft) 100,00 %
14.04.2016 07:51 9,4 C 89 % 1007,8 hPa 0,0 l/m 12,2 km/h (2 Bft) W 265 0 min 0,000 mm 0,0 UV-I 30 W/m 7,7 C 5,7 C 17,7 km/h (3 Bft) 100,00 %
14.04.2016 07:52 9,4 C 89 % 1008,0 hPa 0,0 l/m 8,4 km/h (2 Bft) W-SW 241 0 min 0,000 mm 0,0 UV-I 36 W/m 7,7 C 7,9 C 14,5 km/h (3 Bft) 100,00 %
14.04.2016 07:53 9,4 C 89 % 1007,9 hPa 0,0 l/m 11,1 km/h (2 Bft) W-SW 244 0 min 0,000 mm 0,0 UV-I 41 W/m 7,7 C 6,3 C 14,5 km/h (3 Bft) 94,44 %
14.04.2016 07:54 9,4 C 89 % 1007,9 hPa 0,0 l/m 13,1 km/h (3 Bft) W 263 0 min 0,000 mm 0,0 UV-I 44 W/m 7,7 C 5,3 C 16,1 km/h (3 Bft) 100,00 %
14.04.2016 07:55 9,4 C 89 % 1007,9 hPa 0,0 l/m 12,3 km/h (3 Bft) W-NW 292 0 min 0,000 mm 0,0 UV-I 44 W/m 7,7 C 5,7 C 16,1 km/h (3 Bft) 100,00 %
14.04.2016 07:56 9,4 C 89 % 1007,9 hPa 0,0 l/m 12,3 km/h (3 Bft) W-NW 295 0 min 0,000 mm 0,0 UV-I 44 W/m 7,7 C 5,7 C 19,3 km/h (3 Bft) 100,00 %
14.04.2016 07:57 9,4 C 89 % 1007,9 hPa 0,0 l/m 12,7 km/h (3 Bft) W-SW 244 0 min 0,000 mm 0,0 UV-I 41 W/m 7,7 C 5,5 C 16,1 km/h (3 Bft) 100,00 %
14.04.2016 07:58 9,5 C 88 % 1007,9 hPa 0,0 l/m 10,0 km/h (2 Bft) W 259 0 min 0,000 mm 0,0 UV-I 38 W/m 7,6 C 7,0 C 14,5 km/h (3 Bft) 100,00 %
14.04.2016 07:59 9,5 C 89 % 1008,0 hPa 0,0 l/m 9,4 km/h (2 Bft) W-SW 254 0 min 0,000 mm 0,0 UV-I 36 W/m 7,8 C 7,4 C 19,3 km/h (3 Bft) 100,00 %
14.04.2016 08:00 9,6 C 88 % 1008,0 hPa 0,0 l/m 12,3 km/h (3 Bft) W 259 0 min 0,025 mm 0,0 UV-I 34 W/m 7,7 C 5,9 C 16,1 km/h (3 Bft) 100,00 %
14.04.2016 08:02 9,6 C 88 % 1008,0 hPa 0,0 l/m 12,8 km/h (3 Bft) W 272 0 min 0,000 mm 0,0 UV-I 31 W/m 7,7 C 5,7 C 19,3 km/h (3 Bft) 100,00 %
14.04.2016 08:03 9,6 C 88 % 1008,0 hPa 0,0 l/m 13,7 km/h (3 Bft) W-SW 256 0 min 0,000 mm 0,0 UV-I 32 W/m 7,7 C 5,2 C 19,3 km/h (3 Bft) 100,00 %
14.04.2016 08:04 9,6 C 88 % 1008,0 hPa 0,0 l/m 10,5 km/h (2 Bft) W 270 0 min 0,000 mm 0,0 UV-I 33 W/m 7,7 C 6,9 C 16,1 km/h (3 Bft) 100,00 %
14.04.2016 08:05 9,6 C 88 % 1008,0 hPa 0,0 l/m 12,9 km/h (3 Bft) W 265 0 min 0,000 mm 0,0 UV-I 31 W/m 7,7 C 5,6 C 16,1 km/h (3 Bft) 96,15 %
14.04.2016 08:06 9,6 C 88 % 1008,0 hPa 0,0 l/m 10,7 km/h (2 Bft) W 279 0 min 0,000 mm 0,0 UV-I 32 W/m 7,7 C 6,8 C 14,5 km/h (3 Bft) 95,83 %
14.04.2016 08:07 9,6 C 87 % 1008,0 hPa 0,0 l/m 10,2 km/h (2 Bft) W 266 0 min 0,000 mm 0,0 UV-I 32 W/m 7,5 C 7,0 C 16,1 km/h (3 Bft) 100,00 %
14.04.2016 08:08 9,6 C 88 % 1008,1 hPa 0,0 l/m 14,2 km/h (3 Bft) W-SW 256 0 min 0,000 mm 0,0 UV-I 32 W/m 7,7 C 5,0 C 17,7 km/h (3 Bft) 100,00 %
14.04.2016 08:09 9,6 C 88 % 1008,1 hPa 0,0 l/m 11,3 km/h (2 Bft) W 259 0 min 0,000 mm 0,0 UV-I 33 W/m 7,7 C 6,4 C 14,5 km/h (3 Bft) 100,00 %
14.04.2016 08:10 9,6 C 88 % 1008,0 hPa 0,0 l/m 8,3 km/h (2 Bft) W 271 0 min 0,000 mm 0,0 UV-I 33 W/m 7,7 C 8,2 C 11,3 km/h (2 Bft) 100,00 %
14.04.2016 08:11 9,6 C 88 % 1008,0 hPa 0,0 l/m 10,4 km/h (2 Bft) W 266 0 min 0,000 mm 0,0 UV-I 31 W/m 7,7 C 6,9 C 19,3 km/h (3 Bft) 100,00 %
14.04.2016 08:12 9,6 C 88 % 1008,0 hPa 0,0 l/m 12,2 km/h (2 Bft) W-SW 246 0 min 0,000 mm 0,0 UV-I 30 W/m 7,7 C 6,0 C 19,3 km/h (3 Bft) 100,00 %
14.04.2016 08:13 9,6 C 88 % 1008,0 hPa 0,0 l/m 11,5 km/h (2 Bft) W-NW 290 0 min 0,000 mm 0,0 UV-I 33 W/m 7,7 C 6,3 C 12,9 km/h (3 Bft) 100,00 %
14.04.2016 08:14 9,6 C 88 % 1008,0 hPa 0,0 l/m 10,8 km/h (2 Bft) W 259 0 min 0,000 mm 0,0 UV-I 41 W/m 7,7 C 6,7 C 12,9 km/h (3 Bft) 100,00 %
14.04.2016 08:15 9,6 C 87 % 1008,0 hPa 0,0 l/m 12,0 km/h (2 Bft) W-SW 254 0 min 0,000 mm 0,0 UV-I 45 W/m 7,5 C 6,1 C 16,1 km/h (3 Bft) 100,00 %
14.04.2016 08:16 9,6 C 87 % 1008,0 hPa 0,0 l/m 9,0 km/h (2 Bft) NW 323 0 min 0,000 mm 0,0 UV-I 48 W/m 7,5 C 7,8 C 16,1 km/h (3 Bft) 100,00 %
14.04.2016 08:17 9,6 C 88 % 1008,1 hPa 0,0 l/m 8,8 km/h (2 Bft) W-SW 248 0 min 0,000 mm 0,0 UV-I 49 W/m 7,7 C 7,9 C 17,7 km/h (3 Bft) 100,00 %
14.04.2016 08:18 9,6 C 88 % 1008,1 hPa 0,0 l/m 7,7 km/h (2 Bft) W-NW 294 0 min 0,000 mm 0,0 UV-I 47 W/m 7,7 C 8,6 C 14,5 km/h (3 Bft) 100,00 %
14.04.2016 08:19 9,7 C 88 % 1008,1 hPa 0,0 l/m 12,4 km/h (3 Bft) W 264 0 min 0,000 mm 0,0 UV-I 41 W/m 7,8 C 6,0 C 17,7 km/h (3 Bft) 100,00 %
14.04.2016 08:20 9,6 C 88 % 1008,0 hPa 0,0 l/m 10,9 km/h (2 Bft) W-SW 254 0 min 0,000 mm 0,0 UV-I 36 W/m 7,7 C 6,6 C 16,1 km/h (3 Bft) 100,00 %
14.04.2016 08:21 9,7 C 88 % 1008,1 hPa 0,0 l/m 12,5 km/h (3 Bft) W-SW 255 0 min 0,000 mm 0,0 UV-I 34 W/m 7,8 C 5,9 C 17,7 km/h (3 Bft) 100,00 %
14.04.2016 08:22 9,7 C 88 % 1008,1 hPa 0,0 l/m 13,8 km/h (3 Bft) W 277 0 min 0,000 mm 0,0 UV-I 35 W/m 7,8 C 5,3 C 17,7 km/h (3 Bft) 100,00 %
14.04.2016 08:23 9,6 C 87 % 1008,1 hPa 0,0 l/m 9,9 km/h (2 Bft) W 273 0 min 0,000 mm 0,0 UV-I 41 W/m 7,5 C 7,2 C 14,5 km/h (3 Bft) 100,00 %
14.04.2016 08:24 9,7 C 87 % 1008,1 hPa 0,0 l/m 7,0 km/h (2 Bft) W-SW 250 0 min 0,000 mm 0,0 UV-I 46 W/m 7,6 C 9,3 C 9,7 km/h (2 Bft) 100,00 %
14.04.2016 08:25 9,7 C 88 % 1008,1 hPa 0,0 l/m 12,1 km/h (2 Bft) W 262 0 min 0,000 mm 0,0 UV-I 53 W/m 7,8 C 6,1 C 14,5 km/h (3 Bft) 100,00 %
14.04.2016 08:26 9,6 C 88 % 1008,2 hPa 0,0 l/m 9,7 km/h (2 Bft) W-SW 250 0 min 0,000 mm 0,0 UV-I 53 W/m 7,7 C 7,3 C 11,3 km/h (2 Bft) 100,00 %
14.04.2016 08:27 9,7 C 88 % 1008,2 hPa 0,0 l/m 11,9 km/h (2 Bft) W-SW 244 0 min 0,000 mm 0,0 UV-I 52 W/m 7,8 C 6,2 C 20,9 km/h (4 Bft) 100,00 %
14.04.2016 08:28 9,6 C 88 % 1008,2 hPa 0,0 l/m 10,4 km/h (2 Bft) W-SW 246 0 min 0,000 mm 0,0 UV-I 50 W/m 7,7 C 6,9 C 14,5 km/h (3 Bft) 100,00 %
14.04.2016 08:29 9,7 C 87 % 1008,2 hPa 0,0 l/m 13,6 km/h (3 Bft) W-SW 251 0 min 0,000 mm 0,0 UV-I 47 W/m 7,6 C 5,4 C 17,7 km/h (3 Bft) 100,00 %
14.04.2016 08:30 9,7 C 87 % 1008,2 hPa 0,0 l/m 13,5 km/h (3 Bft) W 265 0 min 0,000 mm 0,0 UV-I 44 W/m 7,6 C 5,4 C 20,9 km/h (4 Bft) 100,00 %
14.04.2016 08:31 9,7 C 87 % 1008,2 hPa 0,0 l/m 9,0 km/h (2 Bft) W-SW 248 0 min 0,000 mm 0,0 UV-I 40 W/m 7,6 C 7,9 C 14,5 km/h (3 Bft) 100,00 %
14.04.2016 08:32 9,7 C 87 % 1008,2 hPa 0,0 l/m 10,4 km/h (2 Bft) W-NW 288 0 min 0,000 mm 0,0 UV-I 39 W/m 7,6 C 7,0 C 14,5 km/h (3 Bft) 91,67 %
14.04.2016 08:33 9,7 C 88 % 1008,2 hPa 0,0 l/m 9,8 km/h (2 Bft) SW 232 0 min 0,000 mm 0,0 UV-I 40 W/m 7,8 C 7,4 C 14,5 km/h (3 Bft) 100,00 %
14.04.2016 08:34 9,7 C 88 % 1008,2 hPa 0,0 l/m 10,4 km/h (2 Bft) W 273 0 min 0,000 mm 0,0 UV-I 41 W/m 7,8 C 7,0 C 12,9 km/h (3 Bft) 100,00 %
14.04.2016 08:35 9,7 C 88 % 1008,2 hPa 0,0 l/m 7,2 km/h (2 Bft) W-SW 250 0 min 0,000 mm 0,0 UV-I 45 W/m 7,8 C 9,1 C 11,3 km/h (2 Bft) 100,00 %
14.04.2016 08:36 9,7 C 88 % 1008,3 hPa 0,0 l/m 13,8 km/h (3 Bft) W-SW 254 0 min 0,000 mm 0,0 UV-I 49 W/m 7,8 C 5,3 C 16,1 km/h (3 Bft) 100,00 %
14.04.2016 08:37 9,7 C 88 % 1008,3 hPa 0,0 l/m 13,0 km/h (3 Bft) W-SW 251 0 min 0,000 mm 0,0 UV-I 50 W/m 7,8 C 5,7 C 16,1 km/h (3 Bft) 100,00 %
14.04.2016 08:38 9,7 C 88 % 1008,3 hPa 0,0 l/m 10,5 km/h (2 Bft) W-SW 252 0 min 0,000 mm 0,0 UV-I 48 W/m 7,8 C 7,0 C 14,5 km/h (3 Bft) 100,00 %
14.04.2016 08:39 9,7 C 88 % 1008,3 hPa 0,0 l/m 10,1 km/h (2 Bft) W-SW 244 0 min 0,000 mm 0,0 UV-I 47 W/m 7,8 C 7,2 C 14,5 km/h (3 Bft) 100,00 %
14.04.2016 08:40 9,7 C 87 % 1008,3 hPa 0,0 l/m 16,3 km/h (3 Bft) W 260 0 min 0,000 mm 0,0 UV-I 44 W/m 7,6 C 4,2 C 22,5 km/h (4 Bft) 100,00 %
14.04.2016 08:41 9,7 C 87 % 1008,3 hPa 0,0 l/m 18,1 km/h (3 Bft) W-SW 256 0 min 0,000 mm 0,0 UV-I 40 W/m 7,6 C 3,6 C 22,5 km/h (4 Bft) 100,00 %
14.04.2016 08:42 9,7 C 87 % 1008,3 hPa 0,0 l/m 10,7 km/h (2 Bft) W-NW 282 0 min 0,000 mm 0,0 UV-I 42 W/m 7,6 C 6,9 C 17,7 km/h (3 Bft) 100,00 %
14.04.2016 08:43 9,7 C 87 % 1008,3 hPa 0,0 l/m 12,8 km/h (3 Bft) W 271 0 min 0,000 mm 0,0 UV-I 45 W/m 7,6 C 5,8 C 17,7 km/h (3 Bft) 100,00 %
14.04.2016 08:44 9,7 C 87 % 1008,4 hPa 0,0 l/m 12,2 km/h (2 Bft) W-SW 244 0 min 0,000 mm 0,0 UV-I 51 W/m 7,6 C 6,1 C 16,1 km/h (3 Bft) 100,00 %
14.04.2016 08:45 9,7 C 88 % 1008,3 hPa 0,0 l/m 8,9 km/h (2 Bft) W 262 0 min 0,000 mm 0,0 UV-I 53 W/m 7,8 C 7,9 C 14,5 km/h (3 Bft) 100,00 %
14.04.2016 08:46 9,7 C 87 % 1008,4 hPa 0,0 l/m 13,1 km/h (3 Bft) W-SW 254 0 min 0,000 mm 0,0 UV-I 52 W/m 7,6 C 5,6 C 17,7 km/h (3 Bft) 91,67 %
14.04.2016 08:47 9,7 C 87 % 1008,4 hPa 0,0 l/m 12,0 km/h (2 Bft) W-SW 255 0 min 0,000 mm 0,0 UV-I 48 W/m 7,6 C 6,2 C 17,7 km/h (3 Bft) 100,00 %
14.04.2016 08:48 9,7 C 87 % 1008,4 hPa 0,0 l/m 7,9 km/h (2 Bft) W 274 0 min 0,000 mm 0,0 UV-I 50 W/m 7,6 C 8,6 C 12,9 km/h (3 Bft) 100,00 %
14.04.2016 08:49 9,7 C 88 % 1008,4 hPa 0,0 l/m 7,6 km/h (2 Bft) SW 232 0 min 0,000 mm 0,0 UV-I 58 W/m 7,8 C 8,8 C 11,3 km/h (2 Bft) 100,00 %
14.04.2016 08:50 9,7 C 88 % 1008,4 hPa 0,0 l/m 15,2 km/h (3 Bft) W 269 0 min 0,000 mm 0,0 UV-I 61 W/m 7,8 C 4,7 C 24,1 km/h (4 Bft) 100,00 %
14.04.2016 08:51 9,7 C 88 % 1008,4 hPa 0,0 l/m 16,1 km/h (3 Bft) W-SW 255 0 min 0,000 mm 0,0 UV-I 67 W/m 7,8 C 4,3 C 19,3 km/h (3 Bft) 93,33 %
14.04.2016 08:52 9,7 C 87 % 1008,4 hPa 0,0 l/m 12,0 km/h (2 Bft) SW 234 0 min 0,000 mm 0,0 UV-I 76 W/m 7,6 C 6,2 C 16,1 km/h (3 Bft) 100,00 %
14.04.2016 08:53 9,7 C 87 % 1008,4 hPa 0,0 l/m 9,3 km/h (2 Bft) W-SW 255 0 min 0,000 mm 0,0 UV-I 82 W/m 7,6 C 7,7 C 12,9 km/h (3 Bft) 100,00 %
14.04.2016 08:54 9,7 C 88 % 1008,4 hPa 0,0 l/m 15,3 km/h (3 Bft) W 263 0 min 0,000 mm 0,0 UV-I 83 W/m 7,8 C 4,6 C 20,9 km/h (4 Bft) 93,33 %
14.04.2016 08:55 9,7 C 87 % 1008,4 hPa 0,0 l/m 15,5 km/h (3 Bft) W-SW 239 0 min 0,000 mm 0,0 UV-I 87 W/m 7,6 C 4,6 C 22,5 km/h (4 Bft) 100,00 %
14.04.2016 08:56 9,7 C 87 % 1008,5 hPa 0,0 l/m 16,2 km/h (3 Bft) W 260 0 min 0,000 mm 0,0 UV-I 89 W/m 7,6 C 4,3 C 22,5 km/h (4 Bft) 95,65 %
14.04.2016 08:57 9,7 C 87 % 1008,5 hPa 0,0 l/m 12,7 km/h (3 Bft) W-SW 254 0 min 0,000 mm 0,0 UV-I 90 W/m 7,6 C 5,8 C 17,7 km/h (3 Bft) 96,30 %
14.04.2016 08:58 9,7 C 87 % 1008,5 hPa 0,0 l/m 17,3 km/h (3 Bft) W-NW 286 0 min 0,000 mm 0,0 UV-I 90 W/m 7,6 C 3,9 C 19,3 km/h (3 Bft) 100,00 %
14.04.2016 08:59 9,7 C 87 % 1008,5 hPa 0,0 l/m 12,1 km/h (2 Bft) W-SW 245 0 min 0,000 mm 0,0 UV-I 91 W/m 7,6 C 6,1 C 17,7 km/h (3 Bft) 100,00 %
14.04.2016 09:00 9,7 C 87 % 1008,5 hPa 0,0 l/m 10,2 km/h (2 Bft) W-SW 246 0 min 0,000 mm 0,0 UV-I 91 W/m 7,6 C 7,1 C 12,9 km/h (3 Bft) 100,00 %
14.04.2016 09:01 9,7 C 87 % 1008,5 hPa 0,0 l/m 16,8 km/h (3 Bft) W-SW 246 0 min 0,051 mm 0,0 UV-I 87 W/m 7,6 C 4,0 C 20,9 km/h (4 Bft) 100,00 %
14.04.2016 09:02 9,7 C 86 % 1008,5 hPa 0,0 l/m 16,6 km/h (3 Bft) W 267 0 min 0,000 mm 0,0 UV-I 85 W/m 7,5 C 4,1 C 20,9 km/h (4 Bft) 100,00 %
14.04.2016 09:03 9,7 C 86 % 1008,5 hPa 0,0 l/m 15,8 km/h (3 Bft) W 266 0 min 0,000 mm 0,0 UV-I 84 W/m 7,5 C 4,4 C 19,3 km/h (3 Bft) 100,00 %
14.04.2016 09:04 9,7 C 86 % 1008,5 hPa 0,0 l/m 13,3 km/h (3 Bft) W-SW 239 0 min 0,000 mm 0,0 UV-I 83 W/m 7,5 C 5,5 C 16,1 km/h (3 Bft) 100,00 %
14.04.2016 09:05 9,7 C 86 % 1008,6 hPa 0,0 l/m 11,9 km/h (2 Bft) W-SW 252 0 min 0,000 mm 0,0 UV-I 84 W/m 7,5 C 6,2 C 19,3 km/h (3 Bft) 100,00 %
14.04.2016 09:06 9,7 C 86 % 1008,6 hPa 0,0 l/m 16,5 km/h (3 Bft) W 277 0 min 0,000 mm 0,0 UV-I 90 W/m 7,5 C 4,2 C 20,9 km/h (4 Bft) 96,55 %
14.04.2016 09:07 9,7 C 86 % 1008,6 hPa 0,0 l/m 13,4 km/h (3 Bft) W-SW 251 0 min 0,000 mm 0,0 UV-I 89 W/m 7,5 C 5,5 C 16,1 km/h (3 Bft) 100,00 %
14.04.2016 09:08 9,7 C 86 % 1008,6 hPa 0,0 l/m 13,2 km/h (3 Bft) W 273 0 min 0,000 mm 0,0 UV-I 84 W/m 7,5 C 5,6 C 19,3 km/h (3 Bft) 100,00 %
14.04.2016 09:09 9,7 C 86 % 1008,6 hPa 0,0 l/m 16,0 km/h (3 Bft) W 281 0 min 0,000 mm 0,0 UV-I 85 W/m 7,5 C 4,4 C 22,5 km/h (4 Bft) 91,30 %
14.04.2016 09:10 9,7 C 86 % 1008,6 hPa 0,0 l/m 14,1 km/h (3 Bft) W 263 0 min 0,000 mm 0,0 UV-I 80 W/m 7,5 C 5,2 C 19,3 km/h (3 Bft) 93,33 %
14.04.2016 09:11 9,7 C 86 % 1008,7 hPa 0,0 l/m 14,5 km/h (3 Bft) W-SW 251 0 min 0,000 mm 0,0 UV-I 82 W/m 7,5 C 5,0 C 17,7 km/h (3 Bft) 100,00 %
14.04.2016 09:12 9,7 C 86 % 1008,6 hPa 0,0 l/m 18,0 km/h (3 Bft) W-SW 247 0 min 0,000 mm 0,0 UV-I 83 W/m 7,5 C 3,6 C 24,1 km/h (4 Bft) 94,44 %
14.04.2016 09:13 9,7 C 86 % 1008,7 hPa 0,0 l/m 15,4 km/h (3 Bft) W 271 0 min 0,000 mm 0,0 UV-I 85 W/m 7,5 C 4,6 C 19,3 km/h (3 Bft) 96,55 %
14.04.2016 09:14 9,7 C 86 % 1008,7 hPa 0,0 l/m 14,3 km/h (3 Bft) W-SW 257 0 min 0,000 mm 0,0 UV-I 95 W/m 7,5 C 5,1 C 17,7 km/h (3 Bft) 98,66 %
14.04.2016 09:15 9,7 C 86 % 1008,7 hPa 0,0 l/m 14,6 km/h (3 Bft) W-SW 251 0 min 0,000 mm 0,0 UV-I 102 W/m 7,5 C 4,9 C 24,1 km/h (4 Bft) 97,56 %
14.04.2016 09:16 9,7 C 86 % 1008,7 hPa 0,0 l/m 18,7 km/h (3 Bft) W-SW 238 0 min 0,000 mm 0,0 UV-I 104 W/m 7,5 C 3,3 C 24,1 km/h (4 Bft) 92,59 %
14.04.2016 09:17 9,7 C 86 % 1008,7 hPa 0,0 l/m 19,2 km/h (3 Bft) W-SW 251 0 min 0,000 mm 0,0 UV-I 104 W/m 7,5 C 3,2 C 22,5 km/h (4 Bft) 96,15 %
14.04.2016 09:18 9,7 C 86 % 1008,8 hPa 0,0 l/m 10,9 km/h (2 Bft) W 277 0 min 0,000 mm 0,0 UV-I 112 W/m 7,5 C 6,8 C 19,3 km/h (3 Bft) 100,00 %
14.04.2016 09:19 9,7 C 86 % 1008,8 hPa 0,0 l/m 16,5 km/h (3 Bft) W 263 0 min 0,000 mm 0,0 UV-I 115 W/m 7,5 C 4,2 C 20,9 km/h (4 Bft) 100,00 %
14.04.2016 09:20 9,7 C 85 % 1008,8 hPa 0,0 l/m 19,1 km/h (3 Bft) W-SW 246 0 min 0,000 mm 0,0 UV-I 121 W/m 7,3 C 3,2 C 27,4 km/h (4 Bft) 97,56 %
14.04.2016 09:21 9,7 C 85 % 1008,7 hPa 0,0 l/m 16,0 km/h (3 Bft) W-SW 254 0 min 0,000 mm 0,3 UV-I 133 W/m 7,3 C 4,4 C 22,5 km/h (4 Bft) 96,15 %
14.04.2016 09:22 9,7 C 85 % 1008,8 hPa 0,0 l/m 15,6 km/h (3 Bft) W-NW 292 0 min 0,000 mm 0,5 UV-I 144 W/m 7,3 C 4,5 C 20,9 km/h (4 Bft) 100,00 %
14.04.2016 09:23 9,8 C 85 % 1008,8 hPa 0,0 l/m 16,2 km/h (3 Bft) W 275 0 min 0,000 mm 0,5 UV-I 153 W/m 7,4 C 4,4 C 24,1 km/h (4 Bft) 95,65 %
14.04.2016 09:24 9,8 C 85 % 1008,8 hPa 0,0 l/m 12,9 km/h (3 Bft) SW 235 0 min 0,000 mm 0,5 UV-I 151 W/m 7,4 C 5,8 C 19,3 km/h (3 Bft) 100,00 %
14.04.2016 09:25 9,8 C 85 % 1008,8 hPa 0,0 l/m 16,9 km/h (3 Bft) W-SW 243 0 min 0,000 mm 0,5 UV-I 144 W/m 7,4 C 4,1 C 22,5 km/h (4 Bft) 96,15 %
14.04.2016 09:26 9,8 C 85 % 1008,8 hPa 0,0 l/m 19,3 km/h (3 Bft) W-SW 243 0 min 0,000 mm 0,3 UV-I 122 W/m 7,4 C 3,3 C 24,1 km/h (4 Bft) 100,00 %
14.04.2016 09:27 9,8 C 85 % 1008,9 hPa 0,0 l/m 18,7 km/h (3 Bft) W-SW 240 0 min 0,000 mm 0,0 UV-I 103 W/m 7,4 C 3,5 C 25,7 km/h (4 Bft) 96,30 %
14.04.2016 09:28 9,7 C 85 % 1008,9 hPa 0,0 l/m 16,6 km/h (3 Bft) W-SW 242 0 min 0,000 mm 0,0 UV-I 97 W/m 7,3 C 4,1 C 29,0 km/h (5 Bft) 96,15 %
14.04.2016 09:29 9,8 C 85 % 1008,9 hPa 0,0 l/m 15,0 km/h (3 Bft) W 275 0 min 0,000 mm 0,0 UV-I 95 W/m 7,4 C 4,9 C 19,3 km/h (3 Bft) 100,00 %
14.04.2016 09:30 9,8 C 85 % 1008,9 hPa 0,0 l/m 14,5 km/h (3 Bft) W-SW 257 0 min 0,000 mm 0,0 UV-I 89 W/m 7,4 C 5,1 C 19,3 km/h (3 Bft) 93,33 %
14.04.2016 09:31 9,8 C 85 % 1008,9 hPa 0,0 l/m 19,0 km/h (3 Bft) W-SW 240 0 min 0,000 mm 0,0 UV-I 85 W/m 7,4 C 3,4 C 22,5 km/h (4 Bft) 96,30 %
14.04.2016 09:32 9,8 C 84 % 1008,9 hPa 0,0 l/m 21,1 km/h (4 Bft) W 261 0 min 0,000 mm 0,0 UV-I 83 W/m 7,2 C 2,7 C 33,8 km/h (5 Bft) 96,15 %
14.04.2016 09:33 9,7 C 84 % 1008,9 hPa 0,0 l/m 15,5 km/h (3 Bft) W 268 0 min 0,000 mm 0,0 UV-I 82 W/m 7,1 C 4,6 C 20,9 km/h (4 Bft) 95,83 %
14.04.2016 09:34 9,8 C 84 % 1008,9 hPa 0,0 l/m 18,7 km/h (3 Bft) W-SW 241 0 min 0,000 mm 0,0 UV-I 80 W/m 7,2 C 3,5 C 25,7 km/h (4 Bft) 100,00 %
14.04.2016 09:35 9,8 C 84 % 1008,9 hPa 0,0 l/m 12,4 km/h (3 Bft) W 276 0 min 0,000 mm 0,0 UV-I 76 W/m 7,2 C 6,1 C 14,5 km/h (3 Bft) 96,30 %
14.04.2016 09:36 9,8 C 84 % 1009,1 hPa 0,0 l/m 15,9 km/h (3 Bft) W 263 0 min 0,000 mm 0,0 UV-I 71 W/m 7,2 C 4,5 C 20,9 km/h (4 Bft) 100,00 %
14.04.2016 09:37 9,7 C 84 % 1009,0 hPa 0,0 l/m 12,2 km/h (2 Bft) W 272 0 min 0,000 mm 0,0 UV-I 68 W/m 7,1 C 6,1 C 17,7 km/h (3 Bft) 95,83 %
14.04.2016 09:38 9,7 C 84 % 1009,0 hPa 0,0 l/m 12,9 km/h (3 Bft) W 281 0 min 0,000 mm 0,0 UV-I 66 W/m 7,1 C 5,7 C 17,7 km/h (3 Bft) 96,15 %
14.04.2016 09:39 9,7 C 84 % 1009,0 hPa 0,0 l/m 13,1 km/h (3 Bft) W-SW 251 0 min 0,000 mm 0,0 UV-I 63 W/m 7,1 C 5,6 C 22,5 km/h (4 Bft) 91,67 %
14.04.2016 09:40 9,7 C 84 % 1009,0 hPa 0,0 l/m 12,5 km/h (3 Bft) W 281 0 min 0,000 mm 0,0 UV-I 59 W/m 7,1 C 5,9 C 17,7 km/h (3 Bft) 100,00 %
14.04.2016 09:41 9,7 C 84 % 1009,0 hPa 0,0 l/m 10,1 km/h (2 Bft) W-SW 251 0 min 0,000 mm 0,0 UV-I 58 W/m 7,1 C 7,2 C 16,1 km/h (3 Bft) 100,00 %
14.04.2016 09:42 9,7 C 84 % 1009,1 hPa 0,0 l/m 9,1 km/h (2 Bft) W-SW 250 0 min 0,000 mm 0,0 UV-I 58 W/m 7,1 C 7,8 C 12,9 km/h (3 Bft) 100,00 %
14.04.2016 09:43 9,7 C 84 % 1009,0 hPa 0,0 l/m 12,6 km/h (3 Bft) SW 234 0 min 0,000 mm 0,0 UV-I 58 W/m 7,1 C 5,9 C 24,1 km/h (4 Bft) 100,00 %
14.04.2016 09:44 9,7 C 84 % 1009,0 hPa 0,0 l/m 16,2 km/h (3 Bft) W 263 0 min 0,000 mm 0,0 UV-I 58 W/m 7,1 C 4,3 C 24,1 km/h (4 Bft) 96,15 %
14.04.2016 09:45 9,7 C 84 % 1009,1 hPa 0,0 l/m 11,3 km/h (2 Bft) W-SW 252 0 min 0,000 mm 0,0 UV-I 58 W/m 7,1 C 6,5 C 16,1 km/h (3 Bft) 100,00 %
14.04.2016 09:46 9,7 C 84 % 1009,1 hPa 0,0 l/m 12,5 km/h (3 Bft) W-NW 288 0 min 0,000 mm 0,0 UV-I 56 W/m 7,1 C 5,9 C 16,1 km/h (3 Bft) 95,83 %
14.04.2016 09:47 9,7 C 85 % 1009,2 hPa 0,0 l/m 12,1 km/h (2 Bft) W-SW 252 0 min 0,000 mm 0,0 UV-I 60 W/m 7,3 C 6,1 C 19,3 km/h (3 Bft) 95,65 %
14.04.2016 09:48 9,7 C 84 % 1009,1 hPa 0,0 l/m 13,3 km/h (3 Bft) W-SW 257 0 min 0,000 mm 0,0 UV-I 62 W/m 7,1 C 5,5 C 17,7 km/h (3 Bft) 95,83 %
14.04.2016 09:49 9,7 C 84 % 1009,1 hPa 0,0 l/m 16,0 km/h (3 Bft) W 263 0 min 0,000 mm 0,0 UV-I 60 W/m 7,1 C 4,4 C 22,5 km/h (4 Bft) 100,00 %
14.04.2016 09:50 9,6 C 84 % 1009,2 hPa 0,0 l/m 12,7 km/h (3 Bft) W 268 0 min 0,000 mm 0,0 UV-I 55 W/m 7,0 C 5,7 C 19,3 km/h (3 Bft) 100,00 %
14.04.2016 09:51 9,6 C 84 % 1009,2 hPa 0,0 l/m 14,5 km/h (3 Bft) W 274 0 min 0,000 mm 0,0 UV-I 52 W/m 7,0 C 4,9 C 22,5 km/h (4 Bft) 100,00 %
14.04.2016 09:52 9,6 C 84 % 1009,2 hPa 0,0 l/m 15,0 km/h (3 Bft) W-NW 294 0 min 0,000 mm 0,0 UV-I 51 W/m 7,0 C 4,6 C 29,0 km/h (5 Bft) 100,00 %
14.04.2016 09:53 9,6 C 83 % 1009,2 hPa 0,0 l/m 17,2 km/h (3 Bft) W-SW 251 0 min 0,000 mm 0,0 UV-I 51 W/m 6,9 C 3,8 C 20,9 km/h (4 Bft) 100,00 %
14.04.2016 09:54 9,6 C 83 % 1009,2 hPa 0,0 l/m 20,5 km/h (4 Bft) SW 232 0 min 0,000 mm 0,0 UV-I 48 W/m 6,9 C 2,6 C 29,0 km/h (5 Bft) 100,00 %
14.04.2016 09:55 9,6 C 82 % 1009,3 hPa 0,0 l/m 18,2 km/h (3 Bft) W 269 0 min 0,000 mm 0,0 UV-I 46 W/m 6,7 C 3,4 C 25,7 km/h (4 Bft) 100,00 %
14.04.2016 09:56 9,6 C 83 % 1009,2 hPa 0,0 l/m 14,4 km/h (3 Bft) W 259 0 min 0,000 mm 0,0 UV-I 42 W/m 6,9 C 4,9 C 27,4 km/h (4 Bft) 96,67 %
14.04.2016 09:57 9,6 C 83 % 1009,3 hPa 0,0 l/m 23,1 km/h (4 Bft) W-SW 256 0 min 0,000 mm 0,0 UV-I 41 W/m 6,9 C 1,8 C 29,0 km/h (5 Bft) 100,00 %
14.04.2016 09:58 9,6 C 83 % 1009,2 hPa 0,0 l/m 14,3 km/h (3 Bft) W 270 0 min 0,000 mm 0,0 UV-I 39 W/m 6,9 C 5,0 C 16,1 km/h (3 Bft) 96,30 %
14.04.2016 09:59 9,6 C 83 % 1009,2 hPa 0,0 l/m 14,6 km/h (3 Bft) W 279 0 min 0,000 mm 0,0 UV-I 35 W/m 6,9 C 4,8 C 20,9 km/h (4 Bft) 100,00 %
14.04.2016 10:00 9,6 C 83 % 1009,2 hPa 0,0 l/m 12,5 km/h (3 Bft) W 277 0 min 0,000 mm 0,0 UV-I 36 W/m 6,9 C 5,8 C 14,5 km/h (3 Bft) 100,00 %
14.04.2016 10:01 9,6 C 83 % 1009,3 hPa 0,0 l/m 13,1 km/h (3 Bft) W 267 0 min 0,051 mm 0,0 UV-I 46 W/m 6,9 C 5,5 C 16,1 km/h (3 Bft) 100,00 %
14.04.2016 10:02 9,6 C 83 % 1009,3 hPa 0,0 l/m 14,1 km/h (3 Bft) W-SW 252 0 min 0,000 mm 0,0 UV-I 62 W/m 6,9 C 5,0 C 20,9 km/h (4 Bft) 100,00 %
14.04.2016 10:03 9,6 C 83 % 1009,2 hPa 0,0 l/m 17,2 km/h (3 Bft) W 263 0 min 0,000 mm 0,0 UV-I 74 W/m 6,9 C 3,8 C 22,5 km/h (4 Bft) 100,00 %
14.04.2016 10:04 9,6 C 83 % 1009,3 hPa 0,0 l/m 13,7 km/h (3 Bft) W 260 0 min 0,000 mm 0,0 UV-I 81 W/m 6,9 C 5,2 C 17,7 km/h (3 Bft) 100,00 %
14.04.2016 10:05 9,6 C 83 % 1009,3 hPa 0,0 l/m 12,1 km/h (2 Bft) W-SW 254 0 min 0,000 mm 0,0 UV-I 81 W/m 6,9 C 6,0 C 14,5 km/h (3 Bft) 100,00 %
14.04.2016 10:06 9,6 C 84 % 1009,3 hPa 0,0 l/m 16,5 km/h (3 Bft) W-SW 241 0 min 0,000 mm 0,0 UV-I 84 W/m 7,0 C 4,0 C 20,9 km/h (4 Bft) 100,00 %
14.04.2016 10:07 9,6 C 83 % 1009,3 hPa 0,0 l/m 12,5 km/h (3 Bft) W 272 0 min 0,000 mm 0,0 UV-I 80 W/m 6,9 C 5,8 C 16,1 km/h (3 Bft) 100,00 %
14.04.2016 10:08 9,6 C 84 % 1009,3 hPa 0,0 l/m 8,9 km/h (2 Bft) SW 227 0 min 0,000 mm 0,0 UV-I 71 W/m 7,0 C 7,8 C 14,5 km/h (3 Bft) 100,00 %
14.04.2016 10:09 9,6 C 84 % 1009,3 hPa 0,0 l/m 10,6 km/h (2 Bft) W-NW 284 0 min 0,000 mm 0,0 UV-I 63 W/m 7,0 C 6,8 C 12,9 km/h (3 Bft) 100,00 %
14.04.2016 10:10 9,6 C 83 % 1009,3 hPa 0,0 l/m 13,0 km/h (3 Bft) W-SW 240 0 min 0,000 mm 0,0 UV-I 60 W/m 6,9 C 5,6 C 19,3 km/h (3 Bft) 100,00 %
14.04.2016 10:11 9,6 C 84 % 1009,3 hPa 0,0 l/m 11,7 km/h (2 Bft) W-SW 253 0 min 0,000 mm 0,0 UV-I 57 W/m 7,0 C 6,2 C 20,9 km/h (4 Bft) 100,00 %
14.04.2016 10:12 9,6 C 84 % 1009,3 hPa 0,0 l/m 12,7 km/h (3 Bft) W-SW 257 0 min 0,000 mm 0,0 UV-I 52 W/m 7,0 C 5,7 C 19,3 km/h (3 Bft) 100,00 %
14.04.2016 10:13 9,6 C 84 % 1009,3 hPa 0,0 l/m 11,4 km/h (2 Bft) W 260 0 min 0,000 mm 0,0 UV-I 50 W/m 7,0 C 6,4 C 12,9 km/h (3 Bft) 100,00 %
14.04.2016 10:14 9,6 C 84 % 1009,3 hPa 0,0 l/m 10,9 km/h (2 Bft) SW 222 0 min 0,000 mm 0,0 UV-I 50 W/m 7,0 C 6,6 C 17,7 km/h (3 Bft) 95,65 %
14.04.2016 10:15 9,6 C 84 % 1009,3 hPa 0,0 l/m 13,7 km/h (3 Bft) W-SW 255 0 min 0,000 mm 0,0 UV-I 49 W/m 7,0 C 5,2 C 19,3 km/h (3 Bft) 100,00 %
14.04.2016 10:16 9,6 C 83 % 1009,3 hPa 0,0 l/m 13,1 km/h (3 Bft) W-SW 242 0 min 0,000 mm 0,0 UV-I 44 W/m 6,9 C 5,5 C 17,7 km/h (3 Bft) 100,00 %
14.04.2016 10:17 9,6 C 84 % 1009,3 hPa 0,0 l/m 18,8 km/h (3 Bft) W 269 0 min 0,000 mm 0,0 UV-I 40 W/m 7,0 C 3,2 C 24,1 km/h (4 Bft) 100,00 %
14.04.2016 10:18 9,6 C 84 % 1009,4 hPa 0,0 l/m 17,0 km/h (3 Bft) W 279 0 min 0,000 mm 0,0 UV-I 38 W/m 7,0 C 3,8 C 22,5 km/h (4 Bft) 100,00 %
14.04.2016 10:19 9,5 C 83 % 1009,4 hPa 0,0 l/m 16,6 km/h (3 Bft) W-SW 257 0 min 0,000 mm 0,0 UV-I 37 W/m 6,8 C 3,9 C 24,1 km/h (4 Bft) 98,60 %
14.04.2016 10:20 9,5 C 83 % 1009,4 hPa 0,0 l/m 17,0 km/h (3 Bft) W-SW 257 0 min 0,000 mm 0,0 UV-I 36 W/m 6,8 C 3,7 C 27,4 km/h (4 Bft) 100,00 %
14.04.2016 10:21 9,5 C 83 % 1009,4 hPa 0,0 l/m 15,6 km/h (3 Bft) SW 219 0 min 0,000 mm 0,0 UV-I 35 W/m 6,8 C 4,3 C 20,9 km/h (4 Bft) 100,00 %
14.04.2016 10:22 9,5 C 83 % 1009,4 hPa 0,0 l/m 13,4 km/h (3 Bft) W-SW 242 0 min 0,000 mm 0,0 UV-I 33 W/m 6,8 C 5,2 C 19,3 km/h (3 Bft) 96,15 %
14.04.2016 10:23 9,5 C 83 % 1009,4 hPa 0,0 l/m 11,5 km/h (2 Bft) W 261 0 min 0,000 mm 0,0 UV-I 33 W/m 6,8 C 6,2 C 16,1 km/h (3 Bft) 100,00 %
14.04.2016 10:24 9,5 C 83 % 1009,4 hPa 0,0 l/m 15,0 km/h (3 Bft) W 269 0 min 0,000 mm 0,0 UV-I 33 W/m 6,8 C 4,5 C 19,3 km/h (3 Bft) 93,33 %
14.04.2016 10:25 9,4 C 83 % 1009,4 hPa 0,0 l/m 12,2 km/h (2 Bft) W-NW 290 0 min 0,000 mm 0,0 UV-I 31 W/m 6,7 C 5,7 C 16,1 km/h (3 Bft) 100,00 %
14.04.2016 10:26 9,4 C 83 % 1009,4 hPa 0,0 l/m 14,1 km/h (3 Bft) W 269 0 min 0,000 mm 0,0 UV-I 28 W/m 6,7 C 4,8 C 19,3 km/h (3 Bft) 100,00 %
14.04.2016 10:27 9,4 C 83 % 1009,4 hPa 0,0 l/m 16,5 km/h (3 Bft) W 261 0 min 0,000 mm 0,0 UV-I 28 W/m 6,7 C 3,8 C 24,1 km/h (4 Bft) 100,00 %
14.04.2016 10:28 9,4 C 83 % 1009,5 hPa 0,0 l/m 17,6 km/h (3 Bft) W-SW 247 0 min 0,000 mm 0,0 UV-I 26 W/m 6,7 C 3,4 C 25,7 km/h (4 Bft) 100,00 %
14.04.2016 10:29 9,4 C 83 % 1009,4 hPa 0,0 l/m 15,9 km/h (3 Bft) SW 217 0 min 0,000 mm 0,0 UV-I 25 W/m 6,7 C 4,0 C 22,5 km/h (4 Bft) 96,15 %
14.04.2016 10:30 9,4 C 83 % 1009,5 hPa 0,0 l/m 15,5 km/h (3 Bft) W-SW 257 0 min 0,000 mm 0,0 UV-I 26 W/m 6,7 C 4,2 C 19,3 km/h (3 Bft) 100,00 %
14.04.2016 10:31 9,4 C 83 % 1009,5 hPa 0,0 l/m 16,9 km/h (3 Bft) W-SW 257 0 min 0,000 mm 0,0 UV-I 26 W/m 6,7 C 3,6 C 20,9 km/h (4 Bft) 100,00 %
14.04.2016 10:32 9,4 C 83 % 1009,5 hPa 0,0 l/m 11,6 km/h (2 Bft) W 270 0 min 0,000 mm 0,0 UV-I 28 W/m 6,7 C 6,0 C 16,1 km/h (3 Bft) 100,00 %
14.04.2016 10:33 9,4 C 83 % 1009,5 hPa 0,0 l/m 11,3 km/h (2 Bft) W-SW 239 0 min 0,000 mm 0,0 UV-I 28 W/m 6,7 C 6,2 C 14,5 km/h (3 Bft) 100,00 %
14.04.2016 10:34 9,4 C 83 % 1009,5 hPa 0,0 l/m 13,2 km/h (3 Bft) W 264 0 min 0,000 mm 0,0 UV-I 30 W/m 6,7 C 5,2 C 17,7 km/h (3 Bft) 100,00 %
14.04.2016 10:35 9,4 C 83 % 1009,5 hPa 0,0 l/m 14,9 km/h (3 Bft) W-SW 245 0 min 0,000 mm 0,0 UV-I 30 W/m 6,7 C 4,5 C 20,9 km/h (4 Bft) 100,00 %
14.04.2016 10:36 9,3 C 83 % 1009,5 hPa 0,0 l/m 17,3 km/h (3 Bft) W-SW 254 0 min 0,000 mm 0,0 UV-I 30 W/m 6,6 C 3,3 C 25,7 km/h (4 Bft) 100,00 %
14.04.2016 10:37 9,4 C 83 % 1009,7 hPa 0,0 l/m 22,5 km/h (4 Bft) W-SW 237 0 min 0,000 mm 0,0 UV-I 30 W/m 6,7 C 1,7 C 29,0 km/h (5 Bft) 100,00 %
14.04.2016 10:38 9,3 C 83 % 1009,7 hPa 0,0 l/m 15,3 km/h (3 Bft) W-SW 246 0 min 0,000 mm 0,0 UV-I 31 W/m 6,6 C 4,2 C 17,7 km/h (3 Bft) 100,00 %
14.04.2016 10:39 9,4 C 83 % 1009,6 hPa 0,0 l/m 14,1 km/h (3 Bft) W 271 0 min 0,000 mm 0,0 UV-I 33 W/m 6,7 C 4,8 C 19,3 km/h (3 Bft) 100,00 %
14.04.2016 10:40 9,3 C 83 % 1009,7 hPa 0,0 l/m 12,4 km/h (3 Bft) W 259 0 min 0,000 mm 0,0 UV-I 36 W/m 6,6 C 5,5 C 17,7 km/h (3 Bft) 100,00 %
14.04.2016 10:41 9,3 C 83 % 1009,6 hPa 0,0 l/m 18,3 km/h (3 Bft) W 276 0 min 0,000 mm 0,0 UV-I 40 W/m 6,6 C 3,0 C 22,5 km/h (4 Bft) 100,00 %
14.04.2016 10:42 9,3 C 83 % 1009,6 hPa 0,0 l/m 15,4 km/h (3 Bft) W-SW 244 0 min 0,000 mm 0,0 UV-I 43 W/m 6,6 C 4,1 C 25,7 km/h (4 Bft) 100,00 %
14.04.2016 10:43 9,3 C 83 % 1009,6 hPa 0,0 l/m 14,9 km/h (3 Bft) W-SW 248 0 min 0,000 mm 0,0 UV-I 47 W/m 6,6 C 4,3 C 17,7 km/h (3 Bft) 98,66 %
14.04.2016 10:44 9,3 C 83 % 1009,6 hPa 0,0 l/m 15,2 km/h (3 Bft) W-SW 246 0 min 0,000 mm 0,0 UV-I 56 W/m 6,6 C 4,2 C 25,7 km/h (4 Bft) 100,00 %
14.04.2016 10:45 9,3 C 83 % 1009,5 hPa 0,0 l/m 20,6 km/h (4 Bft) W-SW 256 0 min 0,000 mm 0,0 UV-I 69 W/m 6,6 C 2,2 C 29,0 km/h (5 Bft) 100,00 %
14.04.2016 10:46 9,3 C 83 % 1009,7 hPa 0,0 l/m 20,3 km/h (4 Bft) W-SW 257 0 min 0,000 mm 0,0 UV-I 85 W/m 6,6 C 2,3 C 25,7 km/h (4 Bft) 100,00 %
14.04.2016 10:47 9,4 C 83 % 1009,6 hPa 0,0 l/m 16,5 km/h (3 Bft) W-SW 252 0 min 0,000 mm 0,5 UV-I 103 W/m 6,7 C 3,8 C 20,9 km/h (4 Bft) 96,55 %
14.04.2016 10:48 9,4 C 83 % 1009,7 hPa 0,0 l/m 14,8 km/h (3 Bft) SW 234 0 min 0,000 mm 0,6 UV-I 122 W/m 6,7 C 4,5 C 17,7 km/h (3 Bft) 91,67 %
14.04.2016 10:49 9,4 C 83 % 1009,7 hPa 0,0 l/m 13,6 km/h (3 Bft) W 260 0 min 0,000 mm 0,7 UV-I 142 W/m 6,7 C 5,0 C 17,7 km/h (3 Bft) 100,00 %
14.04.2016 10:50 9,4 C 83 % 1009,7 hPa 0,0 l/m 15,5 km/h (3 Bft) W 264 0 min 0,000 mm 0,9 UV-I 166 W/m 6,7 C 4,2 C 20,9 km/h (4 Bft) 100,00 %
14.04.2016 10:51 9,5 C 83 % 1009,8 hPa 0,0 l/m 15,3 km/h (3 Bft) W 275 0 min 0,000 mm 1,0 UV-I 186 W/m 6,8 C 4,4 C 24,1 km/h (4 Bft) 100,00 %
14.04.2016 10:52 9,6 C 83 % 1009,7 hPa 0,0 l/m 18,3 km/h (3 Bft) W 280 0 min 0,000 mm 1,0 UV-I 198 W/m 6,9 C 3,4 C 25,7 km/h (4 Bft) 100,00 %
14.04.2016 10:53 9,6 C 83 % 1009,8 hPa 0,0 l/m 17,9 km/h (3 Bft) W-SW 244 0 min 0,000 mm 1,1 UV-I 201 W/m 6,9 C 3,5 C 24,1 km/h (4 Bft) 100,00 %
14.04.2016 10:54 9,7 C 82 % 1009,8 hPa 0,0 l/m 16,2 km/h (3 Bft) W 262 0 min 0,000 mm 1,1 UV-I 201 W/m 6,8 C 4,3 C 19,3 km/h (3 Bft) 100,00 %
14.04.2016 10:55 9,7 C 83 % 1009,7 hPa 0,0 l/m 16,1 km/h (3 Bft) W 264 0 min 0,000 mm 1,0 UV-I 199 W/m 7,0 C 4,3 C 22,5 km/h (4 Bft) 100,00 %
14.04.2016 10:56 9,8 C 82 % 1009,8 hPa 0,0 l/m 17,9 km/h (3 Bft) W-SW 249 0 min 0,000 mm 1,0 UV-I 200 W/m 6,9 C 3,8 C 22,5 km/h (4 Bft) 100,00 %
14.04.2016 10:57 9,8 C 82 % 1009,8 hPa 0,0 l/m 16,8 km/h (3 Bft) SW 235 0 min 0,000 mm 1,1 UV-I 199 W/m 6,9 C 4,2 C 24,1 km/h (4 Bft) 100,00 %
14.04.2016 10:58 9,8 C 82 % 1009,8 hPa 0,0 l/m 12,8 km/h (3 Bft) SW 229 0 min 0,000 mm 1,0 UV-I 194 W/m 6,9 C 5,9 C 20,9 km/h (4 Bft) 100,00 %
14.04.2016 10:59 9,9 C 82 % 1009,8 hPa 0,0 l/m 13,4 km/h (3 Bft) W-NW 288 0 min 0,000 mm 1,0 UV-I 200 W/m 7,0 C 5,7 C 24,1 km/h (4 Bft) 100,00 %
14.04.2016 11:00 9,9 C 82 % 1009,8 hPa 0,0 l/m 11,6 km/h (2 Bft) NW 306 0 min 0,000 mm 1,1 UV-I 220 W/m 7,0 C 6,6 C 16,1 km/h (3 Bft) 100,00 %
14.04.2016 11:01 9,9 C 81 % 1009,8 hPa 0,0 l/m 8,7 km/h (2 Bft) SW 235 0 min 0,051 mm 1,2 UV-I 230 W/m 6,8 C 8,3 C 12,9 km/h (3 Bft) 100,00 %
14.04.2016 11:02 10,0 C 82 % 1009,9 hPa 0,0 l/m 11,6 km/h (2 Bft) W-SW 246 0 min 0,000 mm 1,1 UV-I 219 W/m 7,1 C 6,7 C 14,5 km/h (3 Bft) 100,00 %
14.04.2016 11:03 10,1 C 82 % 1009,9 hPa 0,0 l/m 7,4 km/h (2 Bft) W-SW 254 0 min 0,000 mm 1,0 UV-I 205 W/m 7,2 C 9,4 C 11,3 km/h (2 Bft) 100,00 %
14.04.2016 11:04 10,2 C 82 % 1009,8 hPa 0,0 l/m 9,7 km/h (2 Bft) W-SW 248 0 min 0,000 mm 1,0 UV-I 191 W/m 7,3 C 8,0 C 12,9 km/h (3 Bft) 100,00 %
14.04.2016 11:05 10,2 C 82 % 1009,8 hPa 0,0 l/m 15,4 km/h (3 Bft) W-NW 284 0 min 0,000 mm 1,0 UV-I 195 W/m 7,3 C 5,2 C 19,3 km/h (3 Bft) 96,15 %
14.04.2016 11:06 10,2 C 81 % 1009,8 hPa 0,0 l/m 17,9 km/h (3 Bft) W-SW 240 0 min 0,000 mm 1,1 UV-I 220 W/m 7,1 C 4,3 C 25,7 km/h (4 Bft) 96,88 %
14.04.2016 11:07 10,2 C 81 % 1009,8 hPa 0,0 l/m 18,1 km/h (3 Bft) W 267 0 min 0,000 mm 1,2 UV-I 239 W/m 7,1 C 4,2 C 27,4 km/h (4 Bft) 100,00 %
14.04.2016 11:08 10,2 C 80 % 1009,8 hPa 0,0 l/m 18,4 km/h (3 Bft) W-SW 247 0 min 0,000 mm 1,3 UV-I 244 W/m 6,9 C 4,1 C 25,7 km/h (4 Bft) 100,00 %
14.04.2016 11:09 10,3 C 81 % 1009,8 hPa 0,0 l/m 14,0 km/h (3 Bft) W 278 0 min 0,000 mm 1,3 UV-I 242 W/m 7,2 C 5,9 C 17,7 km/h (3 Bft) 100,00 %
14.04.2016 11:10 10,3 C 81 % 1009,9 hPa 0,0 l/m 18,0 km/h (3 Bft) W-SW 249 0 min 0,000 mm 1,2 UV-I 236 W/m 7,2 C 4,3 C 22,5 km/h (4 Bft) 97,56 %
14.04.2016 11:11 10,3 C 81 % 1009,8 hPa 0,0 l/m 11,4 km/h (2 Bft) W 281 0 min 0,000 mm 1,3 UV-I 243 W/m 7,2 C 7,2 C 17,7 km/h (3 Bft) 100,00 %
14.04.2016 11:12 10,3 C 81 % 1009,9 hPa 0,0 l/m 13,0 km/h (3 Bft) W-SW 250 0 min 0,000 mm 1,3 UV-I 239 W/m 7,2 C 6,4 C 16,1 km/h (3 Bft) 100,00 %
14.04.2016 11:13 10,4 C 81 % 1009,9 hPa 0,0 l/m 13,7 km/h (3 Bft) W 265 0 min 0,000 mm 1,2 UV-I 222 W/m 7,3 C 6,2 C 25,7 km/h (4 Bft) 95,12 %
14.04.2016 11:14 10,4 C 80 % 1010,0 hPa 0,0 l/m 15,6 km/h (3 Bft) W-NW 282 0 min 0,000 mm 1,0 UV-I 199 W/m 7,1 C 5,4 C 22,5 km/h (4 Bft) 95,83 %
14.04.2016 11:15 10,4 C 81 % 1009,9 hPa 0,0 l/m 15,0 km/h (3 Bft) W 261 0 min 0,000 mm 0,9 UV-I 176 W/m 7,3 C 5,6 C 22,5 km/h (4 Bft) 100,00 %
14.04.2016 11:16 10,4 C 80 % 1009,9 hPa 0,0 l/m 15,9 km/h (3 Bft) W-SW 252 0 min 0,000 mm 0,8 UV-I 158 W/m 7,1 C 5,3 C 24,1 km/h (4 Bft) 95,83 %
14.04.2016 11:17 10,4 C 80 % 1009,8 hPa 0,0 l/m 13,6 km/h (3 Bft) SW 227 0 min 0,000 mm 0,8 UV-I 144 W/m 7,1 C 6,2 C 20,9 km/h (4 Bft) 95,65 %
14.04.2016 11:18 10,4 C 80 % 1009,9 hPa 0,0 l/m 16,5 km/h (3 Bft) W-SW 243 0 min 0,000 mm 0,7 UV-I 131 W/m 7,1 C 5,0 C 22,5 km/h (4 Bft) 100,00 %
14.04.2016 11:19 10,4 C 80 % 1009,9 hPa 0,0 l/m 7,8 km/h (2 Bft) SW 232 0 min 0,000 mm 0,6 UV-I 122 W/m 7,1 C 9,4 C 11,3 km/h (2 Bft) 95,65 %
14.04.2016 11:20 10,3 C 81 % 1009,9 hPa 0,0 l/m 16,4 km/h (3 Bft) W-SW 239 0 min 0,000 mm 0,6 UV-I 120 W/m 7,2 C 4,9 C 20,9 km/h (4 Bft) 100,00 %
14.04.2016 11:21 10,3 C 80 % 1009,8 hPa 0,0 l/m 11,2 km/h (2 Bft) W-SW 254 0 min 0,000 mm 0,6 UV-I 114 W/m 7,0 C 7,3 C 20,9 km/h (4 Bft) 92,86 %
14.04.2016 11:22 10,3 C 80 % 1009,8 hPa 0,0 l/m 16,0 km/h (3 Bft) W 269 0 min 0,000 mm 0,6 UV-I 103 W/m 7,0 C 5,1 C 20,9 km/h (4 Bft) 100,00 %
14.04.2016 11:23 10,3 C 80 % 1009,8 hPa 0,0 l/m 11,8 km/h (2 Bft) W-SW 250 0 min 0,000 mm 0,5 UV-I 94 W/m 7,0 C 7,0 C 16,1 km/h (3 Bft) 96,55 %
14.04.2016 11:24 10,3 C 80 % 1009,8 hPa 0,0 l/m 13,2 km/h (3 Bft) W 261 0 min 0,000 mm 0,2 UV-I 84 W/m 7,0 C 6,3 C 16,1 km/h (3 Bft) 100,00 %
14.04.2016 11:25 10,3 C 80 % 1009,8 hPa 0,0 l/m 12,2 km/h (2 Bft) W-NW 298 0 min 0,000 mm 0,0 UV-I 73 W/m 7,0 C 6,8 C 19,3 km/h (3 Bft) 92,31 %
14.04.2016 11:26 10,3 C 80 % 1009,8 hPa 0,0 l/m 13,8 km/h (3 Bft) W 281 0 min 0,000 mm 0,0 UV-I 62 W/m 7,0 C 6,0 C 17,7 km/h (3 Bft) 96,30 %
14.04.2016 11:27 10,3 C 80 % 1009,8 hPa 0,0 l/m 15,1 km/h (3 Bft) W 277 0 min 0,000 mm 0,0 UV-I 52 W/m 7,0 C 5,5 C 22,5 km/h (4 Bft) 100,00 %
14.04.2016 11:28 10,2 C 80 % 1009,8 hPa 0,0 l/m 9,2 km/h (2 Bft) W 281 0 min 0,000 mm 0,0 UV-I 44 W/m 6,9 C 8,3 C 16,1 km/h (3 Bft) 95,83 %
14.04.2016 11:29 10,2 C 79 % 1009,8 hPa 0,0 l/m 8,9 km/h (2 Bft) W-NW 292 0 min 0,000 mm 0,0 UV-I 39 W/m 6,7 C 8,5 C 17,7 km/h (3 Bft) 95,83 %
14.04.2016 11:30 10,2 C 80 % 1009,8 hPa 0,0 l/m 9,6 km/h (2 Bft) W 271 0 min 0,000 mm 0,0 UV-I 33 W/m 6,9 C 8,0 C 14,5 km/h (3 Bft) 95,65 %
14.04.2016 11:31 10,2 C 80 % 1009,8 hPa 0,0 l/m 12,9 km/h (3 Bft) W 269 0 min 0,000 mm 0,0 UV-I 32 W/m 6,9 C 6,3 C 20,9 km/h (4 Bft) 95,83 %
14.04.2016 11:32 10,2 C 80 % 1009,9 hPa 0,0 l/m 9,8 km/h (2 Bft) W 264 0 min 0,000 mm 0,0 UV-I 43 W/m 6,9 C 7,9 C 16,1 km/h (3 Bft) 91,30 %
14.04.2016 11:33 10,2 C 80 % 1009,9 hPa 0,0 l/m 13,5 km/h (3 Bft) W-NW 300 0 min 0,000 mm 0,0 UV-I 68 W/m 6,9 C 6,0 C 20,9 km/h (4 Bft) 95,83 %
14.04.2016 11:34 10,2 C 81 % 1009,9 hPa 0,0 l/m 15,4 km/h (3 Bft) W-SW 256 0 min 0,000 mm 0,5 UV-I 97 W/m 7,1 C 5,2 C 19,3 km/h (3 Bft) 92,86 %
14.04.2016 11:35 10,2 C 80 % 1009,9 hPa 0,0 l/m 7,9 km/h (2 Bft) W-SW 254 0 min 0,000 mm 0,6 UV-I 115 W/m 6,9 C 9,1 C 12,9 km/h (3 Bft) 100,00 %
14.04.2016 11:36 10,2 C 81 % 1009,9 hPa 0,0 l/m 10,1 km/h (2 Bft) W 279 0 min 0,000 mm 0,6 UV-I 121 W/m 7,1 C 7,8 C 14,5 km/h (3 Bft) 96,15 %
14.04.2016 11:37 10,2 C 81 % 1009,9 hPa 0,0 l/m 10,4 km/h (2 Bft) SW 226 0 min 0,000 mm 0,6 UV-I 125 W/m 7,1 C 7,6 C 14,5 km/h (3 Bft) 96,67 %
14.04.2016 11:38 10,2 C 81 % 1009,9 hPa 0,0 l/m 13,8 km/h (3 Bft) W-SW 254 0 min 0,000 mm 0,8 UV-I 145 W/m 7,1 C 5,9 C 19,3 km/h (3 Bft) 90,91 %
14.04.2016 11:39 10,2 C 81 % 1010,0 hPa 0,0 l/m 9,8 km/h (2 Bft) W-NW 282 0 min 0,000 mm 1,0 UV-I 186 W/m 7,1 C 7,9 C 17,7 km/h (3 Bft) 96,30 %
14.04.2016 11:40 10,3 C 81 % 1010,0 hPa 0,0 l/m 11,7 km/h (2 Bft) W-SW 248 0 min 0,000 mm 1,5 UV-I 263 W/m 7,2 C 7,0 C 17,7 km/h (3 Bft) 96,55 %
14.04.2016 11:41 10,3 C 80 % 1010,0 hPa 0,0 l/m 18,3 km/h (3 Bft) W 259 0 min 0,000 mm 1,8 UV-I 329 W/m 7,0 C 4,2 C 30,6 km/h (5 Bft) 91,67 %
14.04.2016 11:42 10,3 C 80 % 1010,0 hPa 0,0 l/m 13,8 km/h (3 Bft) W-SW 241 0 min 0,000 mm 2,1 UV-I 367 W/m 7,0 C 6,0 C 17,7 km/h (3 Bft) 96,55 %
14.04.2016 11:43 10,4 C 80 % 1010,0 hPa 0,0 l/m 15,0 km/h (3 Bft) W 268 0 min 0,000 mm 2,3 UV-I 401 W/m 7,1 C 5,6 C 19,3 km/h (3 Bft) 96,30 %
14.04.2016 11:44 10,6 C 80 % 1010,0 hPa 0,0 l/m 12,5 km/h (3 Bft) W-SW 252 1 min 0,000 mm 2,7 UV-I 446 W/m 7,3 C 7,0 C 16,1 km/h (3 Bft) 95,65 %
14.04.2016 11:45 10,7 C 80 % 1010,0 hPa 0,0 l/m 15,7 km/h (3 Bft) W-SW 250 1 min 0,000 mm 2,9 UV-I 446 W/m 7,4 C 5,7 C 19,3 km/h (3 Bft) 100,00 %
14.04.2016 11:46 10,8 C 80 % 1009,9 hPa 0,0 l/m 17,6 km/h (3 Bft) W-SW 249 1 min 0,000 mm 2,8 UV-I 446 W/m 7,5 C 5,1 C 25,7 km/h (4 Bft) 100,00 %
14.04.2016 11:47 10,9 C 79 % 1009,9 hPa 0,0 l/m 19,1 km/h (3 Bft) W 265 1 min 0,000 mm 3,2 UV-I 607 W/m 7,4 C 4,7 C 27,4 km/h (4 Bft) 100,00 %
14.04.2016 11:48 11,0 C 78 % 1009,9 hPa 0,0 l/m 13,9 km/h (3 Bft) W 275 1 min 0,000 mm 3,0 UV-I 675 W/m 7,3 C 6,8 C 16,1 km/h (3 Bft) 100,00 %
14.04.2016 11:49 11,1 C 79 % 1010,0 hPa 0,0 l/m 16,2 km/h (3 Bft) W 261 1 min 0,000 mm 2,6 UV-I 647 W/m 7,6 C 6,0 C 25,7 km/h (4 Bft) 100,00 %
14.04.2016 11:50 11,2 C 78 % 1009,9 hPa 0,0 l/m 15,7 km/h (3 Bft) W-NW 297 1 min 0,000 mm 2,3 UV-I 457 W/m 7,5 C 6,3 C 19,3 km/h (3 Bft) 100,00 %
14.04.2016 11:51 11,2 C 78 % 1009,9 hPa 0,0 l/m 16,3 km/h (3 Bft) SW 233 1 min 0,000 mm 2,1 UV-I 555 W/m 7,5 C 6,1 C 25,7 km/h (4 Bft) 100,00 %
14.04.2016 11:52 11,2 C 77 % 1010,0 hPa 0,0 l/m 13,8 km/h (3 Bft) W 267 1 min 0,000 mm 1,6 UV-I 417 W/m 7,3 C 7,1 C 22,5 km/h (4 Bft) 96,30 %
14.04.2016 11:53 11,3 C 77 % 1009,9 hPa 0,0 l/m 9,7 km/h (2 Bft) W 270 0 min 0,000 mm 1,6 UV-I 321 W/m 7,4 C 9,2 C 12,9 km/h (3 Bft) 100,00 %
14.04.2016 11:54 11,3 C 78 % 1010,0 hPa 0,0 l/m 13,8 km/h (3 Bft) W-NW 283 0 min 0,000 mm 1,8 UV-I 361 W/m 7,6 C 7,2 C 16,1 km/h (3 Bft) 100,00 %
14.04.2016 11:55 11,3 C 77 % 1010,0 hPa 0,0 l/m 17,9 km/h (3 Bft) W 270 0 min 0,000 mm 1,8 UV-I 361 W/m 7,4 C 5,6 C 22,5 km/h (4 Bft) 92,86 %
14.04.2016 11:56 11,3 C 78 % 1010,0 hPa 0,0 l/m 12,7 km/h (3 Bft) W 259 0 min 0,000 mm 1,6 UV-I 345 W/m 7,6 C 7,7 C 17,7 km/h (3 Bft) 100,00 %
14.04.2016 11:57 11,3 C 78 % 1010,0 hPa 0,0 l/m 15,2 km/h (3 Bft) W-SW 246 0 min 0,000 mm 1,8 UV-I 367 W/m 7,6 C 6,6 C 22,5 km/h (4 Bft) 100,00 %
14.04.2016 11:58 11,3 C 78 % 1010,0 hPa 0,0 l/m 15,6 km/h (3 Bft) W-SW 240 0 min 0,000 mm 1,8 UV-I 385 W/m 7,6 C 6,5 C 20,9 km/h (4 Bft) 100,00 %
14.04.2016 11:59 11,3 C 78 % 1010,0 hPa 0,0 l/m 17,8 km/h (3 Bft) S-SW 212 0 min 0,000 mm 1,9 UV-I 404 W/m 7,6 C 5,7 C 24,1 km/h (4 Bft) 100,00 %
14.04.2016 12:00 11,3 C 77 % 1010,0 hPa 0,0 l/m 24,8 km/h (4 Bft) W-NW 292 0 min 0,000 mm 1,9 UV-I 400 W/m 7,4 C 3,6 C 38,6 km/h (5 Bft) 100,00 %
14.04.2016 12:02 11,3 C 77 % 1010,0 hPa 0,0 l/m 21,9 km/h (4 Bft) W-SW 256 0 min 0,152 mm 2,1 UV-I 408 W/m 7,4 C 4,4 C 35,4 km/h (5 Bft) 100,00 %
14.04.2016 12:03 11,3 C 77 % 1010,0 hPa 0,0 l/m 22,3 km/h (4 Bft) W-NW 290 0 min 0,000 mm 2,0 UV-I 394 W/m 7,4 C 4,3 C 29,0 km/h (5 Bft) 100,00 %
14.04.2016 12:04 11,4 C 77 % 1010,1 hPa 0,0 l/m 23,7 km/h (4 Bft) SW 234 0 min 0,000 mm 1,8 UV-I 345 W/m 7,5 C 4,1 C 33,8 km/h (5 Bft) 93,33 %
14.04.2016 12:05 11,3 C 76 % 1010,2 hPa 0,0 l/m 18,2 km/h (3 Bft) W-NW 286 0 min 0,000 mm 1,7 UV-I 332 W/m 7,2 C 5,5 C 24,1 km/h (4 Bft) 100,00 %
14.04.2016 12:06 11,3 C 76 % 1010,1 hPa 0,0 l/m 20,3 km/h (4 Bft) W 259 0 min 0,000 mm 1,8 UV-I 345 W/m 7,2 C 4,9 C 33,8 km/h (5 Bft) 100,00 %
14.04.2016 12:07 11,3 C 76 % 1010,0 hPa 0,0 l/m 20,2 km/h (4 Bft) W-SW 248 0 min 0,000 mm 1,8 UV-I 352 W/m 7,2 C 4,9 C 27,4 km/h (4 Bft) 96,30 %
14.04.2016 12:08 11,3 C 77 % 1010,1 hPa 0,0 l/m 16,0 km/h (3 Bft) W 264 0 min 0,000 mm 1,9 UV-I 360 W/m 7,4 C 6,3 C 20,9 km/h (4 Bft) 100,00 %
14.04.2016 12:09 11,3 C 76 % 1010,1 hPa 0,0 l/m 12,9 km/h (3 Bft) W 259 0 min 0,000 mm 1,9 UV-I 384 W/m 7,2 C 7,6 C 16,1 km/h (3 Bft) 100,00 %
14.04.2016 12:10 11,4 C 76 % 1010,1 hPa 0,0 l/m 20,3 km/h (4 Bft) SW 231 0 min 0,000 mm 2,1 UV-I 405 W/m 7,3 C 5,0 C 30,6 km/h (5 Bft) 100,00 %
14.04.2016 12:11 11,4 C 76 % 1010,1 hPa 0,0 l/m 18,4 km/h (3 Bft) NW 304 0 min 0,000 mm 2,0 UV-I 394 W/m 7,3 C 5,6 C 22,5 km/h (4 Bft) 100,00 %
14.04.2016 12:12 11,4 C 76 % 1010,1 hPa 0,0 l/m 17,6 km/h (3 Bft) W-SW 250 0 min 0,000 mm 1,8 UV-I 355 W/m 7,3 C 5,9 C 25,7 km/h (4 Bft) 100,00 %
14.04.2016 12:13 11,4 C 76 % 1010,2 hPa 0,0 l/m 22,7 km/h (4 Bft) W-SW 248 0 min 0,000 mm 1,5 UV-I 288 W/m 7,3 C 4,3 C 27,4 km/h (4 Bft) 100,00 %
14.04.2016 12:14 11,4 C 76 % 1010,1 hPa 0,0 l/m 20,1 km/h (4 Bft) W-SW 256 0 min 0,000 mm 1,3 UV-I 248 W/m 7,3 C 5,1 C 27,4 km/h (4 Bft) 100,00 %
14.04.2016 12:15 11,3 C 77 % 1010,2 hPa 0,0 l/m 23,5 km/h (4 Bft) W-SW 248 0 min 0,000 mm 1,3 UV-I 250 W/m 7,4 C 4,0 C 32,2 km/h (5 Bft) 100,00 %
14.04.2016 12:16 11,3 C 75 % 1010,2 hPa 0,0 l/m 17,8 km/h (3 Bft) W-SW 252 0 min 0,000 mm 1,5 UV-I 286 W/m 7,0 C 5,7 C 24,1 km/h (4 Bft) 100,00 %
14.04.2016 12:17 11,3 C 75 % 1010,1 hPa 0,0 l/m 15,8 km/h (3 Bft) W-SW 244 0 min 0,000 mm 1,6 UV-I 310 W/m 7,0 C 6,4 C 22,5 km/h (4 Bft) 100,00 %
14.04.2016 12:18 11,2 C 75 % 1010,1 hPa 0,0 l/m 18,0 km/h (3 Bft) W 264 0 min 0,000 mm 1,6 UV-I 296 W/m 6,9 C 5,5 C 20,9 km/h (4 Bft) 100,00 %
14.04.2016 12:19 11,2 C 76 % 1010,2 hPa 0,0 l/m 17,5 km/h (3 Bft) W-SW 256 0 min 0,000 mm 1,5 UV-I 286 W/m 7,1 C 5,7 C 22,5 km/h (4 Bft) 100,00 %
14.04.2016 12:20 11,2 C 76 % 1010,2 hPa 0,0 l/m 14,7 km/h (3 Bft) W-SW 257 0 min 0,000 mm 1,5 UV-I 288 W/m 7,1 C 6,7 C 17,7 km/h (3 Bft) 100,00 %
14.04.2016 12:21 11,2 C 76 % 1010,1 hPa 0,0 l/m 12,0 km/h (2 Bft) W-SW 240 0 min 0,000 mm 1,4 UV-I 265 W/m 7,1 C 7,9 C 16,1 km/h (3 Bft) 100,00 %
14.04.2016 12:22 11,3 C 76 % 1010,2 hPa 0,0 l/m 17,3 km/h (3 Bft) W-SW 238 0 min 0,000 mm 1,3 UV-I 255 W/m 7,2 C 5,9 C 29,0 km/h (5 Bft) 100,00 %
14.04.2016 12:23 11,3 C 76 % 1010,2 hPa 0,0 l/m 18,8 km/h (3 Bft) W 261 0 min 0,000 mm 1,4 UV-I 272 W/m 7,2 C 5,3 C 27,4 km/h (4 Bft) 100,00 %
14.04.2016 12:24 11,3 C 76 % 1010,3 hPa 0,0 l/m 20,7 km/h (4 Bft) W 261 0 min 0,000 mm 1,6 UV-I 308 W/m 7,2 C 4,8 C 25,7 km/h (4 Bft) 100,00 %
14.04.2016 12:25 11,2 C 76 % 1010,2 hPa 0,0 l/m 19,2 km/h (3 Bft) W-SW 246 0 min 0,000 mm 1,5 UV-I 293 W/m 7,1 C 5,1 C 24,1 km/h (4 Bft) 100,00 %
14.04.2016 12:26 11,2 C 76 % 1010,2 hPa 0,0 l/m 16,9 km/h (3 Bft) W 273 0 min 0,000 mm 1,5 UV-I 279 W/m 7,1 C 5,9 C 24,1 km/h (4 Bft) 100,00 %
14.04.2016 12:27 11,3 C 77 % 1010,3 hPa 0,0 l/m 20,5 km/h (4 Bft) W-NW 297 0 min 0,000 mm 1,6 UV-I 296 W/m 7,4 C 4,8 C 29,0 km/h (5 Bft) 100,00 %
14.04.2016 12:28 11,3 C 77 % 1010,3 hPa 0,0 l/m 16,4 km/h (3 Bft) SW 217 0 min 0,000 mm 1,7 UV-I 306 W/m 7,4 C 6,2 C 22,5 km/h (4 Bft) 100,00 %
14.04.2016 12:29 11,3 C 76 % 1010,3 hPa 0,0 l/m 22,2 km/h (4 Bft) W-SW 250 0 min 0,000 mm 1,6 UV-I 298 W/m 7,2 C 4,3 C 29,0 km/h (5 Bft) 96,55 %
14.04.2016 12:30 11,3 C 75 % 1010,3 hPa 0,0 l/m 20,0 km/h (4 Bft) W 273 0 min 0,000 mm 1,6 UV-I 284 W/m 7,0 C 5,0 C 25,7 km/h (4 Bft) 100,00 %
14.04.2016 12:31 11,2 C 75 % 1010,2 hPa 0,0 l/m 17,1 km/h (3 Bft) W-SW 257 0 min 0,000 mm 1,5 UV-I 269 W/m 6,9 C 5,8 C 25,7 km/h (4 Bft) 96,15 %
14.04.2016 12:32 11,2 C 74 % 1010,3 hPa 0,0 l/m 15,1 km/h (3 Bft) W 269 0 min 0,000 mm 1,4 UV-I 262 W/m 6,7 C 6,5 C 22,5 km/h (4 Bft) 100,00 %
14.04.2016 12:33 11,2 C 76 % 1010,3 hPa 0,0 l/m 15,2 km/h (3 Bft) W 263 0 min 0,000 mm 1,5 UV-I 264 W/m 7,1 C 6,5 C 20,9 km/h (4 Bft) 100,00 %
14.04.2016 12:34 11,2 C 76 % 1010,3 hPa 0,0 l/m 22,1 km/h (4 Bft) W-SW 242 0 min 0,000 mm 1,5 UV-I 268 W/m 7,1 C 4,2 C 30,6 km/h (5 Bft) 100,00 %
14.04.2016 12:35 11,2 C 76 % 1010,3 hPa 0,0 l/m 20,2 km/h (4 Bft) W-SW 252 0 min 0,000 mm 1,5 UV-I 271 W/m 7,1 C 4,8 C 29,0 km/h (5 Bft) 100,00 %
14.04.2016 12:36 11,2 C 76 % 1010,3 hPa 0,0 l/m 16,6 km/h (3 Bft) W 259 0 min 0,000 mm 1,5 UV-I 279 W/m 7,1 C 6,0 C 25,7 km/h (4 Bft) 100,00 %
14.04.2016 12:37 11,2 C 76 % 1010,4 hPa 0,0 l/m 14,1 km/h (3 Bft) W 263 0 min 0,000 mm 1,5 UV-I 286 W/m 7,1 C 7,0 C 19,3 km/h (3 Bft) 96,15 %
14.04.2016 12:38 11,2 C 76 % 1010,3 hPa 0,0 l/m 20,9 km/h (4 Bft) W-SW 254 0 min 0,000 mm 1,6 UV-I 299 W/m 7,1 C 4,6 C 29,0 km/h (5 Bft) 100,00 %
14.04.2016 12:39 11,2 C 75 % 1010,3 hPa 0,0 l/m 20,0 km/h (4 Bft) W 269 0 min 0,000 mm 1,8 UV-I 327 W/m 6,9 C 4,8 C 30,6 km/h (5 Bft) 100,00 %
14.04.2016 12:40 11,2 C 76 % 1010,4 hPa 0,0 l/m 20,6 km/h (4 Bft) W 269 0 min 0,000 mm 1,8 UV-I 339 W/m 7,1 C 4,7 C 24,1 km/h (4 Bft) 100,00 %
14.04.2016 12:41 11,2 C 76 % 1010,4 hPa 0,0 l/m 17,7 km/h (3 Bft) W-SW 250 0 min 0,000 mm 1,8 UV-I 346 W/m 7,1 C 5,6 C 22,5 km/h (4 Bft) 100,00 %
14.04.2016 12:42 11,2 C 77 % 1010,4 hPa 0,0 l/m 15,0 km/h (3 Bft) W-SW 246 0 min 0,000 mm 1,9 UV-I 350 W/m 7,3 C 6,6 C 27,4 km/h (4 Bft) 100,00 %
14.04.2016 12:43 11,2 C 76 % 1010,4 hPa 0,0 l/m 23,1 km/h (4 Bft) W-SW 257 0 min 0,000 mm 1,9 UV-I 357 W/m 7,1 C 3,9 C 30,6 km/h (5 Bft) 95,65 %
14.04.2016 12:44 11,2 C 75 % 1010,4 hPa 0,0 l/m 24,5 km/h (4 Bft) W 275 0 min 0,000 mm 1,9 UV-I 372 W/m 6,9 C 3,6 C 33,8 km/h (5 Bft) 100,00 %
14.04.2016 12:45 11,2 C 75 % 1010,4 hPa 0,0 l/m 18,4 km/h (3 Bft) W-SW 257 0 min 0,000 mm 2,0 UV-I 388 W/m 6,9 C 5,4 C 29,0 km/h (5 Bft) 100,00 %
14.04.2016 12:46 11,2 C 76 % 1010,4 hPa 0,0 l/m 15,3 km/h (3 Bft) W-SW 248 0 min 0,000 mm 2,0 UV-I 407 W/m 7,1 C 6,5 C 20,9 km/h (4 Bft) 100,00 %
14.04.2016 12:47 11,3 C 76 % 1010,4 hPa 0,0 l/m 20,0 km/h (4 Bft) W-NW 283 0 min 0,000 mm 1,9 UV-I 379 W/m 7,2 C 5,0 C 25,7 km/h (4 Bft) 100,00 %
14.04.2016 12:48 11,3 C 76 % 1010,3 hPa 0,0 l/m 15,4 km/h (3 Bft) W-SW 248 0 min 0,000 mm 1,7 UV-I 347 W/m 7,2 C 6,6 C 20,9 km/h (4 Bft) 100,00 %
14.04.2016 12:49 11,3 C 76 % 1010,4 hPa 0,0 l/m 14,5 km/h (3 Bft) W 266 0 min 0,000 mm 1,7 UV-I 327 W/m 7,2 C 6,9 C 19,3 km/h (3 Bft) 100,00 %
14.04.2016 12:50 11,3 C 77 % 1010,4 hPa 0,0 l/m 20,2 km/h (4 Bft) W-SW 249 0 min 0,000 mm 1,6 UV-I 303 W/m 7,4 C 4,9 C 27,4 km/h (4 Bft) 100,00 %
14.04.2016 12:51 11,3 C 75 % 1010,3 hPa 0,0 l/m 21,2 km/h (4 Bft) W-NW 294 0 min 0,000 mm 1,5 UV-I 290 W/m 7,0 C 4,6 C 29,0 km/h (5 Bft) 100,00 %
14.04.2016 12:52 11,3 C 75 % 1010,4 hPa 0,0 l/m 23,0 km/h (4 Bft) W-SW 254 0 min 0,000 mm 1,5 UV-I 285 W/m 7,0 C 4,1 C 32,2 km/h (5 Bft) 100,00 %
14.04.2016 12:53 11,3 C 75 % 1010,4 hPa 0,0 l/m 22,6 km/h (4 Bft) W-SW 251 0 min 0,000 mm 1,4 UV-I 279 W/m 7,0 C 4,2 C 27,4 km/h (4 Bft) 100,00 %
14.04.2016 12:54 11,3 C 74 % 1010,3 hPa 0,0 l/m 19,2 km/h (3 Bft) W-SW 257 0 min 0,000 mm 1,4 UV-I 272 W/m 6,8 C 5,2 C 32,2 km/h (5 Bft) 100,00 %
14.04.2016 12:55 11,3 C 75 % 1010,3 hPa 0,0 l/m 21,1 km/h (4 Bft) W-SW 257 0 min 0,000 mm 1,4 UV-I 259 W/m 7,0 C 4,6 C 27,4 km/h (4 Bft) 100,00 %
14.04.2016 12:56 11,2 C 74 % 1010,3 hPa 0,0 l/m 21,5 km/h (4 Bft) W 264 0 min 0,000 mm 1,3 UV-I 242 W/m 6,7 C 4,4 C 32,2 km/h (5 Bft) 100,00 %
14.04.2016 12:57 11,2 C 74 % 1010,4 hPa 0,0 l/m 13,9 km/h (3 Bft) W-SW 256 0 min 0,000 mm 1,2 UV-I 224 W/m 6,7 C 7,0 C 24,1 km/h (4 Bft) 100,00 %
14.04.2016 12:58 11,2 C 75 % 1010,4 hPa 0,0 l/m 11,2 km/h (2 Bft) W 260 0 min 0,000 mm 1,1 UV-I 211 W/m 6,9 C 8,3 C 16,1 km/h (3 Bft) 100,00 %
14.04.2016 12:59 11,2 C 75 % 1010,4 hPa 0,0 l/m 14,4 km/h (3 Bft) SW 224 0 min 0,000 mm 1,0 UV-I 201 W/m 6,9 C 6,8 C 24,1 km/h (4 Bft) 100,00 %
14.04.2016 13:00 11,1 C 75 % 1010,3 hPa 0,0 l/m 15,8 km/h (3 Bft) W 273 0 min 0,000 mm 1,0 UV-I 195 W/m 6,8 C 6,2 C 24,1 km/h (4 Bft) 100,00 %
14.04.2016 13:01 11,1 C 75 % 1010,3 hPa 0,0 l/m 18,3 km/h (3 Bft) W 263 0 min 0,203 mm 1,0 UV-I 190 W/m 6,8 C 5,3 C 29,0 km/h (5 Bft) 100,00 %
14.04.2016 13:02 11,1 C 75 % 1010,3 hPa 0,0 l/m 12,7 km/h (3 Bft) W-SW 245 0 min 0,000 mm 1,0 UV-I 189 W/m 6,8 C 7,5 C 19,3 km/h (3 Bft) 100,00 %
14.04.2016 13:03 11,1 C 75 % 1010,4 hPa 0,0 l/m 16,7 km/h (3 Bft) W 275 0 min 0,000 mm 1,0 UV-I 188 W/m 6,8 C 5,8 C 25,7 km/h (4 Bft) 100,00 %
14.04.2016 13:04 11,1 C 76 % 1010,4 hPa 0,0 l/m 12,6 km/h (3 Bft) W 273 0 min 0,000 mm 1,0 UV-I 188 W/m 7,0 C 7,5 C 16,1 km/h (3 Bft) 100,00 %
14.04.2016 13:05 11,1 C 76 % 1010,4 hPa 0,0 l/m 13,8 km/h (3 Bft) W-SW 250 0 min 0,000 mm 1,0 UV-I 188 W/m 7,0 C 7,0 C 24,1 km/h (4 Bft) 96,15 %
14.04.2016 13:06 11,1 C 75 % 1010,4 hPa 0,0 l/m 18,2 km/h (3 Bft) W 259 0 min 0,000 mm 1,0 UV-I 190 W/m 6,8 C 5,3 C 25,7 km/h (4 Bft) 100,00 %
14.04.2016 13:07 11,1 C 75 % 1010,4 hPa 0,0 l/m 23,5 km/h (4 Bft) W-SW 252 0 min 0,000 mm 1,1 UV-I 203 W/m 6,8 C 3,7 C 30,6 km/h (5 Bft) 92,86 %
14.04.2016 13:08 11,1 C 74 % 1010,4 hPa 0,0 l/m 20,3 km/h (4 Bft) W 263 0 min 0,000 mm 1,2 UV-I 223 W/m 6,6 C 4,6 C 25,7 km/h (4 Bft) 87,50 %
14.04.2016 13:09 11,1 C 74 % 1010,4 hPa 0,0 l/m 18,7 km/h (3 Bft) W-SW 257 0 min 0,000 mm 1,3 UV-I 246 W/m 6,6 C 5,1 C 29,0 km/h (5 Bft) 97,50 %
14.04.2016 13:10 11,2 C 75 % 1010,5 hPa 0,0 l/m 19,6 km/h (3 Bft) W 270 0 min 0,000 mm 1,4 UV-I 268 W/m 6,9 C 5,0 C 25,7 km/h (4 Bft) 100,00 %
14.04.2016 13:11 11,2 C 75 % 1010,4 hPa 0,0 l/m 20,8 km/h (4 Bft) W 269 0 min 0,000 mm 1,5 UV-I 270 W/m 6,9 C 4,6 C 25,7 km/h (4 Bft) 96,55 %
14.04.2016 13:12 11,2 C 75 % 1010,4 hPa 0,0 l/m 18,9 km/h (3 Bft) W-SW 245 0 min 0,000 mm 1,5 UV-I 282 W/m 6,9 C 5,2 C 24,1 km/h (4 Bft) 95,83 %
14.04.2016 13:13 11,2 C 75 % 1010,5 hPa 0,0 l/m 21,3 km/h (4 Bft) W-SW 254 0 min 0,000 mm 1,8 UV-I 326 W/m 6,9 C 4,4 C 29,0 km/h (5 Bft) 100,00 %
14.04.2016 13:14 11,2 C 75 % 1010,5 hPa 0,0 l/m 14,1 km/h (3 Bft) SW 225 0 min 0,000 mm 1,9 UV-I 340 W/m 6,9 C 7,0 C 25,7 km/h (4 Bft) 91,67 %
14.04.2016 13:15 11,3 C 75 % 1010,5 hPa 0,0 l/m 15,0 km/h (3 Bft) SW 229 0 min 0,000 mm 1,9 UV-I 351 W/m 7,0 C 6,7 C 22,5 km/h (4 Bft) 100,00 %
14.04.2016 13:16 11,3 C 73 % 1010,5 hPa 0,0 l/m 17,8 km/h (3 Bft) SW 234 0 min 0,000 mm 2,1 UV-I 417 W/m 6,6 C 5,7 C 20,9 km/h (4 Bft) 97,56 %
14.04.2016 13:17 11,3 C 74 % 1010,5 hPa 0,0 l/m 16,9 km/h (3 Bft) W 262 0 min 0,000 mm 2,1 UV-I 413 W/m 6,8 C 6,0 C 24,1 km/h (4 Bft) 100,00 %
14.04.2016 13:18 11,4 C 74 % 1010,5 hPa 0,0 l/m 16,6 km/h (3 Bft) W-SW 246 0 min 0,000 mm 2,2 UV-I 412 W/m 6,9 C 6,2 C 20,9 km/h (4 Bft) 96,67 %
14.04.2016 13:19 11,4 C 74 % 1010,5 hPa 0,0 l/m 10,2 km/h (2 Bft) W-SW 252 0 min 0,000 mm 2,2 UV-I 410 W/m 6,9 C 9,0 C 16,1 km/h (3 Bft) 91,30 %
14.04.2016 13:20 11,6 C 75 % 1010,5 hPa 0,0 l/m 14,9 km/h (3 Bft) SW 228 0 min 0,000 mm 2,2 UV-I 403 W/m 7,3 C 7,1 C 22,5 km/h (4 Bft) 100,00 %
14.04.2016 13:21 11,7 C 75 % 1010,5 hPa 0,0 l/m 13,5 km/h (3 Bft) W-NW 282 0 min 0,000 mm 2,1 UV-I 389 W/m 7,4 C 7,8 C 25,7 km/h (4 Bft) 95,65 %
14.04.2016 13:22 11,7 C 75 % 1010,6 hPa 0,0 l/m 12,6 km/h (3 Bft) W-SW 240 0 min 0,000 mm 2,0 UV-I 361 W/m 7,4 C 8,2 C 22,5 km/h (4 Bft) 100,00 %
14.04.2016 13:23 11,8 C 75 % 1010,5 hPa 0,0 l/m 16,3 km/h (3 Bft) W 275 0 min 0,000 mm 1,9 UV-I 348 W/m 7,5 C 6,8 C 20,9 km/h (4 Bft) 96,15 %
14.04.2016 13:24 11,8 C 75 % 1010,6 hPa 0,0 l/m 18,0 km/h (3 Bft) W-SW 248 0 min 0,000 mm 1,8 UV-I 343 W/m 7,5 C 6,2 C 24,1 km/h (4 Bft) 100,00 %
14.04.2016 13:25 11,8 C 74 % 1010,6 hPa 0,0 l/m 18,6 km/h (3 Bft) W 260 0 min 0,000 mm 1,8 UV-I 377 W/m 7,3 C 6,0 C 29,0 km/h (5 Bft) 92,31 %
14.04.2016 13:26 11,8 C 73 % 1010,5 hPa 0,0 l/m 22,4 km/h (4 Bft) W-NW 286 0 min 0,000 mm 1,8 UV-I 390 W/m 7,1 C 4,9 C 29,0 km/h (5 Bft) 100,00 %
14.04.2016 13:27 11,7 C 71 % 1010,5 hPa 0,0 l/m 22,1 km/h (4 Bft) W 271 0 min 0,000 mm 1,9 UV-I 384 W/m 6,6 C 4,9 C 30,6 km/h (5 Bft) 97,14 %
14.04.2016 13:28 11,7 C 72 % 1010,6 hPa 0,0 l/m 19,7 km/h (3 Bft) W 267 0 min 0,000 mm 2,0 UV-I 387 W/m 6,8 C 5,6 C 25,7 km/h (4 Bft) 100,00 %
14.04.2016 13:29 11,7 C 72 % 1010,5 hPa 0,0 l/m 10,3 km/h (2 Bft) NW 323 0 min 0,000 mm 2,1 UV-I 390 W/m 6,8 C 9,3 C 17,7 km/h (3 Bft) 95,83 %
14.04.2016 13:30 11,6 C 72 % 1010,5 hPa 0,0 l/m 14,0 km/h (3 Bft) W 268 0 min 0,000 mm 2,2 UV-I 423 W/m 6,7 C 7,5 C 22,5 km/h (4 Bft) 96,55 %
14.04.2016 13:31 11,6 C 72 % 1010,5 hPa 0,0 l/m 14,2 km/h (3 Bft) W-SW 250 1 min 0,000 mm 2,4 UV-I 491 W/m 6,7 C 7,4 C 22,5 km/h (4 Bft) 100,00 %
14.04.2016 13:32 11,6 C 74 % 1010,5 hPa 0,0 l/m 22,3 km/h (4 Bft) W-SW 253 1 min 0,000 mm 2,7 UV-I 540 W/m 7,1 C 4,7 C 30,6 km/h (5 Bft) 95,65 %
14.04.2016 13:33 11,7 C 72 % 1010,5 hPa 0,0 l/m 20,2 km/h (4 Bft) W 262 1 min 0,000 mm 2,7 UV-I 545 W/m 6,8 C 5,4 C 27,4 km/h (4 Bft) 100,00 %
14.04.2016 13:34 11,7 C 72 % 1010,4 hPa 0,0 l/m 15,6 km/h (3 Bft) W 263 1 min 0,000 mm 2,6 UV-I 501 W/m 6,8 C 7,0 C 22,5 km/h (4 Bft) 96,15 %
14.04.2016 13:35 11,7 C 73 % 1010,5 hPa 0,0 l/m 14,3 km/h (3 Bft) SW 223 1 min 0,000 mm 2,6 UV-I 492 W/m 7,0 C 7,5 C 20,9 km/h (4 Bft) 100,00 %
14.04.2016 13:36 11,7 C 74 % 1010,5 hPa 0,0 l/m 10,1 km/h (2 Bft) W-SW 246 1 min 0,000 mm 2,5 UV-I 462 W/m 7,2 C 9,4 C 16,1 km/h (3 Bft) 96,55 %
14.04.2016 13:37 11,8 C 74 % 1010,4 hPa 0,0 l/m 11,9 km/h (2 Bft) W-SW 254 1 min 0,000 mm 2,4 UV-I 451 W/m 7,3 C 8,6 C 14,5 km/h (3 Bft) 94,44 %
14.04.2016 13:38 11,9 C 73 % 1010,4 hPa 0,0 l/m 11,5 km/h (2 Bft) W 259 1 min 0,000 mm 2,4 UV-I 459 W/m 7,2 C 8,9 C 16,1 km/h (3 Bft) 100,00 %
14.04.2016 13:39 11,9 C 74 % 1010,5 hPa 0,0 l/m 15,0 km/h (3 Bft) SW 227 1 min 0,000 mm 2,4 UV-I 459 W/m 7,4 C 7,4 C 17,7 km/h (3 Bft) 93,33 %
14.04.2016 13:40 12,1 C 75 % 1010,5 hPa 0,0 l/m 14,4 km/h (3 Bft) SW 232 1 min 0,000 mm 2,5 UV-I 486 W/m 7,8 C 7,9 C 22,5 km/h (4 Bft) 100,00 %
14.04.2016 13:41 12,1 C 74 % 1010,4 hPa 0,0 l/m 18,9 km/h (3 Bft) W 260 1 min 0,000 mm 2,5 UV-I 456 W/m 7,6 C 6,3 C 29,0 km/h (5 Bft) 92,59 %
14.04.2016 13:42 12,1 C 73 % 1010,5 hPa 0,0 l/m 20,7 km/h (4 Bft) W 265 1 min 0,000 mm 2,3 UV-I 439 W/m 7,4 C 5,8 C 32,2 km/h (5 Bft) 98,57 %
14.04.2016 13:43 12,1 C 72 % 1010,5 hPa 0,0 l/m 14,3 km/h (3 Bft) SW 223 1 min 0,000 mm 2,3 UV-I 445 W/m 7,2 C 8,0 C 20,9 km/h (4 Bft) 100,00 %
14.04.2016 13:44 12,1 C 73 % 1010,5 hPa 0,0 l/m 17,0 km/h (3 Bft) W-SW 249 1 min 0,000 mm 2,4 UV-I 456 W/m 7,4 C 7,0 C 22,5 km/h (4 Bft) 96,55 %
14.04.2016 13:45 12,1 C 74 % 1010,5 hPa 0,0 l/m 15,3 km/h (3 Bft) W-SW 243 1 min 0,000 mm 2,4 UV-I 457 W/m 7,6 C 7,6 C 19,3 km/h (3 Bft) 100,00 %
14.04.2016 13:46 12,1 C 74 % 1010,5 hPa 0,0 l/m 13,2 km/h (3 Bft) W-SW 246 1 min 0,000 mm 2,4 UV-I 461 W/m 7,6 C 8,4 C 17,7 km/h (3 Bft) 100,00 %
14.04.2016 13:47 12,2 C 75 % 1010,5 hPa 0,0 l/m 19,0 km/h (3 Bft) SW 235 1 min 0,000 mm 2,3 UV-I 447 W/m 7,9 C 6,4 C 25,7 km/h (4 Bft) 100,00 %
14.04.2016 13:48 12,3 C 73 % 1010,6 hPa 0,0 l/m 18,4 km/h (3 Bft) W 273 1 min 0,000 mm 2,3 UV-I 448 W/m 7,6 C 6,7 C 25,7 km/h (4 Bft) 91,67 %
14.04.2016 13:49 12,3 C 72 % 1010,6 hPa 0,0 l/m 15,2 km/h (3 Bft) W-NW 289 1 min 0,000 mm 2,2 UV-I 437 W/m 7,4 C 7,8 C 25,7 km/h (4 Bft) 100,00 %
14.04.2016 13:50 12,3 C 71 % 1010,6 hPa 0,0 l/m 17,7 km/h (3 Bft) SW 230 1 min 0,000 mm 2,2 UV-I 436 W/m 7,2 C 7,0 C 22,5 km/h (4 Bft) 96,30 %
14.04.2016 13:51 12,3 C 71 % 1010,6 hPa 0,0 l/m 19,7 km/h (3 Bft) W-SW 252 1 min 0,000 mm 2,1 UV-I 433 W/m 7,2 C 6,3 C 27,4 km/h (4 Bft) 100,00 %
14.04.2016 13:52 12,3 C 70 % 1010,6 hPa 0,0 l/m 16,4 km/h (3 Bft) W-SW 250 0 min 0,000 mm 2,0 UV-I 388 W/m 7,0 C 7,4 C 25,7 km/h (4 Bft) 96,67 %
14.04.2016 13:53 12,3 C 71 % 1010,7 hPa 0,0 l/m 18,2 km/h (3 Bft) W 271 0 min 0,000 mm 2,0 UV-I 371 W/m 7,2 C 6,8 C 25,7 km/h (4 Bft) 100,00 %
14.04.2016 13:54 12,3 C 70 % 1010,7 hPa 0,0 l/m 18,4 km/h (3 Bft) W 276 0 min 0,000 mm 2,1 UV-I 371 W/m 7,0 C 6,7 C 25,7 km/h (4 Bft) 97,22 %
14.04.2016 13:55 12,3 C 71 % 1010,7 hPa 0,0 l/m 19,2 km/h (3 Bft) S-SW 209 0 min 0,000 mm 2,0 UV-I 354 W/m 7,2 C 6,5 C 25,7 km/h (4 Bft) 100,00 %
14.04.2016 13:56 12,3 C 67 % 1010,7 hPa 0,0 l/m 18,4 km/h (3 Bft) W-NW 298 0 min 0,000 mm 2,0 UV-I 351 W/m 6,4 C 6,7 C 22,5 km/h (4 Bft) 100,00 %
14.04.2016 13:57 12,2 C 68 % 1010,6 hPa 0,0 l/m 13,2 km/h (3 Bft) W-SW 257 0 min 0,000 mm 2,1 UV-I 372 W/m 6,5 C 8,5 C 19,3 km/h (3 Bft) 100,00 %
14.04.2016 13:58 12,2 C 68 % 1010,6 hPa 0,0 l/m 13,8 km/h (3 Bft) W-SW 238 0 min 0,000 mm 2,1 UV-I 382 W/m 6,5 C 8,3 C 19,3 km/h (3 Bft) 100,00 %
14.04.2016 13:59 12,2 C 68 % 1010,7 hPa 0,0 l/m 11,7 km/h (2 Bft) W 276 1 min 0,000 mm 2,3 UV-I 437 W/m 6,5 C 9,2 C 22,5 km/h (4 Bft) 100,00 %
14.04.2016 14:00 12,2 C 69 % 1010,7 hPa 0,0 l/m 11,8 km/h (2 Bft) W-SW 240 1 min 0,000 mm 2,5 UV-I 463 W/m 6,7 C 9,1 C 20,9 km/h (4 Bft) 100,00 %
14.04.2016 14:01 12,2 C 68 % 1010,7 hPa 0,0 l/m 20,7 km/h (4 Bft) W 274 1 min 0,229 mm 2,4 UV-I 454 W/m 6,5 C 5,9 C 29,0 km/h (5 Bft) 100,00 %
14.04.2016 14:02 12,2 C 68 % 1010,7 hPa 0,0 l/m 13,6 km/h (3 Bft) N-NO 13 1 min 0,000 mm 2,4 UV-I 454 W/m 6,5 C 8,4 C 19,3 km/h (3 Bft) 100,00 %
14.04.2016 14:03 12,2 C 68 % 1010,6 hPa 0,0 l/m 7,3 km/h (2 Bft) W-SW 251 1 min 0,000 mm 2,2 UV-I 437 W/m 6,5 C 11,6 C 17,7 km/h (3 Bft) 100,00 %
14.04.2016 14:04 12,2 C 70 % 1010,6 hPa 0,0 l/m 16,5 km/h (3 Bft) W 275 0 min 0,000 mm 2,1 UV-I 416 W/m 6,9 C 7,3 C 22,5 km/h (4 Bft) 96,15 %
14.04.2016 14:05 12,2 C 70 % 1010,7 hPa 0,0 l/m 16,3 km/h (3 Bft) W-SW 243 0 min 0,000 mm 1,9 UV-I 386 W/m 6,9 C 7,3 C 24,1 km/h (4 Bft) 100,00 %
14.04.2016 14:06 12,2 C 69 % 1010,7 hPa 0,0 l/m 18,5 km/h (3 Bft) W 269 0 min 0,000 mm 2,0 UV-I 395 W/m 6,7 C 6,6 C 29,0 km/h (5 Bft) 100,00 %
14.04.2016 14:07 12,2 C 70 % 1010,6 hPa 0,0 l/m 26,3 km/h (4 Bft) W-SW 238 1 min 0,000 mm 2,3 UV-I 450 W/m 6,9 C 4,5 C 32,2 km/h (5 Bft) 100,00 %
14.04.2016 14:08 12,3 C 69 % 1010,7 hPa 0,0 l/m 22,0 km/h (4 Bft) W 270 1 min 0,000 mm 2,4 UV-I 510 W/m 6,8 C 5,7 C 27,4 km/h (4 Bft) 100,00 %
14.04.2016 14:09 12,3 C 69 % 1010,7 hPa 0,0 l/m 23,9 km/h (4 Bft) SW 236 1 min 0,000 mm 2,6 UV-I 529 W/m 6,8 C 5,2 C 27,4 km/h (4 Bft) 100,00 %
14.04.2016 14:10 12,3 C 69 % 1010,7 hPa 0,0 l/m 11,6 km/h (2 Bft) W 259 1 min 0,000 mm 2,6 UV-I 528 W/m 6,8 C 9,3 C 19,3 km/h (3 Bft) 100,00 %
14.04.2016 14:11 12,3 C 70 % 1010,7 hPa 0,0 l/m 18,0 km/h (3 Bft) W-NW 289 1 min 0,000 mm 2,6 UV-I 543 W/m 7,0 C 6,9 C 22,5 km/h (4 Bft) 100,00 %
14.04.2016 14:12 12,4 C 70 % 1010,7 hPa 0,0 l/m 11,1 km/h (2 Bft) W-NW 283 1 min 0,000 mm 2,5 UV-I 519 W/m 7,1 C 9,7 C 19,3 km/h (3 Bft) 100,00 %
14.04.2016 14:13 12,4 C 69 % 1010,7 hPa 0,0 l/m 10,7 km/h (2 Bft) W-SW 245 1 min 0,000 mm 2,5 UV-I 528 W/m 6,9 C 9,9 C 17,7 km/h (3 Bft) 95,83 %
14.04.2016 14:14 12,4 C 70 % 1010,8 hPa 0,0 l/m 12,6 km/h (3 Bft) W-SW 252 1 min 0,000 mm 2,5 UV-I 524 W/m 7,1 C 9,0 C 20,9 km/h (4 Bft) 100,00 %
14.04.2016 14:15 12,5 C 69 % 1010,8 hPa 0,0 l/m 14,3 km/h (3 Bft) W 259 1 min 0,000 mm 2,6 UV-I 565 W/m 7,0 C 8,4 C 17,7 km/h (3 Bft) 100,00 %
14.04.2016 14:16 12,6 C 69 % 1010,7 hPa 0,0 l/m 16,2 km/h (3 Bft) SW 232 1 min 0,000 mm 2,6 UV-I 598 W/m 7,1 C 7,9 C 24,1 km/h (4 Bft) 100,00 %
14.04.2016 14:17 12,7 C 69 % 1010,7 hPa 0,0 l/m 16,0 km/h (3 Bft) W 270 1 min 0,000 mm 2,5 UV-I 550 W/m 7,2 C 8,0 C 20,9 km/h (4 Bft) 100,00 %
14.04.2016 14:18 12,7 C 68 % 1010,8 hPa 0,0 l/m 19,6 km/h (3 Bft) W-SW 246 1 min 0,000 mm 2,1 UV-I 544 W/m 6,9 C 6,9 C 25,7 km/h (4 Bft) 100,00 %
14.04.2016 14:19 12,7 C 67 % 1010,8 hPa 0,0 l/m 21,6 km/h (4 Bft) W 262 1 min 0,000 mm 2,3 UV-I 519 W/m 6,7 C 6,3 C 29,0 km/h (5 Bft) 100,00 %
14.04.2016 14:20 12,7 C 67 % 1010,8 hPa 0,0 l/m 17,2 km/h (3 Bft) W-SW 257 1 min 0,000 mm 2,2 UV-I 487 W/m 6,7 C 7,6 C 24,1 km/h (4 Bft) 100,00 %
14.04.2016 14:21 12,6 C 67 % 1010,8 hPa 0,0 l/m 16,1 km/h (3 Bft) W-SW 258 1 min 0,000 mm 2,1 UV-I 426 W/m 6,6 C 7,9 C 20,9 km/h (4 Bft) 100,00 %
14.04.2016 14:22 12,6 C 68 % 1010,8 hPa 0,0 l/m 11,3 km/h (2 Bft) W-NW 287 1 min 0,000 mm 2,0 UV-I 425 W/m 6,9 C 9,8 C 19,3 km/h (3 Bft) 100,00 %
14.04.2016 14:23 12,5 C 67 % 1010,8 hPa 0,0 l/m 10,6 km/h (2 Bft) W 260 1 min 0,000 mm 2,0 UV-I 422 W/m 6,5 C 10,1 C 14,5 km/h (3 Bft) 100,00 %
14.04.2016 14:24 12,5 C 68 % 1010,8 hPa 0,0 l/m 10,3 km/h (2 Bft) SW 233 1 min 0,000 mm 2,0 UV-I 460 W/m 6,8 C 10,2 C 19,3 km/h (3 Bft) 100,00 %
14.04.2016 14:25 12,5 C 69 % 1010,8 hPa 0,0 l/m 13,7 km/h (3 Bft) SW 229 1 min 0,000 mm 2,0 UV-I 460 W/m 7,0 C 8,7 C 20,9 km/h (4 Bft) 100,00 %
14.04.2016 14:26 12,6 C 69 % 1010,7 hPa 0,0 l/m 16,3 km/h (3 Bft) W-SW 248 1 min 0,000 mm 1,9 UV-I 446 W/m 7,1 C 7,8 C 24,1 km/h (4 Bft) 100,00 %
14.04.2016 14:27 12,6 C 69 % 1010,8 hPa 0,0 l/m 13,2 km/h (3 Bft) W-NW 297 1 min 0,000 mm 1,9 UV-I 419 W/m 7,1 C 9,0 C 17,7 km/h (3 Bft) 100,00 %
14.04.2016 14:28 12,6 C 68 % 1010,8 hPa 0,0 l/m 18,4 km/h (3 Bft) W-NW 290 1 min 0,000 mm 2,0 UV-I 428 W/m 6,9 C 7,1 C 32,2 km/h (5 Bft) 100,00 %
14.04.2016 14:29 12,6 C 67 % 1010,8 hPa 0,0 l/m 15,8 km/h (3 Bft) W 259 0 min 0,000 mm 1,9 UV-I 389 W/m 6,6 C 8,0 C 20,9 km/h (4 Bft) 96,15 %
14.04.2016 14:30 12,6 C 67 % 1010,8 hPa 0,0 l/m 12,1 km/h (2 Bft) SW 236 1 min 0,000 mm 2,2 UV-I 433 W/m 6,6 C 9,5 C 24,1 km/h (4 Bft) 100,00 %
14.04.2016 14:31 12,6 C 68 % 1010,8 hPa 0,0 l/m 11,8 km/h (2 Bft) S-SW 211 1 min 0,000 mm 2,2 UV-I 414 W/m 6,9 C 9,6 C 17,7 km/h (3 Bft) 100,00 %
14.04.2016 14:32 12,6 C 67 % 1010,8 hPa 0,0 l/m 11,7 km/h (2 Bft) W 280 1 min 0,000 mm 2,2 UV-I 418 W/m 6,6 C 9,6 C 19,3 km/h (3 Bft) 100,00 %
14.04.2016 14:33 12,6 C 69 % 1010,8 hPa 0,0 l/m 17,6 km/h (3 Bft) W 263 0 min 0,000 mm 2,0 UV-I 379 W/m 7,1 C 7,4 C 25,7 km/h (4 Bft) 100,00 %
14.04.2016 14:34 12,6 C 68 % 1010,8 hPa 0,0 l/m 16,5 km/h (3 Bft) W-SW 248 0 min 0,000 mm 1,8 UV-I 345 W/m 6,9 C 7,7 C 20,9 km/h (4 Bft) 96,30 %
14.04.2016 14:35 12,6 C 68 % 1010,8 hPa 0,0 l/m 14,8 km/h (3 Bft) W-SW 253 0 min 0,000 mm 1,6 UV-I 357 W/m 6,9 C 8,4 C 24,1 km/h (4 Bft) 92,86 %
14.04.2016 14:36 12,6 C 68 % 1010,8 hPa 0,0 l/m 13,5 km/h (3 Bft) W-NW 286 0 min 0,000 mm 1,7 UV-I 385 W/m 6,9 C 8,9 C 17,7 km/h (3 Bft) 95,83 %
14.04.2016 14:37 12,6 C 67 % 1010,8 hPa 0,0 l/m 20,0 km/h (4 Bft) W 267 0 min 0,000 mm 1,4 UV-I 304 W/m 6,6 C 6,6 C 27,4 km/h (4 Bft) 100,00 %
14.04.2016 14:38 12,6 C 67 % 1010,8 hPa 0,0 l/m 9,7 km/h (2 Bft) W 280 0 min 0,000 mm 1,4 UV-I 298 W/m 6,6 C 10,6 C 19,3 km/h (3 Bft) 100,00 %
14.04.2016 14:39 12,5 C 68 % 1010,8 hPa 0,0 l/m 7,2 km/h (2 Bft) W-SW 257 0 min 0,000 mm 1,3 UV-I 281 W/m 6,8 C 12,0 C 12,9 km/h (3 Bft) 100,00 %
14.04.2016 14:40 12,5 C 67 % 1010,9 hPa 0,0 l/m 19,9 km/h (4 Bft) NW 304 0 min 0,000 mm 1,2 UV-I 250 W/m 6,5 C 6,5 C 30,6 km/h (5 Bft) 100,00 %
14.04.2016 14:41 12,4 C 67 % 1010,8 hPa 0,0 l/m 14,9 km/h (3 Bft) W-SW 245 0 min 0,000 mm 1,1 UV-I 240 W/m 6,4 C 8,1 C 22,5 km/h (4 Bft) 100,00 %
14.04.2016 14:42 12,4 C 67 % 1010,9 hPa 0,0 l/m 19,0 km/h (3 Bft) W-SW 258 0 min 0,000 mm 1,2 UV-I 262 W/m 6,4 C 6,7 C 24,1 km/h (4 Bft) 100,00 %
14.04.2016 14:43 12,3 C 66 % 1010,9 hPa 0,0 l/m 18,9 km/h (3 Bft) W 271 0 min 0,000 mm 1,4 UV-I 281 W/m 6,1 C 6,6 C 24,1 km/h (4 Bft) 100,00 %
14.04.2016 14:44 12,3 C 69 % 1010,8 hPa 0,0 l/m 17,1 km/h (3 Bft) W 276 0 min 0,000 mm 1,5 UV-I 320 W/m 6,8 C 7,2 C 25,7 km/h (4 Bft) 100,00 %
14.04.2016 14:45 12,3 C 67 % 1010,9 hPa 0,0 l/m 22,4 km/h (4 Bft) W 266 0 min 0,000 mm 1,3 UV-I 296 W/m 6,4 C 5,6 C 33,8 km/h (5 Bft) 100,00 %
14.04.2016 14:46 12,3 C 67 % 1010,9 hPa 0,0 l/m 19,1 km/h (3 Bft) W 259 0 min 0,000 mm 1,3 UV-I 275 W/m 6,4 C 6,5 C 33,8 km/h (5 Bft) 100,00 %
14.04.2016 14:47 12,3 C 67 % 1010,9 hPa 0,0 l/m 20,6 km/h (4 Bft) W 260 0 min 0,000 mm 1,4 UV-I 279 W/m 6,4 C 6,1 C 27,4 km/h (4 Bft) 100,00 %
14.04.2016 14:48 12,2 C 66 % 1010,8 hPa 0,0 l/m 21,5 km/h (4 Bft) SW 228 0 min 0,000 mm 1,4 UV-I 277 W/m 6,0 C 5,7 C 29,0 km/h (5 Bft) 93,10 %
14.04.2016 14:49 12,2 C 67 % 1010,8 hPa 0,0 l/m 16,5 km/h (3 Bft) W-SW 244 0 min 0,000 mm 1,3 UV-I 274 W/m 6,3 C 7,3 C 20,9 km/h (4 Bft) 100,00 %
14.04.2016 14:50 12,2 C 67 % 1010,9 hPa 0,0 l/m 17,9 km/h (3 Bft) W 271 0 min 0,000 mm 1,4 UV-I 279 W/m 6,3 C 6,8 C 27,4 km/h (4 Bft) 100,00 %
14.04.2016 14:51 12,2 C 68 % 1010,9 hPa 0,0 l/m 19,1 km/h (3 Bft) W-SW 242 0 min 0,000 mm 1,4 UV-I 279 W/m 6,5 C 6,4 C 27,4 km/h (4 Bft) 100,00 %
14.04.2016 14:52 12,2 C 68 % 1010,9 hPa 0,0 l/m 15,8 km/h (3 Bft) S-SW 212 0 min 0,000 mm 1,4 UV-I 280 W/m 6,5 C 7,5 C 20,9 km/h (4 Bft) 100,00 %
14.04.2016 14:53 12,2 C 67 % 1010,9 hPa 0,0 l/m 21,5 km/h (4 Bft) W-SW 255 0 min 0,000 mm 1,4 UV-I 282 W/m 6,3 C 5,7 C 27,4 km/h (4 Bft) 100,00 %
14.04.2016 14:54 12,2 C 68 % 1010,9 hPa 0,0 l/m 13,8 km/h (3 Bft) W 259 0 min 0,000 mm 1,4 UV-I 279 W/m 6,5 C 8,3 C 17,7 km/h (3 Bft) 100,00 %
14.04.2016 14:55 12,2 C 67 % 1011,0 hPa 0,0 l/m 16,1 km/h (3 Bft) SW 221 0 min 0,000 mm 1,3 UV-I 271 W/m 6,3 C 7,4 C 24,1 km/h (4 Bft) 100,00 %
14.04.2016 14:56 12,2 C 65 % 1010,9 hPa 0,0 l/m 19,5 km/h (3 Bft) W 261 0 min 0,000 mm 1,3 UV-I 268 W/m 5,8 C 6,3 C 25,7 km/h (4 Bft) 100,00 %
14.04.2016 14:57 12,1 C 65 % 1011,0 hPa 0,0 l/m 17,1 km/h (3 Bft) SW 220 0 min 0,000 mm 1,3 UV-I 265 W/m 5,7 C 6,9 C 22,5 km/h (4 Bft) 96,67 %
14.04.2016 14:58 12,2 C 66 % 1010,9 hPa 0,0 l/m 14,4 km/h (3 Bft) W 261 0 min 0,000 mm 1,3 UV-I 265 W/m 6,0 C 8,0 C 20,9 km/h (4 Bft) 92,86 %
14.04.2016 14:59 12,2 C 66 % 1010,9 hPa 0,0 l/m 15,7 km/h (3 Bft) W-SW 240 0 min 0,000 mm 1,3 UV-I 264 W/m 6,0 C 7,5 C 22,5 km/h (4 Bft) 100,00 %
14.04.2016 15:00 12,2 C 66 % 1011,0 hPa 0,0 l/m 16,3 km/h (3 Bft) W-SW 250 0 min 0,000 mm 1,3 UV-I 263 W/m 6,0 C 7,3 C 20,9 km/h (4 Bft) 96,55 %
14.04.2016 15:01 12,2 C 66 % 1010,9 hPa 0,0 l/m 16,6 km/h (3 Bft) W-SW 258 0 min 0,254 mm 1,3 UV-I 262 W/m 6,0 C 7,2 C 24,1 km/h (4 Bft) 100,00 %
14.04.2016 15:02 12,1 C 66 % 1011,0 hPa 0,0 l/m 25,7 km/h (4 Bft) W 263 0 min 0,000 mm 1,3 UV-I 259 W/m 5,9 C 4,5 C 30,6 km/h (5 Bft) 96,30 %
14.04.2016 15:03 12,1 C 66 % 1010,9 hPa 0,0 l/m 21,2 km/h (4 Bft) W 262 0 min 0,000 mm 1,3 UV-I 255 W/m 5,9 C 5,7 C 30,6 km/h (5 Bft) 96,15 %
14.04.2016 15:04 12,1 C 66 % 1011,0 hPa 0,0 l/m 17,9 km/h (3 Bft) W 261 0 min 0,000 mm 1,3 UV-I 253 W/m 5,9 C 6,7 C 30,6 km/h (5 Bft) 100,00 %
14.04.2016 15:05 12,1 C 66 % 1011,0 hPa 0,0 l/m 21,3 km/h (4 Bft) W-SW 244 0 min 0,000 mm 1,3 UV-I 259 W/m 5,9 C 5,6 C 32,2 km/h (5 Bft) 95,83 %
14.04.2016 15:06 12,0 C 65 % 1011,0 hPa 0,0 l/m 21,1 km/h (4 Bft) W-SW 247 0 min 0,000 mm 1,3 UV-I 268 W/m 5,6 C 5,6 C 30,6 km/h (5 Bft) 100,00 %
14.04.2016 15:07 12,0 C 66 % 1010,9 hPa 0,0 l/m 18,5 km/h (3 Bft) SW 236 0 min 0,000 mm 1,5 UV-I 284 W/m 5,8 C 6,3 C 30,6 km/h (5 Bft) 96,55 %
14.04.2016 15:08 12,0 C 66 % 1011,0 hPa 0,0 l/m 20,0 km/h (4 Bft) W-NW 284 0 min 0,000 mm 1,6 UV-I 299 W/m 5,8 C 5,9 C 29,0 km/h (5 Bft) 100,00 %
14.04.2016 15:09 12,0 C 66 % 1011,0 hPa 0,0 l/m 18,2 km/h (3 Bft) SW 236 0 min 0,000 mm 1,6 UV-I 310 W/m 5,8 C 6,4 C 27,4 km/h (4 Bft) 95,65 %
14.04.2016 15:10 12,0 C 65 % 1010,8 hPa 0,0 l/m 20,3 km/h (4 Bft) W 259 0 min 0,000 mm 1,7 UV-I 318 W/m 5,6 C 5,8 C 29,0 km/h (5 Bft) 95,83 %
14.04.2016 15:11 12,0 C 65 % 1010,9 hPa 0,0 l/m 23,4 km/h (4 Bft) W 268 0 min 0,000 mm 1,8 UV-I 365 W/m 5,6 C 4,9 C 30,6 km/h (5 Bft) 100,00 %
14.04.2016 15:12 12,0 C 65 % 1010,9 hPa 0,0 l/m 19,8 km/h (3 Bft) W 265 1 min 0,000 mm 1,9 UV-I 444 W/m 5,6 C 5,9 C 32,2 km/h (5 Bft) 96,30 %
14.04.2016 15:13 12,1 C 64 % 1010,9 hPa 0,0 l/m 23,4 km/h (4 Bft) W-SW 257 1 min 0,000 mm 2,1 UV-I 438 W/m 5,5 C 5,1 C 33,8 km/h (5 Bft) 98,62 %
14.04.2016 15:14 12,1 C 65 % 1010,9 hPa 0,0 l/m 24,1 km/h (4 Bft) W-SW 245 1 min 0,000 mm 2,2 UV-I 433 W/m 5,7 C 4,9 C 30,6 km/h (5 Bft) 93,62 %
14.04.2016 15:15 12,2 C 64 % 1010,9 hPa 0,0 l/m 16,9 km/h (3 Bft) W-SW 257 1 min 0,000 mm 2,6 UV-I 452 W/m 5,6 C 7,1 C 19,3 km/h (3 Bft) 100,00 %
14.04.2016 15:16 12,3 C 66 % 1010,9 hPa 0,0 l/m 17,5 km/h (3 Bft) W 261 1 min 0,000 mm 2,7 UV-I 712 W/m 6,1 C 7,0 C 25,7 km/h (4 Bft) 96,55 %
14.04.2016 15:17 12,4 C 65 % 1010,8 hPa 0,0 l/m 21,2 km/h (4 Bft) W-SW 252 1 min 0,000 mm 2,6 UV-I 670 W/m 6,0 C 6,0 C 29,0 km/h (5 Bft) 100,00 %
14.04.2016 15:18 12,4 C 64 % 1010,9 hPa 0,0 l/m 18,0 km/h (3 Bft) W-SW 251 1 min 0,000 mm 2,6 UV-I 682 W/m 5,8 C 7,0 C 22,5 km/h (4 Bft) 96,67 %
14.04.2016 15:19 12,5 C 64 % 1010,9 hPa 0,0 l/m 17,5 km/h (3 Bft) W 269 1 min 0,000 mm 2,6 UV-I 697 W/m 5,9 C 7,3 C 27,4 km/h (4 Bft) 100,00 %
14.04.2016 15:20 12,7 C 63 % 1010,8 hPa 0,0 l/m 19,6 km/h (3 Bft) W 266 1 min 0,000 mm 2,6 UV-I 700 W/m 5,8 C 6,9 C 27,4 km/h (4 Bft) 92,86 %
14.04.2016 15:21 12,7 C 64 % 1010,8 hPa 0,0 l/m 15,1 km/h (3 Bft) W-SW 258 1 min 0,000 mm 2,6 UV-I 693 W/m 6,1 C 8,4 C 20,9 km/h (4 Bft) 97,56 %
14.04.2016 15:22 12,8 C 64 % 1010,8 hPa 0,0 l/m 17,9 km/h (3 Bft) W-SW 245 1 min 0,000 mm 2,5 UV-I 662 W/m 6,2 C 7,5 C 24,1 km/h (4 Bft) 100,00 %
14.04.2016 15:23 12,9 C 64 % 1010,8 hPa 0,0 l/m 18,0 km/h (3 Bft) W 267 1 min 0,000 mm 2,3 UV-I 629 W/m 6,3 C 7,6 C 24,1 km/h (4 Bft) 91,67 %
14.04.2016 15:24 13,0 C 62 % 1010,7 hPa 0,0 l/m 18,3 km/h (3 Bft) S-SW 212 1 min 0,000 mm 2,1 UV-I 446 W/m 5,9 C 7,7 C 24,1 km/h (4 Bft) 96,15 %
14.04.2016 15:25 13,0 C 63 % 1010,8 hPa 0,0 l/m 11,2 km/h (2 Bft) W-SW 246 0 min 0,000 mm 2,0 UV-I 339 W/m 6,1 C 10,3 C 17,7 km/h (3 Bft) 95,83 %
14.04.2016 15:26 12,9 C 62 % 1010,8 hPa 0,0 l/m 25,3 km/h (4 Bft) W-SW 247 0 min 0,000 mm 2,0 UV-I 292 W/m 5,8 C 5,7 C 33,8 km/h (5 Bft) 100,00 %
14.04.2016 15:27 12,9 C 60 % 1010,8 hPa 0,0 l/m 23,2 km/h (4 Bft) W-SW 258 0 min 0,000 mm 1,7 UV-I 255 W/m 5,3 C 6,2 C 32,2 km/h (5 Bft) 91,67 %
14.04.2016 15:28 12,7 C 59 % 1010,8 hPa 0,0 l/m 20,5 km/h (4 Bft) W 268 0 min 0,000 mm 1,6 UV-I 243 W/m 4,9 C 6,6 C 30,6 km/h (5 Bft) 100,00 %
14.04.2016 15:29 12,7 C 59 % 1010,8 hPa 0,0 l/m 19,1 km/h (3 Bft) W 267 0 min 0,000 mm 1,7 UV-I 250 W/m 4,9 C 7,0 C 29,0 km/h (5 Bft) 100,00 %
14.04.2016 15:30 12,6 C 59 % 1010,8 hPa 0,0 l/m 19,2 km/h (3 Bft) W-SW 248 0 min 0,000 mm 1,8 UV-I 255 W/m 4,8 C 6,9 C 25,7 km/h (4 Bft) 100,00 %
14.04.2016 15:31 12,5 C 58 % 1010,8 hPa 0,0 l/m 21,3 km/h (4 Bft) W 277 0 min 0,000 mm 1,8 UV-I 255 W/m 4,5 C 6,2 C 30,6 km/h (5 Bft) 100,00 %
14.04.2016 15:32 12,4 C 59 % 1010,8 hPa 0,0 l/m 21,3 km/h (4 Bft) W-SW 253 0 min 0,000 mm 1,6 UV-I 253 W/m 4,6 C 6,0 C 27,4 km/h (4 Bft) 100,00 %
14.04.2016 15:33 12,4 C 60 % 1010,9 hPa 0,0 l/m 15,6 km/h (3 Bft) W-SW 244 0 min 0,000 mm 1,6 UV-I 273 W/m 4,9 C 7,8 C 19,3 km/h (3 Bft) 100,00 %
14.04.2016 15:34 12,4 C 60 % 1010,9 hPa 0,0 l/m 17,3 km/h (3 Bft) W-NW 284 0 min 0,000 mm 1,7 UV-I 264 W/m 4,9 C 7,2 C 24,1 km/h (4 Bft) 100,00 %
14.04.2016 15:35 12,4 C 60 % 1010,8 hPa 0,0 l/m 16,4 km/h (3 Bft) W-SW 254 0 min 0,000 mm 2,0 UV-I 264 W/m 4,9 C 7,5 C 25,7 km/h (4 Bft) 100,00 %
14.04.2016 15:36 12,4 C 60 % 1010,9 hPa 0,0 l/m 25,7 km/h (4 Bft) W-SW 256 0 min 0,000 mm 2,2 UV-I 264 W/m 4,9 C 4,9 C 38,6 km/h (5 Bft) 96,15 %
14.04.2016 15:37 12,5 C 58 % 1010,8 hPa 0,0 l/m 21,9 km/h (4 Bft) W-NW 288 0 min 0,000 mm 1,8 UV-I 264 W/m 4,5 C 6,0 C 33,8 km/h (5 Bft) 100,00 %
14.04.2016 15:38 12,6 C 58 % 1010,8 hPa 0,0 l/m 19,8 km/h (3 Bft) W 263 0 min 0,000 mm 2,2 UV-I 264 W/m 4,6 C 6,7 C 29,0 km/h (5 Bft) 100,00 %
14.04.2016 15:39 12,6 C 58 % 1010,9 hPa 0,0 l/m 15,9 km/h (3 Bft) W 262 0 min 0,000 mm 2,1 UV-I 349 W/m 4,6 C 8,0 C 22,5 km/h (4 Bft) 100,00 %
14.04.2016 15:40 12,7 C 58 % 1010,9 hPa 0,0 l/m 16,6 km/h (3 Bft) W-NW 290 1 min 0,000 mm 2,2 UV-I 568 W/m 4,7 C 7,8 C 22,5 km/h (4 Bft) 100,00 %
14.04.2016 15:41 12,8 C 59 % 1010,8 hPa 0,0 l/m 16,2 km/h (3 Bft) W 265 1 min 0,000 mm 2,2 UV-I 605 W/m 5,0 C 8,1 C 24,1 km/h (4 Bft) 97,56 %
14.04.2016 15:42 12,8 C 61 % 1010,8 hPa 0,0 l/m 9,4 km/h (2 Bft) W-SW 241 1 min 0,000 mm 2,1 UV-I 569 W/m 5,5 C 11,0 C 14,5 km/h (3 Bft) 95,65 %
14.04.2016 15:43 13,0 C 60 % 1010,8 hPa 0,0 l/m 16,5 km/h (3 Bft) SW 234 1 min 0,000 mm 2,1 UV-I 564 W/m 5,4 C 8,2 C 25,7 km/h (4 Bft) 95,83 %
14.04.2016 15:44 13,1 C 59 % 1010,8 hPa 0,0 l/m 21,4 km/h (4 Bft) W 278 1 min 0,000 mm 2,1 UV-I 569 W/m 5,3 C 6,9 C 30,6 km/h (5 Bft) 100,00 %
14.04.2016 15:45 13,1 C 58 % 1010,8 hPa 0,0 l/m 13,4 km/h (3 Bft) SW 232 1 min 0,000 mm 2,1 UV-I 578 W/m 5,0 C 9,5 C 16,1 km/h (3 Bft) 100,00 %
14.04.2016 15:46 13,2 C 62 % 1010,8 hPa 0,0 l/m 20,7 km/h (4 Bft) W 264 1 min 0,000 mm 2,1 UV-I 580 W/m 6,1 C 7,2 C 29,0 km/h (5 Bft) 100,00 %
14.04.2016 15:47 13,2 C 59 % 1010,8 hPa 0,0 l/m 16,9 km/h (3 Bft) W-SW 258 1 min 0,000 mm 2,1 UV-I 582 W/m 5,4 C 8,4 C 20,9 km/h (4 Bft) 100,00 %
14.04.2016 15:48 13,1 C 60 % 1010,8 hPa 0,0 l/m 24,1 km/h (4 Bft) W 265 1 min 0,000 mm 2,1 UV-I 599 W/m 5,5 C 6,2 C 29,0 km/h (5 Bft) 100,00 %
14.04.2016 15:49 13,2 C 60 % 1010,8 hPa 0,0 l/m 17,5 km/h (3 Bft) W 279 1 min 0,000 mm 2,0 UV-I 606 W/m 5,6 C 8,2 C 22,5 km/h (4 Bft) 100,00 %
14.04.2016 15:50 13,2 C 60 % 1010,8 hPa 0,0 l/m 23,8 km/h (4 Bft) W-SW 248 1 min 0,000 mm 2,1 UV-I 612 W/m 5,6 C 6,4 C 29,0 km/h (5 Bft) 100,00 %
14.04.2016 15:51 13,2 C 59 % 1010,8 hPa 0,0 l/m 22,0 km/h (4 Bft) W 264 1 min 0,000 mm 2,1 UV-I 636 W/m 5,4 C 6,9 C 32,2 km/h (5 Bft) 100,00 %
14.04.2016 15:52 13,1 C 58 % 1010,9 hPa 0,0 l/m 18,5 km/h (3 Bft) S-SW 210 1 min 0,000 mm 2,1 UV-I 600 W/m 5,0 C 7,7 C 25,7 km/h (4 Bft) 100,00 %
14.04.2016 15:53 13,1 C 59 % 1010,9 hPa 0,0 l/m 25,1 km/h (4 Bft) W 261 1 min 0,000 mm 2,0 UV-I 580 W/m 5,3 C 6,0 C 30,6 km/h (5 Bft) 100,00 %
14.04.2016 15:54 13,0 C 59 % 1010,9 hPa 0,0 l/m 18,7 km/h (3 Bft) W-SW 249 1 min 0,000 mm 2,0 UV-I 576 W/m 5,2 C 7,5 C 27,4 km/h (4 Bft) 95,83 %
14.04.2016 15:55 13,0 C 60 % 1010,8 hPa 0,0 l/m 21,4 km/h (4 Bft) W 261 1 min 0,000 mm 2,0 UV-I 599 W/m 5,4 C 6,8 C 32,2 km/h (5 Bft) 100,00 %
14.04.2016 15:56 12,9 C 58 % 1010,9 hPa 0,0 l/m 21,0 km/h (4 Bft) W 272 1 min 0,000 mm 1,9 UV-I 622 W/m 4,8 C 6,8 C 25,7 km/h (4 Bft) 100,00 %
14.04.2016 15:57 13,0 C 60 % 1010,9 hPa 0,0 l/m 18,9 km/h (3 Bft) SW 226 1 min 0,000 mm 2,0 UV-I 622 W/m 5,4 C 7,5 C 25,7 km/h (4 Bft) 100,00 %
14.04.2016 15:58 13,1 C 61 % 1010,9 hPa 0,0 l/m 20,0 km/h (4 Bft) W-SW 254 1 min 0,000 mm 2,0 UV-I 645 W/m 5,8 C 7,3 C 25,7 km/h (4 Bft) 100,00 %
14.04.2016 15:59 13,1 C 59 % 1010,9 hPa 0,0 l/m 17,5 km/h (3 Bft) SW 232 1 min 0,000 mm 2,0 UV-I 667 W/m 5,3 C 8,0 C 27,4 km/h (4 Bft) 100,00 %
14.04.2016 16:00 13,1 C 60 % 1010,9 hPa 0,0 l/m 14,8 km/h (3 Bft) W-SW 258 1 min 0,000 mm 1,8 UV-I 668 W/m 5,5 C 9,0 C 20,9 km/h (4 Bft) 100,00 %
14.04.2016 16:02 13,2 C 60 % 1011,0 hPa 0,0 l/m 14,8 km/h (3 Bft) W-SW 250 2 min 0,330 mm 1,8 UV-I 625 W/m 5,6 C 9,1 C 20,9 km/h (4 Bft) 100,00 %
14.04.2016 16:03 13,3 C 61 % 1011,0 hPa 0,0 l/m 15,4 km/h (3 Bft) W 266 1 min 0,000 mm 1,6 UV-I 693 W/m 5,9 C 9,0 C 19,3 km/h (3 Bft) 100,00 %
14.04.2016 16:04 13,3 C 60 % 1011,0 hPa 0,0 l/m 14,9 km/h (3 Bft) W-SW 250 1 min 0,000 mm 1,4 UV-I 693 W/m 5,7 C 9,2 C 19,3 km/h (3 Bft) 100,00 %
14.04.2016 16:05 13,3 C 61 % 1011,0 hPa 0,0 l/m 12,2 km/h (2 Bft) W-SW 254 1 min 0,000 mm 1,4 UV-I 603 W/m 5,9 C 10,2 C 19,3 km/h (3 Bft) 100,00 %
14.04.2016 16:06 13,4 C 59 % 1011,1 hPa 0,0 l/m 18,7 km/h (3 Bft) W-SW 246 1 min 0,000 mm 1,4 UV-I 543 W/m 5,6 C 8,1 C 22,5 km/h (4 Bft) 96,15 %
14.04.2016 16:07 13,4 C 57 % 1011,1 hPa 0,0 l/m 14,3 km/h (3 Bft) W-SW 238 1 min 0,000 mm 1,2 UV-I 536 W/m 5,1 C 9,5 C 19,3 km/h (3 Bft) 100,00 %
14.04.2016 16:08 13,3 C 57 % 1011,1 hPa 0,0 l/m 16,2 km/h (3 Bft) W-SW 250 0 min 0,000 mm 1,1 UV-I 284 W/m 5,0 C 8,7 C 20,9 km/h (4 Bft) 100,00 %
14.04.2016 16:09 13,2 C 59 % 1011,2 hPa 0,0 l/m 17,9 km/h (3 Bft) W 263 0 min 0,000 mm 1,0 UV-I 267 W/m 5,4 C 8,0 C 24,1 km/h (4 Bft) 100,00 %
14.04.2016 16:10 13,1 C 58 % 1011,1 hPa 0,0 l/m 18,5 km/h (3 Bft) W-SW 247 0 min 0,000 mm 1,0 UV-I 259 W/m 5,0 C 7,7 C 24,1 km/h (4 Bft) 100,00 %
14.04.2016 16:11 13,1 C 58 % 1011,3 hPa 0,0 l/m 22,2 km/h (4 Bft) W 261 0 min 0,000 mm 1,0 UV-I 256 W/m 5,0 C 6,7 C 32,2 km/h (5 Bft) 93,33 %
14.04.2016 16:12 12,9 C 57 % 1011,2 hPa 0,0 l/m 18,6 km/h (3 Bft) W 267 0 min 0,000 mm 0,9 UV-I 255 W/m 4,6 C 7,4 C 24,1 km/h (4 Bft) 100,00 %
14.04.2016 16:13 12,9 C 58 % 1011,2 hPa 0,0 l/m 15,7 km/h (3 Bft) W-NW 284 0 min 0,000 mm 0,9 UV-I 251 W/m 4,8 C 8,4 C 20,9 km/h (4 Bft) 95,83 %
14.04.2016 16:14 12,8 C 59 % 1011,1 hPa 0,0 l/m 16,8 km/h (3 Bft) SW 234 0 min 0,000 mm 0,9 UV-I 250 W/m 5,0 C 7,9 C 24,1 km/h (4 Bft) 100,00 %
14.04.2016 16:15 12,8 C 59 % 1011,1 hPa 0,0 l/m 12,0 km/h (2 Bft) W-NW 286 0 min 0,000 mm 0,9 UV-I 250 W/m 5,0 C 9,7 C 17,7 km/h (3 Bft) 100,00 %
14.04.2016 16:16 12,8 C 60 % 1011,1 hPa 0,0 l/m 12,8 km/h (3 Bft) W 268 0 min 0,000 mm 0,9 UV-I 251 W/m 5,2 C 9,4 C 17,7 km/h (3 Bft) 100,00 %
14.04.2016 16:17 12,8 C 59 % 1011,1 hPa 0,0 l/m 11,7 km/h (2 Bft) W-SW 248 0 min 0,000 mm 0,9 UV-I 246 W/m 5,0 C 9,9 C 22,5 km/h (4 Bft) 96,30 %
14.04.2016 16:18 12,8 C 59 % 1011,0 hPa 0,0 l/m 16,7 km/h (3 Bft) W-SW 240 0 min 0,000 mm 0,8 UV-I 233 W/m 5,0 C 7,9 C 22,5 km/h (4 Bft) 100,00 %
14.04.2016 16:19 12,8 C 60 % 1011,0 hPa 0,0 l/m 16,3 km/h (3 Bft) SW 230 0 min 0,000 mm 0,8 UV-I 221 W/m 5,2 C 8,1 C 22,5 km/h (4 Bft) 96,15 %
14.04.2016 16:20 12,7 C 61 % 1011,1 hPa 0,0 l/m 17,1 km/h (3 Bft) W-SW 248 0 min 0,000 mm 0,7 UV-I 214 W/m 5,4 C 7,7 C 25,7 km/h (4 Bft) 96,30 %
14.04.2016 16:21 12,7 C 62 % 1011,1 hPa 0,0 l/m 16,7 km/h (3 Bft) SW 229 0 min 0,000 mm 0,7 UV-I 214 W/m 5,6 C 7,8 C 20,9 km/h (4 Bft) 100,00 %
14.04.2016 16:22 12,6 C 64 % 1011,1 hPa 0,0 l/m 19,2 km/h (3 Bft) SW 228 0 min 0,000 mm 0,8 UV-I 215 W/m 6,0 C 6,9 C 27,4 km/h (4 Bft) 97,56 %
14.04.2016 16:23 12,5 C 65 % 1011,2 hPa 0,0 l/m 25,4 km/h (4 Bft) W-SW 242 0 min 0,000 mm 0,7 UV-I 207 W/m 6,1 C 5,1 C 32,2 km/h (5 Bft) 100,00 %
14.04.2016 16:24 12,3 C 65 % 1011,1 hPa 0,0 l/m 17,6 km/h (3 Bft) S-SW 202 0 min 0,000 mm 0,7 UV-I 199 W/m 5,9 C 7,0 C 22,5 km/h (4 Bft) 100,00 %
14.04.2016 16:25 12,2 C 66 % 1011,0 hPa 0,0 l/m 14,4 km/h (3 Bft) S-SW 212 0 min 0,000 mm 0,6 UV-I 194 W/m 6,0 C 8,0 C 19,3 km/h (3 Bft) 96,55 %
14.04.2016 16:26 12,1 C 66 % 1011,1 hPa 0,0 l/m 14,2 km/h (3 Bft) S-SO 163 0 min 0,000 mm 0,7 UV-I 196 W/m 5,9 C 8,0 C 19,3 km/h (3 Bft) 100,00 %
14.04.2016 16:27 12,0 C 66 % 1011,1 hPa 0,0 l/m 18,0 km/h (3 Bft) SW 236 0 min 0,000 mm 0,7 UV-I 201 W/m 5,8 C 6,5 C 29,0 km/h (5 Bft) 100,00 %
14.04.2016 16:28 11,9 C 68 % 1011,0 hPa 0,0 l/m 17,5 km/h (3 Bft) S-SW 210 0 min 0,000 mm 0,7 UV-I 205 W/m 6,2 C 6,5 C 25,7 km/h (4 Bft) 100,00 %
14.04.2016 16:29 11,8 C 68 % 1011,1 hPa 0,0 l/m 15,0 km/h (3 Bft) S 181 0 min 0,000 mm 0,7 UV-I 205 W/m 6,1 C 7,3 C 25,7 km/h (4 Bft) 100,00 %
14.04.2016 16:30 11,8 C 69 % 1011,1 hPa 0,0 l/m 18,7 km/h (3 Bft) SW 232 0 min 0,000 mm 0,7 UV-I 200 W/m 6,3 C 6,0 C 29,0 km/h (5 Bft) 100,00 %
14.04.2016 16:31 11,7 C 70 % 1011,0 hPa 0,0 l/m 18,8 km/h (3 Bft) W-SW 248 0 min 0,000 mm 0,7 UV-I 198 W/m 6,4 C 5,9 C 27,4 km/h (4 Bft) 95,65 %
14.04.2016 16:32 11,7 C 70 % 1011,0 hPa 0,0 l/m 14,9 km/h (3 Bft) S-SW 212 0 min 0,000 mm 0,7 UV-I 206 W/m 6,4 C 7,2 C 22,5 km/h (4 Bft) 100,00 %
14.04.2016 16:33 11,7 C 71 % 1011,0 hPa 0,0 l/m 20,8 km/h (4 Bft) S-SW 211 0 min 0,000 mm 0,7 UV-I 204 W/m 6,6 C 5,2 C 32,2 km/h (5 Bft) 100,00 %
14.04.2016 16:34 11,6 C 71 % 1011,0 hPa 0,0 l/m 19,9 km/h (4 Bft) S-SO 161 0 min 0,000 mm 0,7 UV-I 188 W/m 6,5 C 5,4 C 25,7 km/h (4 Bft) 100,00 %
14.04.2016 16:35 11,6 C 72 % 1011,0 hPa 0,0 l/m 16,2 km/h (3 Bft) S 173 0 min 0,000 mm 0,6 UV-I 164 W/m 6,7 C 6,6 C 24,1 km/h (4 Bft) 96,15 %
14.04.2016 16:36 11,6 C 72 % 1010,9 hPa 0,0 l/m 21,5 km/h (4 Bft) S-SW 209 0 min 0,000 mm 0,1 UV-I 134 W/m 6,7 C 4,9 C 29,0 km/h (5 Bft) 100,00 %
14.04.2016 16:37 11,6 C 72 % 1010,9 hPa 0,0 l/m 17,9 km/h (3 Bft) SW 230 0 min 0,000 mm 0,0 UV-I 111 W/m 6,7 C 6,0 C 29,0 km/h (5 Bft) 100,00 %
14.04.2016 16:38 11,6 C 72 % 1011,0 hPa 0,0 l/m 16,2 km/h (3 Bft) SW 235 0 min 0,000 mm 0,0 UV-I 98 W/m 6,7 C 6,6 C 30,6 km/h (5 Bft) 100,00 %
14.04.2016 16:39 11,6 C 72 % 1011,0 hPa 0,0 l/m 19,8 km/h (3 Bft) S 183 0 min 0,000 mm 0,0 UV-I 97 W/m 6,7 C 5,4 C 29,0 km/h (5 Bft) 100,00 %
14.04.2016 16:40 11,6 C 72 % 1010,9 hPa 0,0 l/m 18,7 km/h (3 Bft) W-SW 252 0 min 0,000 mm 0,0 UV-I 94 W/m 6,7 C 5,8 C 29,0 km/h (5 Bft) 100,00 %
14.04.2016 16:41 11,5 C 73 % 1011,0 hPa 0,0 l/m 17,4 km/h (3 Bft) W-SW 239 0 min 0,000 mm 0,0 UV-I 80 W/m 6,8 C 6,1 C 24,1 km/h (4 Bft) 96,55 %
14.04.2016 16:42 11,5 C 72 % 1011,0 hPa 0,0 l/m 15,5 km/h (3 Bft) S-SW 201 0 min 0,000 mm 0,0 UV-I 65 W/m 6,6 C 6,8 C 25,7 km/h (4 Bft) 100,00 %
14.04.2016 16:43 11,5 C 72 % 1011,0 hPa 0,0 l/m 14,8 km/h (3 Bft) W-NW 302 0 min 0,000 mm 0,0 UV-I 51 W/m 6,6 C 7,0 C 19,3 km/h (3 Bft) 100,00 %
14.04.2016 16:44 11,5 C 72 % 1011,0 hPa 0,0 l/m 13,9 km/h (3 Bft) SW 217 0 min 0,000 mm 0,0 UV-I 41 W/m 6,6 C 7,4 C 24,1 km/h (4 Bft) 100,00 %
14.04.2016 16:45 11,5 C 72 % 1011,0 hPa 0,0 l/m 17,8 km/h (3 Bft) S-SW 202 0 min 0,000 mm 0,0 UV-I 35 W/m 6,6 C 5,9 C 25,7 km/h (4 Bft) 100,00 %
14.04.2016 16:46 11,5 C 73 % 1011,0 hPa 0,0 l/m 15,2 km/h (3 Bft) S-SW 198 0 min 0,000 mm 0,0 UV-I 31 W/m 6,8 C 6,9 C 20,9 km/h (4 Bft) 100,00 %
14.04.2016 16:47 11,4 C 74 % 1011,0 hPa 0,0 l/m 15,9 km/h (3 Bft) W-SW 242 0 min 0,000 mm 0,0 UV-I 29 W/m 6,9 C 6,5 C 27,4 km/h (4 Bft) 100,00 %
14.04.2016 16:48 11,4 C 74 % 1011,0 hPa 0,0 l/m 14,6 km/h (3 Bft) W-SW 242 0 min 0,000 mm 0,0 UV-I 28 W/m 6,9 C 7,0 C 24,1 km/h (4 Bft) 92,31 %
14.04.2016 16:49 11,4 C 75 % 1011,0 hPa 0,0 l/m 15,0 km/h (3 Bft) W-SW 254 0 min 0,000 mm 0,0 UV-I 28 W/m 7,1 C 6,8 C 24,1 km/h (4 Bft) 96,67 %
14.04.2016 16:50 11,4 C 76 % 1011,0 hPa 0,0 l/m 22,8 km/h (4 Bft) W 259 0 min 0,000 mm 0,0 UV-I 28 W/m 7,3 C 4,3 C 29,0 km/h (5 Bft) 100,00 %
14.04.2016 16:51 11,3 C 76 % 1011,0 hPa 0,0 l/m 21,2 km/h (4 Bft) S-SW 211 0 min 0,000 mm 0,0 UV-I 30 W/m 7,2 C 4,6 C 27,4 km/h (4 Bft) 96,30 %
14.04.2016 16:52 11,3 C 76 % 1011,0 hPa 0,0 l/m 19,7 km/h (3 Bft) W-SW 250 0 min 0,000 mm 0,0 UV-I 35 W/m 7,2 C 5,1 C 27,4 km/h (4 Bft) 95,65 %
14.04.2016 16:53 11,3 C 77 % 1011,1 hPa 0,0 l/m 12,3 km/h (3 Bft) SW 214 0 min 0,000 mm 0,0 UV-I 41 W/m 7,4 C 7,9 C 24,1 km/h (4 Bft) 95,83 %
14.04.2016 16:54 11,3 C 76 % 1011,1 hPa 0,0 l/m 22,4 km/h (4 Bft) W-SW 244 0 min 0,000 mm 0,0 UV-I 47 W/m 7,2 C 4,3 C 29,0 km/h (5 Bft) 95,65 %
14.04.2016 16:55 11,3 C 76 % 1011,1 hPa 0,0 l/m 18,5 km/h (3 Bft) SW 221 0 min 0,000 mm 0,0 UV-I 54 W/m 7,2 C 5,4 C 29,0 km/h (5 Bft) 95,83 %
14.04.2016 16:56 11,2 C 77 % 1011,1 hPa 0,0 l/m 23,2 km/h (4 Bft) SW 220 0 min 0,000 mm 0,0 UV-I 60 W/m 7,3 C 3,9 C 29,0 km/h (5 Bft) 88,46 %
14.04.2016 16:57 11,2 C 76 % 1011,1 hPa 0,0 l/m 23,5 km/h (4 Bft) SW 231 0 min 0,000 mm 0,0 UV-I 62 W/m 7,1 C 3,8 C 32,2 km/h (5 Bft) 100,00 %
14.04.2016 16:58 11,2 C 76 % 1011,2 hPa 0,0 l/m 18,4 km/h (3 Bft) S-SW 212 0 min 0,000 mm 0,0 UV-I 66 W/m 7,1 C 5,4 C 27,4 km/h (4 Bft) 95,65 %
14.04.2016 16:59 11,3 C 75 % 1011,2 hPa 0,0 l/m 17,0 km/h (3 Bft) W-SW 240 0 min 0,000 mm 0,0 UV-I 67 W/m 7,0 C 6,0 C 22,5 km/h (4 Bft) 98,59 %
14.04.2016 17:00 11,3 C 76 % 1011,2 hPa 0,0 l/m 16,6 km/h (3 Bft) S-SW 213 0 min 0,000 mm 0,0 UV-I 65 W/m 7,2 C 6,1 C 20,9 km/h (4 Bft) 97,56 %
14.04.2016 17:01 11,3 C 75 % 1011,3 hPa 0,0 l/m 15,3 km/h (3 Bft) SW 234 0 min 0,153 mm 0,0 UV-I 71 W/m 7,0 C 6,6 C 22,5 km/h (4 Bft) 96,30 %
14.04.2016 17:02 11,3 C 75 % 1011,4 hPa 0,0 l/m 15,1 km/h (3 Bft) SW 227 0 min 0,000 mm 0,0 UV-I 86 W/m 7,0 C 6,7 C 19,3 km/h (3 Bft) 86,67 %
14.04.2016 17:03 11,3 C 75 % 1011,3 hPa 0,0 l/m 18,2 km/h (3 Bft) W 260 0 min 0,000 mm 0,0 UV-I 95 W/m 7,0 C 5,5 C 25,7 km/h (4 Bft) 100,00 %
14.04.2016 17:04 11,3 C 76 % 1011,4 hPa 0,0 l/m 17,3 km/h (3 Bft) SW 229 0 min 0,000 mm 0,0 UV-I 104 W/m 7,2 C 5,9 C 24,1 km/h (4 Bft) 96,30 %
14.04.2016 17:05 11,3 C 75 % 1011,3 hPa 0,0 l/m 17,5 km/h (3 Bft) W-SW 244 0 min 0,000 mm 0,0 UV-I 121 W/m 7,0 C 5,8 C 22,5 km/h (4 Bft) 96,15 %
14.04.2016 17:06 11,4 C 76 % 1011,4 hPa 0,0 l/m 22,9 km/h (4 Bft) W 262 0 min 0,000 mm 0,0 UV-I 128 W/m 7,3 C 4,3 C 37,0 km/h (5 Bft) 100,00 %
14.04.2016 17:07 11,4 C 75 % 1011,4 hPa 0,0 l/m 21,4 km/h (4 Bft) W-SW 237 0 min 0,000 mm 0,0 UV-I 134 W/m 7,1 C 4,7 C 32,2 km/h (5 Bft) 91,30 %
14.04.2016 17:08 11,4 C 75 % 1011,4 hPa 0,0 l/m 21,9 km/h (4 Bft) W-SW 250 0 min 0,000 mm 0,2 UV-I 152 W/m 7,1 C 4,5 C 27,4 km/h (4 Bft) 100,00 %
14.04.2016 17:09 11,4 C 75 % 1011,4 hPa 0,0 l/m 19,4 km/h (3 Bft) S-SW 208 0 min 0,000 mm 0,5 UV-I 168 W/m 7,1 C 5,3 C 27,4 km/h (4 Bft) 95,65 %
14.04.2016 17:10 11,3 C 75 % 1011,4 hPa 0,0 l/m 21,8 km/h (4 Bft) W 265 0 min 0,000 mm 0,5 UV-I 177 W/m 7,0 C 4,4 C 30,6 km/h (5 Bft) 100,00 %
14.04.2016 17:11 11,3 C 75 % 1011,4 hPa 0,0 l/m 15,0 km/h (3 Bft) W-SW 242 0 min 0,000 mm 0,5 UV-I 182 W/m 7,0 C 6,7 C 20,9 km/h (4 Bft) 96,15 %
14.04.2016 17:12 11,3 C 77 % 1011,4 hPa 0,0 l/m 16,0 km/h (3 Bft) SW 234 0 min 0,000 mm 0,6 UV-I 200 W/m 7,4 C 6,3 C 20,9 km/h (4 Bft) 96,30 %
14.04.2016 17:13 11,3 C 76 % 1011,4 hPa 0,0 l/m 16,1 km/h (3 Bft) SW 232 0 min 0,000 mm 0,6 UV-I 232 W/m 7,2 C 6,3 C 24,1 km/h (4 Bft) 100,00 %
14.04.2016 17:14 11,3 C 76 % 1011,4 hPa 0,0 l/m 16,6 km/h (3 Bft) S-SW 212 1 min 0,000 mm 0,6 UV-I 251 W/m 7,2 C 6,1 C 22,5 km/h (4 Bft) 95,83 %
14.04.2016 17:15 11,4 C 75 % 1011,4 hPa 0,0 l/m 18,3 km/h (3 Bft) SW 236 1 min 0,000 mm 0,8 UV-I 251 W/m 7,1 C 5,6 C 24,1 km/h (4 Bft) 96,15 %
14.04.2016 17:16 11,5 C 76 % 1011,4 hPa 0,0 l/m 14,1 km/h (3 Bft) SW 216 1 min 0,000 mm 0,9 UV-I 440 W/m 7,4 C 7,3 C 16,1 km/h (3 Bft) 96,30 %
14.04.2016 17:17 11,6 C 76 % 1011,4 hPa 0,0 l/m 16,7 km/h (3 Bft) W-SW 238 1 min 0,000 mm 0,9 UV-I 494 W/m 7,5 C 6,4 C 24,1 km/h (4 Bft) 100,00 %
14.04.2016 17:18 11,8 C 76 % 1011,4 hPa 0,0 l/m 13,6 km/h (3 Bft) W-SW 250 1 min 0,000 mm 0,9 UV-I 467 W/m 7,7 C 7,9 C 17,7 km/h (3 Bft) 96,15 %
14.04.2016 17:19 11,9 C 76 % 1011,4 hPa 0,0 l/m 16,3 km/h (3 Bft) W-SW 244 1 min 0,000 mm 0,9 UV-I 441 W/m 7,8 C 7,0 C 24,1 km/h (4 Bft) 96,55 %
14.04.2016 17:20 12,1 C 75 % 1011,4 hPa 0,0 l/m 15,6 km/h (3 Bft) W 261 1 min 0,000 mm 0,8 UV-I 428 W/m 7,8 C 7,5 C 20,9 km/h (4 Bft) 92,59 %
14.04.2016 17:21 12,2 C 74 % 1011,4 hPa 0,0 l/m 18,8 km/h (3 Bft) W-SW 250 1 min 0,000 mm 0,8 UV-I 398 W/m 7,7 C 6,5 C 24,1 km/h (4 Bft) 100,00 %
14.04.2016 17:22 12,2 C 75 % 1011,4 hPa 0,0 l/m 15,2 km/h (3 Bft) W-SW 238 1 min 0,000 mm 0,8 UV-I 395 W/m 7,9 C 7,7 C 20,9 km/h (4 Bft) 100,00 %
14.04.2016 17:23 12,2 C 74 % 1011,4 hPa 0,0 l/m 17,1 km/h (3 Bft) W-SW 247 1 min 0,000 mm 0,8 UV-I 374 W/m 7,7 C 7,0 C 24,1 km/h (4 Bft) 95,65 %
14.04.2016 17:24 12,2 C 74 % 1011,3 hPa 0,0 l/m 15,4 km/h (3 Bft) S-SW 198 1 min 0,000 mm 0,7 UV-I 361 W/m 7,7 C 7,6 C 25,7 km/h (4 Bft) 100,00 %
14.04.2016 17:25 12,2 C 73 % 1011,4 hPa 0,0 l/m 10,5 km/h (2 Bft) W-SW 246 1 min 0,000 mm 0,7 UV-I 355 W/m 7,5 C 9,8 C 14,5 km/h (3 Bft) 100,00 %
14.04.2016 17:26 12,2 C 73 % 1011,3 hPa 0,0 l/m 9,9 km/h (2 Bft) W-SW 243 1 min 0,000 mm 0,6 UV-I 253 W/m 7,5 C 10,1 C 16,1 km/h (3 Bft) 96,88 %
14.04.2016 17:27 12,1 C 74 % 1011,3 hPa 0,0 l/m 12,2 km/h (2 Bft) W-SW 245 0 min 0,000 mm 0,6 UV-I 119 W/m 7,6 C 8,8 C 19,3 km/h (3 Bft) 100,00 %
14.04.2016 17:28 12,0 C 73 % 1011,4 hPa 0,0 l/m 12,6 km/h (3 Bft) SW 234 0 min 0,000 mm 0,6 UV-I 126 W/m 7,3 C 8,5 C 20,9 km/h (4 Bft) 100,00 %
14.04.2016 17:29 11,9 C 73 % 1011,4 hPa 0,0 l/m 8,6 km/h (2 Bft) W-SW 244 0 min 0,000 mm 0,6 UV-I 130 W/m 7,2 C 10,5 C 14,5 km/h (3 Bft) 100,00 %
14.04.2016 17:30 11,9 C 74 % 1011,3 hPa 0,0 l/m 16,0 km/h (3 Bft) W-SW 254 0 min 0,000 mm 0,6 UV-I 129 W/m 7,4 C 7,1 C 22,5 km/h (4 Bft) 100,00 %
14.04.2016 17:31 11,9 C 73 % 1011,4 hPa 0,0 l/m 16,8 km/h (3 Bft) SW 223 0 min 0,000 mm 0,6 UV-I 126 W/m 7,2 C 6,8 C 22,5 km/h (4 Bft) 100,00 %
14.04.2016 17:32 11,8 C 73 % 1011,4 hPa 0,0 l/m 10,0 km/h (2 Bft) W-SW 239 0 min 0,000 mm 0,5 UV-I 127 W/m 7,1 C 9,6 C 16,1 km/h (3 Bft) 96,15 %
14.04.2016 17:33 11,8 C 74 % 1011,3 hPa 0,0 l/m 15,1 km/h (3 Bft) S-SW 200 0 min 0,000 mm 0,5 UV-I 124 W/m 7,3 C 7,3 C 20,9 km/h (4 Bft) 96,30 %
14.04.2016 17:34 11,8 C 75 % 1011,3 hPa 0,0 l/m 15,7 km/h (3 Bft) SW 228 0 min 0,000 mm 0,5 UV-I 116 W/m 7,5 C 7,0 C 20,9 km/h (4 Bft) 100,00 %
14.04.2016 17:35 11,7 C 74 % 1011,3 hPa 0,0 l/m 12,2 km/h (2 Bft) W-SW 239 0 min 0,000 mm 0,5 UV-I 110 W/m 7,2 C 8,4 C 16,1 km/h (3 Bft) 100,00 %
14.04.2016 17:36 11,7 C 74 % 1011,3 hPa 0,0 l/m 14,3 km/h (3 Bft) SW 236 0 min 0,000 mm 0,5 UV-I 112 W/m 7,2 C 7,5 C 22,5 km/h (4 Bft) 100,00 %
14.04.2016 17:37 11,7 C 75 % 1011,3 hPa 0,0 l/m 10,6 km/h (2 Bft) SW 234 0 min 0,000 mm 0,0 UV-I 119 W/m 7,4 C 9,2 C 14,5 km/h (3 Bft) 91,30 %
14.04.2016 17:38 11,7 C 75 % 1011,3 hPa 0,0 l/m 15,1 km/h (3 Bft) SW 222 0 min 0,000 mm 0,0 UV-I 126 W/m 7,4 C 7,2 C 19,3 km/h (3 Bft) 100,00 %
14.04.2016 17:39 11,6 C 74 % 1011,3 hPa 0,0 l/m 13,6 km/h (3 Bft) SW 223 0 min 0,000 mm 0,0 UV-I 127 W/m 7,1 C 7,6 C 22,5 km/h (4 Bft) 97,73 %
14.04.2016 17:40 11,6 C 74 % 1011,3 hPa 0,0 l/m 15,6 km/h (3 Bft) W-SW 239 0 min 0,000 mm 0,0 UV-I 124 W/m 7,1 C 6,8 C 20,9 km/h (4 Bft) 100,00 %
14.04.2016 17:41 11,6 C 74 % 1011,3 hPa 0,0 l/m 10,9 km/h (2 Bft) SW 216 0 min 0,000 mm 0,0 UV-I 118 W/m 7,1 C 8,9 C 17,7 km/h (3 Bft) 100,00 %
14.04.2016 17:42 11,6 C 74 % 1011,3 hPa 0,0 l/m 11,3 km/h (2 Bft) SW 229 0 min 0,000 mm 0,0 UV-I 112 W/m 7,1 C 8,7 C 16,1 km/h (3 Bft) 92,31 %
14.04.2016 17:43 11,6 C 74 % 1011,3 hPa 0,0 l/m 11,9 km/h (2 Bft) W-SW 246 0 min 0,000 mm 0,0 UV-I 107 W/m 7,1 C 8,4 C 17,7 km/h (3 Bft) 100,00 %
14.04.2016 17:44 11,6 C 74 % 1011,4 hPa 0,0 l/m 16,8 km/h (3 Bft) SW 219 0 min 0,000 mm 0,0 UV-I 101 W/m 7,1 C 6,4 C 19,3 km/h (3 Bft) 100,00 %
14.04.2016 17:45 11,6 C 74 % 1011,4 hPa 0,0 l/m 12,8 km/h (3 Bft) W-SW 242 0 min 0,000 mm 0,0 UV-I 94 W/m 7,1 C 8,0 C 19,3 km/h (3 Bft) 100,00 %
14.04.2016 17:46 11,6 C 74 % 1011,4 hPa 0,0 l/m 17,5 km/h (3 Bft) S-SW 211 0 min 0,000 mm 0,0 UV-I 90 W/m 7,1 C 6,2 C 22,5 km/h (4 Bft) 100,00 %
14.04.2016 17:47 11,6 C 73 % 1011,4 hPa 0,0 l/m 14,8 km/h (3 Bft) W-SW 238 0 min 0,000 mm 0,0 UV-I 90 W/m 6,9 C 7,2 C 24,1 km/h (4 Bft) 100,00 %
14.04.2016 17:48 11,5 C 73 % 1011,4 hPa 0,0 l/m 16,3 km/h (3 Bft) SW 236 0 min 0,000 mm 0,0 UV-I 91 W/m 6,8 C 6,5 C 19,3 km/h (3 Bft) 100,00 %
14.04.2016 17:49 11,5 C 74 % 1011,4 hPa 0,0 l/m 15,6 km/h (3 Bft) SW 221 0 min 0,000 mm 0,0 UV-I 92 W/m 7,0 C 6,7 C 20,9 km/h (4 Bft) 96,55 %
14.04.2016 17:50 11,5 C 73 % 1011,4 hPa 0,0 l/m 12,3 km/h (3 Bft) W 265 0 min 0,000 mm 0,0 UV-I 94 W/m 6,8 C 8,1 C 17,7 km/h (3 Bft) 100,00 %
14.04.2016 17:51 11,4 C 73 % 1011,4 hPa 0,0 l/m 16,2 km/h (3 Bft) W-SW 237 0 min 0,000 mm 0,0 UV-I 96 W/m 6,7 C 6,4 C 24,1 km/h (4 Bft) 100,00 %
14.04.2016 17:52 11,4 C 74 % 1011,4 hPa 0,0 l/m 11,3 km/h (2 Bft) S-SW 209 0 min 0,000 mm 0,0 UV-I 99 W/m 6,9 C 8,5 C 14,5 km/h (3 Bft) 100,00 %
14.04.2016 17:53 11,4 C 74 % 1011,4 hPa 0,0 l/m 15,6 km/h (3 Bft) S-SW 207 0 min 0,000 mm 0,0 UV-I 106 W/m 6,9 C 6,6 C 25,7 km/h (4 Bft) 100,00 %
14.04.2016 17:54 11,4 C 73 % 1011,4 hPa 0,0 l/m 13,7 km/h (3 Bft) W-SW 238 0 min 0,000 mm 0,0 UV-I 111 W/m 6,7 C 7,4 C 17,7 km/h (3 Bft) 100,00 %
14.04.2016 17:55 11,4 C 73 % 1011,4 hPa 0,0 l/m 13,5 km/h (3 Bft) W 263 0 min 0,000 mm 0,0 UV-I 116 W/m 6,7 C 7,4 C 17,7 km/h (3 Bft) 96,55 %
14.04.2016 17:56 11,4 C 73 % 1011,4 hPa 0,0 l/m 12,9 km/h (3 Bft) W-SW 240 0 min 0,000 mm 0,0 UV-I 119 W/m 6,7 C 7,7 C 19,3 km/h (3 Bft) 91,67 %
14.04.2016 17:57 11,4 C 73 % 1011,4 hPa 0,0 l/m 12,2 km/h (2 Bft) W-SW 246 0 min 0,000 mm 0,0 UV-I 122 W/m 6,7 C 8,0 C 20,9 km/h (4 Bft) 100,00 %
14.04.2016 17:58 11,4 C 74 % 1011,4 hPa 0,0 l/m 14,0 km/h (3 Bft) W 271 0 min 0,000 mm 0,0 UV-I 125 W/m 6,9 C 7,2 C 22,5 km/h (4 Bft) 100,00 %
14.04.2016 17:59 11,4 C 73 % 1011,4 hPa 0,0 l/m 13,8 km/h (3 Bft) SW 233 0 min 0,000 mm 0,0 UV-I 129 W/m 6,7 C 7,3 C 17,7 km/h (3 Bft) 100,00 %
14.04.2016 18:00 11,5 C 73 % 1011,5 hPa 0,0 l/m 12,0 km/h (2 Bft) W-SW 254 0 min 0,000 mm 0,0 UV-I 133 W/m 6,8 C 8,2 C 20,9 km/h (4 Bft) 100,00 %
14.04.2016 18:02 11,5 C 73 % 1011,5 hPa 0,0 l/m 17,0 km/h (3 Bft) W-SW 253 0 min 0,127 mm 0,0 UV-I 133 W/m 6,8 C 6,2 C 27,4 km/h (4 Bft) 98,53 %
14.04.2016 18:03 11,6 C 73 % 1011,5 hPa 0,0 l/m 16,2 km/h (3 Bft) SW 235 0 min 0,000 mm 0,0 UV-I 128 W/m 6,9 C 6,6 C 29,0 km/h (5 Bft) 98,54 %
14.04.2016 18:04 11,6 C 73 % 1011,5 hPa 0,0 l/m 14,2 km/h (3 Bft) SW 234 1 min 0,000 mm 0,0 UV-I 173 W/m 6,9 C 7,4 C 19,3 km/h (3 Bft) 100,00 %
14.04.2016 18:05 11,6 C 72 % 1011,5 hPa 0,0 l/m 19,9 km/h (4 Bft) W 267 0 min 0,000 mm 0,0 UV-I 111 W/m 6,7 C 5,4 C 25,7 km/h (4 Bft) 100,00 %
14.04.2016 18:06 11,6 C 73 % 1011,5 hPa 0,0 l/m 17,6 km/h (3 Bft) S-SW 213 0 min 0,000 mm 0,0 UV-I 100 W/m 6,9 C 6,1 C 25,7 km/h (4 Bft) 100,00 %
14.04.2016 18:07 11,6 C 73 % 1011,5 hPa 0,0 l/m 12,7 km/h (3 Bft) W-SW 250 0 min 0,000 mm 0,0 UV-I 93 W/m 6,9 C 8,0 C 19,3 km/h (3 Bft) 100,00 %
14.04.2016 18:08 11,5 C 73 % 1011,5 hPa 0,0 l/m 15,7 km/h (3 Bft) SW 234 0 min 0,000 mm 0,0 UV-I 116 W/m 6,8 C 6,7 C 25,7 km/h (4 Bft) 95,65 %
14.04.2016 18:09 11,5 C 73 % 1011,5 hPa 0,0 l/m 15,8 km/h (3 Bft) W-SW 241 0 min 0,000 mm 0,0 UV-I 120 W/m 6,8 C 6,6 C 24,1 km/h (4 Bft) 100,00 %
14.04.2016 18:10 11,5 C 73 % 1011,5 hPa 0,0 l/m 14,8 km/h (3 Bft) SW 236 0 min 0,000 mm 0,0 UV-I 140 W/m 6,8 C 7,0 C 22,5 km/h (4 Bft) 100,00 %
14.04.2016 18:11 11,5 C 73 % 1011,6 hPa 0,0 l/m 16,0 km/h (3 Bft) W-SW 244 0 min 0,000 mm 0,0 UV-I 139 W/m 6,8 C 6,6 C 20,9 km/h (4 Bft) 100,00 %
14.04.2016 18:12 11,5 C 73 % 1011,6 hPa 0,0 l/m 18,6 km/h (3 Bft) W-SW 257 0 min 0,000 mm 0,0 UV-I 135 W/m 6,8 C 5,7 C 30,6 km/h (5 Bft) 95,65 %
14.04.2016 18:13 11,5 C 72 % 1011,6 hPa 0,0 l/m 19,8 km/h (3 Bft) W-SW 238 1 min 0,000 mm 0,0 UV-I 204 W/m 6,6 C 5,3 C 30,6 km/h (5 Bft) 100,00 %
14.04.2016 18:14 11,6 C 72 % 1011,6 hPa 0,0 l/m 23,9 km/h (4 Bft) W-SW 242 1 min 0,000 mm 0,0 UV-I 194 W/m 6,7 C 4,3 C 35,4 km/h (5 Bft) 96,15 %
14.04.2016 18:15 11,6 C 72 % 1011,6 hPa 0,0 l/m 21,2 km/h (4 Bft) SW 227 1 min 0,000 mm 0,0 UV-I 205 W/m 6,7 C 5,0 C 25,7 km/h (4 Bft) 100,00 %
14.04.2016 18:16 11,6 C 72 % 1011,6 hPa 0,0 l/m 19,4 km/h (3 Bft) W 263 1 min 0,000 mm 0,0 UV-I 211 W/m 6,7 C 5,5 C 25,7 km/h (4 Bft) 100,00 %
14.04.2016 18:17 11,7 C 72 % 1011,6 hPa 0,0 l/m 17,7 km/h (3 Bft) W-NW 286 1 min 0,000 mm 0,0 UV-I 205 W/m 6,8 C 6,2 C 22,5 km/h (4 Bft) 100,00 %
14.04.2016 18:18 11,7 C 72 % 1011,6 hPa 0,0 l/m 14,9 km/h (3 Bft) W-SW 238 1 min 0,000 mm 0,0 UV-I 218 W/m 6,8 C 7,2 C 22,5 km/h (4 Bft) 100,00 %
14.04.2016 18:19 11,8 C 73 % 1011,6 hPa 0,0 l/m 17,7 km/h (3 Bft) W-SW 257 1 min 0,000 mm 0,0 UV-I 217 W/m 7,1 C 6,3 C 22,5 km/h (4 Bft) 100,00 %
14.04.2016 18:20 11,8 C 72 % 1011,6 hPa 0,0 l/m 20,0 km/h (4 Bft) SW 226 1 min 0,000 mm 0,0 UV-I 214 W/m 6,9 C 5,6 C 29,0 km/h (5 Bft) 100,00 %
14.04.2016 18:21 11,8 C 71 % 1011,6 hPa 0,0 l/m 15,9 km/h (3 Bft) W-SW 244 1 min 0,000 mm 0,0 UV-I 211 W/m 6,7 C 7,0 C 22,5 km/h (4 Bft) 95,65 %
14.04.2016 18:22 11,9 C 72 % 1011,6 hPa 0,0 l/m 15,4 km/h (3 Bft) S-SW 198 1 min 0,000 mm 0,0 UV-I 209 W/m 7,0 C 7,3 C 22,5 km/h (4 Bft) 100,00 %
14.04.2016 18:23 11,9 C 71 % 1011,6 hPa 0,0 l/m 15,5 km/h (3 Bft) W 264 1 min 0,000 mm 0,0 UV-I 205 W/m 6,8 C 7,2 C 22,5 km/h (4 Bft) 100,00 %
14.04.2016 18:24 11,9 C 71 % 1011,6 hPa 0,0 l/m 16,4 km/h (3 Bft) W-SW 237 1 min 0,000 mm 0,0 UV-I 198 W/m 6,8 C 6,9 C 24,1 km/h (4 Bft) 100,00 %
14.04.2016 18:25 12,0 C 72 % 1011,6 hPa 0,0 l/m 17,6 km/h (3 Bft) SW 236 1 min 0,000 mm 0,0 UV-I 191 W/m 7,1 C 6,6 C 24,1 km/h (4 Bft) 100,00 %
14.04.2016 18:26 12,0 C 71 % 1011,6 hPa 0,0 l/m 16,3 km/h (3 Bft) W-SW 248 1 min 0,000 mm 0,0 UV-I 182 W/m 6,9 C 7,1 C 19,3 km/h (3 Bft) 100,00 %
14.04.2016 18:27 12,1 C 71 % 1011,6 hPa 0,0 l/m 17,9 km/h (3 Bft) W-SW 244 1 min 0,000 mm 0,0 UV-I 173 W/m 7,0 C 6,7 C 24,1 km/h (4 Bft) 100,00 %
14.04.2016 18:28 12,1 C 70 % 1011,6 hPa 0,0 l/m 17,1 km/h (3 Bft) W 263 1 min 0,000 mm 0,0 UV-I 162 W/m 6,8 C 6,9 C 24,1 km/h (4 Bft) 100,00 %
14.04.2016 18:29 12,1 C 70 % 1011,6 hPa 0,0 l/m 17,3 km/h (3 Bft) W-SW 243 1 min 0,000 mm 0,0 UV-I 155 W/m 6,8 C 6,9 C 25,7 km/h (4 Bft) 100,00 %
14.04.2016 18:30 12,0 C 70 % 1011,6 hPa 0,0 l/m 18,6 km/h (3 Bft) W-SW 247 1 min 0,000 mm 0,0 UV-I 152 W/m 6,7 C 6,3 C 24,1 km/h (4 Bft) 100,00 %
14.04.2016 18:31 12,0 C 70 % 1011,6 hPa 0,0 l/m 16,0 km/h (3 Bft) W-SW 245 1 min 0,000 mm 0,0 UV-I 149 W/m 6,7 C 7,2 C 20,9 km/h (4 Bft) 95,12 %
14.04.2016 18:32 12,0 C 70 % 1011,5 hPa 0,0 l/m 17,8 km/h (3 Bft) SW 225 1 min 0,000 mm 0,0 UV-I 143 W/m 6,7 C 6,6 C 25,7 km/h (4 Bft) 96,30 %
14.04.2016 18:33 11,9 C 69 % 1011,5 hPa 0,0 l/m 15,9 km/h (3 Bft) W-SW 242 1 min 0,000 mm 0,0 UV-I 139 W/m 6,4 C 7,1 C 19,3 km/h (3 Bft) 100,00 %
14.04.2016 18:34 11,9 C 70 % 1011,5 hPa 0,0 l/m 19,0 km/h (3 Bft) W-SW 246 1 min 0,000 mm 0,0 UV-I 139 W/m 6,6 C 6,0 C 24,1 km/h (4 Bft) 100,00 %
14.04.2016 18:35 11,9 C 70 % 1011,5 hPa 0,0 l/m 17,2 km/h (3 Bft) W-SW 248 1 min 0,000 mm 0,0 UV-I 138 W/m 6,6 C 6,6 C 22,5 km/h (4 Bft) 95,83 %
14.04.2016 18:36 11,9 C 70 % 1011,6 hPa 0,0 l/m 16,7 km/h (3 Bft) SW 230 1 min 0,000 mm 0,0 UV-I 138 W/m 6,6 C 6,8 C 20,9 km/h (4 Bft) 100,00 %
14.04.2016 18:37 11,9 C 71 % 1011,6 hPa 0,0 l/m 13,0 km/h (3 Bft) SW 223 1 min 0,000 mm 0,0 UV-I 137 W/m 6,8 C 8,3 C 19,3 km/h (3 Bft) 95,83 %
14.04.2016 18:38 11,8 C 71 % 1011,6 hPa 0,0 l/m 15,9 km/h (3 Bft) SW 233 1 min 0,000 mm 0,0 UV-I 136 W/m 6,7 C 7,0 C 20,9 km/h (4 Bft) 96,55 %
14.04.2016 18:39 11,8 C 71 % 1011,6 hPa 0,0 l/m 15,8 km/h (3 Bft) SW 235 1 min 0,000 mm 0,0 UV-I 133 W/m 6,7 C 7,0 C 22,5 km/h (4 Bft) 100,00 %
14.04.2016 18:40 11,8 C 70 % 1011,6 hPa 0,0 l/m 15,3 km/h (3 Bft) W-SW 252 1 min 0,000 mm 0,0 UV-I 129 W/m 6,5 C 7,2 C 19,3 km/h (3 Bft) 100,00 %
14.04.2016 18:41 11,8 C 70 % 1011,6 hPa 0,0 l/m 12,1 km/h (2 Bft) SW 218 1 min 0,000 mm 0,0 UV-I 127 W/m 6,5 C 8,5 C 14,5 km/h (3 Bft) 100,00 %
14.04.2016 18:42 11,8 C 71 % 1011,6 hPa 0,0 l/m 19,0 km/h (3 Bft) W-SW 253 1 min 0,000 mm 0,0 UV-I 124 W/m 6,7 C 5,9 C 27,4 km/h (4 Bft) 100,00 %
14.04.2016 18:43 11,7 C 70 % 1011,6 hPa 0,0 l/m 13,8 km/h (3 Bft) W 260 1 min 0,000 mm 0,0 UV-I 121 W/m 6,4 C 7,7 C 24,1 km/h (4 Bft) 100,00 %
14.04.2016 18:44 11,7 C 70 % 1011,6 hPa 0,0 l/m 17,0 km/h (3 Bft) SW 232 1 min 0,000 mm 0,0 UV-I 117 W/m 6,4 C 6,5 C 27,4 km/h (4 Bft) 96,15 %
14.04.2016 18:45 11,7 C 70 % 1011,6 hPa 0,0 l/m 22,8 km/h (4 Bft) W-SW 245 1 min 0,000 mm 0,0 UV-I 114 W/m 6,4 C 4,7 C 30,6 km/h (5 Bft) 100,00 %
14.04.2016 18:46 11,7 C 69 % 1011,6 hPa 0,0 l/m 20,3 km/h (4 Bft) W 263 1 min 0,000 mm 0,0 UV-I 110 W/m 6,2 C 5,4 C 25,7 km/h (4 Bft) 96,30 %
14.04.2016 18:47 11,7 C 69 % 1011,6 hPa 0,0 l/m 17,0 km/h (3 Bft) W-SW 252 1 min 0,000 mm 0,0 UV-I 106 W/m 6,2 C 6,5 C 20,9 km/h (4 Bft) 96,30 %
14.04.2016 18:48 11,7 C 69 % 1011,6 hPa 0,0 l/m 18,9 km/h (3 Bft) W 275 1 min 0,000 mm 0,0 UV-I 103 W/m 6,2 C 5,8 C 25,7 km/h (4 Bft) 96,15 %
14.04.2016 18:49 11,7 C 69 % 1011,6 hPa 0,0 l/m 18,4 km/h (3 Bft) W 265 1 min 0,000 mm 0,0 UV-I 101 W/m 6,2 C 6,0 C 22,5 km/h (4 Bft) 95,83 %
14.04.2016 18:50 11,6 C 69 % 1011,6 hPa 0,0 l/m 14,9 km/h (3 Bft) W-SW 244 1 min 0,000 mm 0,0 UV-I 98 W/m 6,1 C 7,1 C 19,3 km/h (3 Bft) 95,65 %
14.04.2016 18:51 11,6 C 70 % 1011,6 hPa 0,0 l/m 16,8 km/h (3 Bft) SW 233 1 min 0,000 mm 0,0 UV-I 97 W/m 6,3 C 6,4 C 22,5 km/h (4 Bft) 93,33 %
14.04.2016 18:52 11,6 C 70 % 1011,6 hPa 0,0 l/m 13,0 km/h (3 Bft) W-SW 254 1 min 0,000 mm 0,0 UV-I 93 W/m 6,3 C 7,9 C 19,3 km/h (3 Bft) 96,55 %
14.04.2016 18:53 11,6 C 71 % 1011,7 hPa 0,0 l/m 13,3 km/h (3 Bft) W-SW 253 1 min 0,000 mm 0,0 UV-I 89 W/m 6,5 C 7,8 C 17,7 km/h (3 Bft) 93,33 %
14.04.2016 18:54 11,5 C 71 % 1011,8 hPa 0,0 l/m 13,5 km/h (3 Bft) SW 219 1 min 0,000 mm 0,0 UV-I 85 W/m 6,4 C 7,6 C 16,1 km/h (3 Bft) 100,00 %
14.04.2016 18:55 11,4 C 72 % 1011,7 hPa 0,0 l/m 13,4 km/h (3 Bft) SW 234 0 min 0,000 mm 0,0 UV-I 79 W/m 6,5 C 7,5 C 20,9 km/h (4 Bft) 96,15 %
14.04.2016 18:56 11,4 C 71 % 1011,6 hPa 0,0 l/m 17,0 km/h (3 Bft) W-SW 253 0 min 0,000 mm 0,0 UV-I 65 W/m 6,3 C 6,1 C 24,1 km/h (4 Bft) 92,31 %
14.04.2016 18:57 11,3 C 71 % 1011,7 hPa 0,0 l/m 16,7 km/h (3 Bft) W-SW 237 0 min 0,000 mm 0,0 UV-I 42 W/m 6,2 C 6,1 C 22,5 km/h (4 Bft) 100,00 %
14.04.2016 18:58 11,3 C 72 % 1011,6 hPa 0,0 l/m 15,8 km/h (3 Bft) W-SW 243 0 min 0,000 mm 0,0 UV-I 36 W/m 6,4 C 6,4 C 22,5 km/h (4 Bft) 100,00 %
14.04.2016 18:59 11,2 C 72 % 1011,7 hPa 0,0 l/m 15,2 km/h (3 Bft) SW 221 0 min 0,000 mm 0,0 UV-I 35 W/m 6,3 C 6,5 C 19,3 km/h (3 Bft) 92,86 %
14.04.2016 19:00 11,2 C 72 % 1011,7 hPa 0,0 l/m 15,0 km/h (3 Bft) W-SW 240 0 min 0,000 mm 0,0 UV-I 34 W/m 6,3 C 6,6 C 20,9 km/h (4 Bft) 97,62 %
14.04.2016 19:01 11,1 C 73 % 1011,8 hPa 0,0 l/m 18,8 km/h (3 Bft) W-SW 248 0 min 0,127 mm 0,0 UV-I 32 W/m 6,4 C 5,1 C 24,1 km/h (4 Bft) 100,00 %
14.04.2016 19:02 11,1 C 72 % 1011,8 hPa 0,0 l/m 13,9 km/h (3 Bft) SW 219 0 min 0,000 mm 0,0 UV-I 32 W/m 6,2 C 6,9 C 19,3 km/h (3 Bft) 96,97 %
14.04.2016 19:03 11,1 C 73 % 1011,8 hPa 0,0 l/m 15,1 km/h (3 Bft) W-SW 239 0 min 0,000 mm 0,0 UV-I 45 W/m 6,4 C 6,4 C 20,9 km/h (4 Bft) 88,46 %
14.04.2016 19:04 11,0 C 73 % 1011,8 hPa 0,0 l/m 16,9 km/h (3 Bft) SW 219 0 min 0,000 mm 0,0 UV-I 53 W/m 6,4 C 5,6 C 22,5 km/h (4 Bft) 100,00 %
14.04.2016 19:05 11,0 C 73 % 1012,0 hPa 0,0 l/m 16,7 km/h (3 Bft) W-SW 246 0 min 0,000 mm 0,0 UV-I 53 W/m 6,4 C 5,7 C 24,1 km/h (4 Bft) 100,00 %
14.04.2016 19:06 11,0 C 73 % 1011,9 hPa 0,0 l/m 15,1 km/h (3 Bft) S-SW 211 0 min 0,000 mm 0,0 UV-I 52 W/m 6,4 C 6,3 C 22,5 km/h (4 Bft) 96,67 %
14.04.2016 19:07 11,0 C 73 % 1011,9 hPa 0,0 l/m 12,6 km/h (3 Bft) SW 232 0 min 0,000 mm 0,0 UV-I 51 W/m 6,4 C 7,4 C 16,1 km/h (3 Bft) 96,15 %
14.04.2016 19:08 10,9 C 73 % 1011,9 hPa 0,0 l/m 15,4 km/h (3 Bft) SW 228 0 min 0,000 mm 0,0 UV-I 51 W/m 6,3 C 6,1 C 24,1 km/h (4 Bft) 100,00 %
14.04.2016 19:09 10,9 C 73 % 1011,9 hPa 0,0 l/m 15,9 km/h (3 Bft) W-SW 249 0 min 0,000 mm 0,0 UV-I 53 W/m 6,3 C 5,9 C 20,9 km/h (4 Bft) 91,30 %
14.04.2016 19:10 10,9 C 73 % 1011,8 hPa 0,0 l/m 13,8 km/h (3 Bft) W-SW 244 0 min 0,000 mm 0,0 UV-I 53 W/m 6,3 C 6,7 C 20,9 km/h (4 Bft) 100,00 %
14.04.2016 19:11 10,9 C 73 % 1011,9 hPa 0,0 l/m 12,0 km/h (2 Bft) SW 229 0 min 0,000 mm 0,0 UV-I 53 W/m 6,3 C 7,6 C 17,7 km/h (3 Bft) 98,50 %
14.04.2016 19:12 10,9 C 73 % 1011,9 hPa 0,0 l/m 9,6 km/h (2 Bft) SW 223 0 min 0,000 mm 0,0 UV-I 53 W/m 6,3 C 8,8 C 17,7 km/h (3 Bft) 97,73 %
14.04.2016 19:13 10,9 C 73 % 1011,9 hPa 0,0 l/m 11,9 km/h (2 Bft) W-SW 244 0 min 0,000 mm 0,0 UV-I 53 W/m 6,3 C 7,6 C 17,7 km/h (3 Bft) 96,15 %
14.04.2016 19:14 11,0 C 73 % 1011,9 hPa 0,0 l/m 9,6 km/h (2 Bft) SW 225 1 min 0,000 mm 0,0 UV-I 53 W/m 6,4 C 8,9 C 12,9 km/h (3 Bft) 96,30 %
14.04.2016 19:15 11,0 C 73 % 1011,9 hPa 0,0 l/m 11,2 km/h (2 Bft) S 182 1 min 0,000 mm 0,0 UV-I 53 W/m 6,4 C 8,1 C 17,7 km/h (3 Bft) 100,00 %
14.04.2016 19:16 11,0 C 73 % 1011,9 hPa 0,0 l/m 11,0 km/h (2 Bft) SW 229 1 min 0,000 mm 0,0 UV-I 53 W/m 6,4 C 8,2 C 16,1 km/h (3 Bft) 93,10 %
14.04.2016 19:17 11,0 C 73 % 1011,9 hPa 0,0 l/m 11,4 km/h (2 Bft) SW 214 1 min 0,000 mm 0,0 UV-I 53 W/m 6,4 C 8,0 C 17,7 km/h (3 Bft) 100,00 %
14.04.2016 19:18 11,0 C 74 % 1011,9 hPa 0,0 l/m 13,7 km/h (3 Bft) S-SW 207 1 min 0,000 mm 0,0 UV-I 53 W/m 6,5 C 6,9 C 20,9 km/h (4 Bft) 100,00 %
14.04.2016 19:19 11,0 C 74 % 1011,9 hPa 0,0 l/m 8,4 km/h (2 Bft) SW 231 1 min 0,000 mm 0,0 UV-I 53 W/m 6,5 C 9,6 C 11,3 km/h (2 Bft) 100,00 %
14.04.2016 19:20 11,0 C 74 % 1011,9 hPa 0,0 l/m 12,3 km/h (3 Bft) S-SW 213 1 min 0,000 mm 0,0 UV-I 51 W/m 6,5 C 7,5 C 16,1 km/h (3 Bft) 95,65 %
14.04.2016 19:21 11,0 C 74 % 1011,9 hPa 0,0 l/m 12,2 km/h (2 Bft) S-SW 211 1 min 0,000 mm 0,0 UV-I 51 W/m 6,5 C 7,6 C 16,1 km/h (3 Bft) 100,00 %
14.04.2016 19:22 11,0 C 74 % 1011,9 hPa 0,0 l/m 12,9 km/h (3 Bft) S-SW 212 1 min 0,000 mm 0,0 UV-I 49 W/m 6,5 C 7,2 C 19,3 km/h (3 Bft) 100,00 %
14.04.2016 19:23 11,0 C 74 % 1012,0 hPa 0,0 l/m 12,4 km/h (3 Bft) W-SW 252 1 min 0,000 mm 0,0 UV-I 48 W/m 6,5 C 7,5 C 17,7 km/h (3 Bft) 95,83 %
14.04.2016 19:24 10,9 C 74 % 1012,0 hPa 0,0 l/m 8,6 km/h (2 Bft) W-SW 244 1 min 0,000 mm 0,0 UV-I 47 W/m 6,5 C 9,4 C 16,1 km/h (3 Bft) 100,00 %
14.04.2016 19:25 10,9 C 74 % 1012,0 hPa 0,0 l/m 13,7 km/h (3 Bft) W-SW 246 1 min 0,000 mm 0,0 UV-I 46 W/m 6,5 C 6,8 C 19,3 km/h (3 Bft) 100,00 %
14.04.2016 19:26 10,9 C 74 % 1012,0 hPa 0,0 l/m 9,8 km/h (2 Bft) W-SW 244 1 min 0,000 mm 0,0 UV-I 44 W/m 6,5 C 8,7 C 12,9 km/h (3 Bft) 100,00 %
14.04.2016 19:27 10,9 C 75 % 1012,0 hPa 0,0 l/m 8,8 km/h (2 Bft) W-SW 243 1 min 0,000 mm 0,0 UV-I 42 W/m 6,6 C 9,3 C 16,1 km/h (3 Bft) 100,00 %
14.04.2016 19:28 10,9 C 75 % 1012,0 hPa 0,0 l/m 8,7 km/h (2 Bft) W-SW 246 1 min 0,000 mm 0,0 UV-I 40 W/m 6,6 C 9,4 C 14,5 km/h (3 Bft) 100,00 %
14.04.2016 19:29 10,8 C 75 % 1012,0 hPa 0,0 l/m 8,4 km/h (2 Bft) S-SW 211 1 min 0,000 mm 0,0 UV-I 38 W/m 6,5 C 9,4 C 12,9 km/h (3 Bft) 96,67 %
14.04.2016 19:30 10,8 C 75 % 1012,0 hPa 0,0 l/m 9,0 km/h (2 Bft) W-SW 242 1 min 0,000 mm 0,0 UV-I 35 W/m 6,5 C 9,1 C 11,3 km/h (2 Bft) 100,00 %
14.04.2016 19:31 10,8 C 75 % 1012,0 hPa 0,0 l/m 7,1 km/h (2 Bft) SW 235 1 min 0,000 mm 0,0 UV-I 32 W/m 6,5 C 10,3 C 9,7 km/h (2 Bft) 100,00 %
14.04.2016 19:32 10,8 C 75 % 1012,0 hPa 0,0 l/m 5,0 km/h (1 Bft) SW 232 1 min 0,000 mm 0,0 UV-I 30 W/m 6,5 C 10,8 C 8,0 km/h (2 Bft) 100,00 %
14.04.2016 19:33 10,8 C 75 % 1012,0 hPa 0,0 l/m 8,5 km/h (2 Bft) SW 230 1 min 0,000 mm 0,0 UV-I 28 W/m 6,5 C 9,4 C 12,9 km/h (3 Bft) 100,00 %
14.04.2016 19:34 10,8 C 76 % 1012,0 hPa 0,0 l/m 6,1 km/h (2 Bft) SW 226 1 min 0,000 mm 0,0 UV-I 26 W/m 6,7 C 10,8 C 8,0 km/h (2 Bft) 100,00 %
14.04.2016 19:35 10,8 C 75 % 1012,0 hPa 0,0 l/m 8,3 km/h (2 Bft) W-SW 251 1 min 0,000 mm 0,0 UV-I 25 W/m 6,5 C 9,5 C 14,5 km/h (3 Bft) 100,00 %
14.04.2016 19:36 10,8 C 75 % 1012,0 hPa 0,0 l/m 6,8 km/h (2 Bft) S-SW 208 1 min 0,000 mm 0,0 UV-I 25 W/m 6,5 C 10,5 C 9,7 km/h (2 Bft) 100,00 %
14.04.2016 19:37 10,7 C 75 % 1012,0 hPa 0,0 l/m 8,9 km/h (2 Bft) SW 225 1 min 0,000 mm 0,0 UV-I 25 W/m 6,5 C 9,0 C 11,3 km/h (2 Bft) 100,00 %
14.04.2016 19:38 10,7 C 76 % 1012,0 hPa 0,0 l/m 7,8 km/h (2 Bft) W-SW 254 1 min 0,000 mm 0,0 UV-I 23 W/m 6,6 C 9,7 C 12,9 km/h (3 Bft) 100,00 %
14.04.2016 19:39 10,7 C 75 % 1012,1 hPa 0,0 l/m 9,1 km/h (2 Bft) S 189 1 min 0,000 mm 0,0 UV-I 21 W/m 6,5 C 8,9 C 14,5 km/h (3 Bft) 100,00 %
14.04.2016 19:40 10,7 C 76 % 1012,0 hPa 0,0 l/m 10,1 km/h (2 Bft) S-SW 205 1 min 0,000 mm 0,0 UV-I 20 W/m 6,6 C 8,3 C 12,9 km/h (3 Bft) 100,00 %
14.04.2016 19:41 10,7 C 76 % 1012,0 hPa 0,0 l/m 10,3 km/h (2 Bft) SW 222 1 min 0,000 mm 0,0 UV-I 18 W/m 6,6 C 8,2 C 14,5 km/h (3 Bft) 96,15 %
14.04.2016 19:42 10,6 C 76 % 1012,0 hPa 0,0 l/m 10,2 km/h (2 Bft) S-SW 211 1 min 0,000 mm 0,0 UV-I 16 W/m 6,5 C 8,1 C 14,5 km/h (3 Bft) 100,00 %
14.04.2016 19:43 10,6 C 76 % 1012,1 hPa 0,0 l/m 7,1 km/h (2 Bft) S-SW 202 0 min 0,000 mm 0,0 UV-I 16 W/m 6,5 C 10,1 C 9,7 km/h (2 Bft) 100,00 %
14.04.2016 19:44 10,6 C 76 % 1012,1 hPa 0,0 l/m 7,3 km/h (2 Bft) W-SW 239 0 min 0,000 mm 0,0 UV-I 14 W/m 6,5 C 10,0 C 14,5 km/h (3 Bft) 100,00 %
14.04.2016 19:45 10,6 C 76 % 1012,1 hPa 0,0 l/m 9,7 km/h (2 Bft) SW 236 0 min 0,000 mm 0,0 UV-I 12 W/m 6,5 C 8,4 C 12,9 km/h (3 Bft) 100,00 %
14.04.2016 19:46 10,6 C 76 % 1012,1 hPa 0,0 l/m 11,3 km/h (2 Bft) SW 234 0 min 0,000 mm 0,0 UV-I 12 W/m 6,5 C 7,6 C 16,1 km/h (3 Bft) 100,00 %
14.04.2016 19:47 10,6 C 76 % 1012,1 hPa 0,0 l/m 8,4 km/h (2 Bft) SW 229 0 min 0,000 mm 0,0 UV-I 11 W/m 6,5 C 9,2 C 14,5 km/h (3 Bft) 100,00 %
14.04.2016 19:48 10,5 C 76 % 1012,2 hPa 0,0 l/m 6,6 km/h (2 Bft) SW 219 0 min 0,000 mm 0,0 UV-I 10 W/m 6,5 C 10,4 C 9,7 km/h (2 Bft) 100,00 %
14.04.2016 19:49 10,5 C 76 % 1012,2 hPa 0,0 l/m 7,0 km/h (2 Bft) SW 236 0 min 0,000 mm 0,0 UV-I 9 W/m 6,5 C 10,1 C 9,7 km/h (2 Bft) 100,00 %
14.04.2016 19:50 10,4 C 76 % 1012,2 hPa 0,0 l/m 7,7 km/h (2 Bft) SW 214 0 min 0,000 mm 0,0 UV-I 7 W/m 6,4 C 9,5 C 12,9 km/h (3 Bft) 100,00 %
14.04.2016 19:51 10,4 C 76 % 1012,2 hPa 0,0 l/m 9,3 km/h (2 Bft) SW 227 0 min 0,000 mm 0,0 UV-I 7 W/m 6,4 C 8,4 C 12,9 km/h (3 Bft) 100,00 %
14.04.2016 19:52 10,4 C 76 % 1012,2 hPa 0,0 l/m 8,2 km/h (2 Bft) SW 236 0 min 0,000 mm 0,0 UV-I 6 W/m 6,4 C 9,1 C 9,7 km/h (2 Bft) 100,00 %
14.04.2016 19:53 10,3 C 76 % 1012,2 hPa 0,0 l/m 6,9 km/h (2 Bft) W-SW 251 0 min 0,000 mm 0,0 UV-I 5 W/m 6,3 C 9,9 C 8,0 km/h (2 Bft) 100,00 %
14.04.2016 19:54 10,3 C 77 % 1012,2 hPa 0,0 l/m 5,3 km/h (1 Bft) SW 232 0 min 0,000 mm 0,0 UV-I 5 W/m 6,4 C 10,3 C 6,4 km/h (2 Bft) 100,00 %
14.04.2016 19:55 10,3 C 77 % 1012,2 hPa 0,0 l/m 4,4 km/h (1 Bft) W-SW 257 0 min 0,000 mm 0,0 UV-I 5 W/m 6,4 C 10,3 C 6,4 km/h (2 Bft) 100,00 %
14.04.2016 19:56 10,2 C 77 % 1012,2 hPa 0,0 l/m 5,3 km/h (1 Bft) W-SW 250 0 min 0,000 mm 0,0 UV-I 0 W/m 6,4 C 10,2 C 11,3 km/h (2 Bft) 100,00 %
14.04.2016 19:57 10,1 C 77 % 1012,2 hPa 0,0 l/m 6,7 km/h (2 Bft) W-SW 238 0 min 0,000 mm 0,0 UV-I 0 W/m 6,3 C 9,9 C 11,3 km/h (2 Bft) 100,00 %
14.04.2016 19:58 10,1 C 77 % 1012,3 hPa 0,0 l/m 5,6 km/h (1 Bft) SW 227 0 min 0,000 mm 0,0 UV-I 0 W/m 6,3 C 10,1 C 8,0 km/h (2 Bft) 100,00 %
14.04.2016 19:59 10,1 C 77 % 1012,3 hPa 0,0 l/m 5,5 km/h (1 Bft) W-SW 240 0 min 0,000 mm 0,0 UV-I 0 W/m 6,3 C 10,1 C 8,0 km/h (2 Bft) 100,00 %
14.04.2016 20:00 10,0 C 77 % 1012,3 hPa 0,0 l/m 7,4 km/h (2 Bft) W-SW 238 0 min 0,000 mm 0,0 UV-I 0 W/m 6,2 C 9,3 C 11,3 km/h (2 Bft) 100,00 %
14.04.2016 20:01 10,0 C 78 % 1012,3 hPa 0,0 l/m 7,7 km/h (2 Bft) SW 221 0 min 0,050 mm 0,0 UV-I 0 W/m 6,3 C 9,1 C 9,7 km/h (2 Bft) 100,00 %
14.04.2016 20:02 9,9 C 78 % 1012,3 hPa 0,0 l/m 5,8 km/h (2 Bft) W-SW 241 0 min 0,000 mm 0,0 UV-I 0 W/m 6,2 C 9,9 C 11,3 km/h (2 Bft) 100,00 %
14.04.2016 20:03 9,9 C 77 % 1012,3 hPa 0,0 l/m 7,2 km/h (2 Bft) SW 231 0 min 0,000 mm 0,0 UV-I 0 W/m 6,1 C 9,3 C 11,3 km/h (2 Bft) 100,00 %
14.04.2016 20:04 9,8 C 77 % 1012,3 hPa 0,0 l/m 6,2 km/h (2 Bft) W-SW 242 0 min 0,000 mm 0,0 UV-I 0 W/m 6,0 C 9,8 C 8,0 km/h (2 Bft) 100,00 %
14.04.2016 20:05 9,8 C 78 % 1012,3 hPa 0,0 l/m 7,4 km/h (2 Bft) S-SW 206 0 min 0,000 mm 0,0 UV-I 0 W/m 6,1 C 9,1 C 9,7 km/h (2 Bft) 100,00 %
14.04.2016 20:06 9,8 C 78 % 1012,3 hPa 0,0 l/m 5,8 km/h (2 Bft) S-SW 212 0 min 0,000 mm 0,0 UV-I 0 W/m 6,1 C 9,8 C 8,0 km/h (2 Bft) 100,00 %
14.04.2016 20:07 9,8 C 77 % 1012,3 hPa 0,0 l/m 5,7 km/h (1 Bft) S 182 0 min 0,000 mm 0,0 UV-I 0 W/m 6,0 C 9,8 C 9,7 km/h (2 Bft) 100,00 %
14.04.2016 20:08 9,8 C 77 % 1012,3 hPa 0,0 l/m 6,6 km/h (2 Bft) SW 232 0 min 0,000 mm 0,0 UV-I 0 W/m 6,0 C 9,7 C 11,3 km/h (2 Bft) 100,00 %
14.04.2016 20:09 9,8 C 77 % 1012,3 hPa 0,0 l/m 8,9 km/h (2 Bft) SW 218 0 min 0,000 mm 0,0 UV-I 0 W/m 6,0 C 8,0 C 11,3 km/h (2 Bft) 100,00 %
14.04.2016 20:10 9,8 C 77 % 1012,4 hPa 0,0 l/m 9,0 km/h (2 Bft) S 185 0 min 0,000 mm 0,0 UV-I 0 W/m 6,0 C 8,0 C 14,5 km/h (3 Bft) 100,00 %
14.04.2016 20:11 9,8 C 77 % 1012,4 hPa 0,0 l/m 6,7 km/h (2 Bft) S-SW 211 0 min 0,000 mm 0,0 UV-I 0 W/m 6,0 C 9,6 C 8,0 km/h (2 Bft) 100,00 %
14.04.2016 20:12 9,8 C 77 % 1012,4 hPa 0,0 l/m 9,9 km/h (2 Bft) SW 220 0 min 0,000 mm 0,0 UV-I 0 W/m 6,0 C 7,4 C 14,5 km/h (3 Bft) 100,00 %
14.04.2016 20:13 9,8 C 77 % 1012,4 hPa 0,0 l/m 8,8 km/h (2 Bft) S 188 0 min 0,000 mm 0,0 UV-I 0 W/m 6,0 C 8,1 C 16,1 km/h (3 Bft) 100,00 %
14.04.2016 20:14 9,8 C 76 % 1012,4 hPa 0,0 l/m 10,0 km/h (2 Bft) S-SW 207 0 min 0,000 mm 0,0 UV-I 0 W/m 5,8 C 7,4 C 14,5 km/h (3 Bft) 100,00 %
14.04.2016 20:15 9,8 C 76 % 1012,5 hPa 0,0 l/m 6,7 km/h (2 Bft) S-SW 203 0 min 0,000 mm 0,0 UV-I 0 W/m 5,8 C 9,6 C 11,3 km/h (2 Bft) 100,00 %
14.04.2016 20:16 9,8 C 76 % 1012,4 hPa 0,0 l/m 7,5 km/h (2 Bft) W-SW 240 0 min 0,000 mm 0,0 UV-I 0 W/m 5,8 C 9,0 C 9,7 km/h (2 Bft) 100,00 %
14.04.2016 20:17 9,8 C 76 % 1012,5 hPa 0,0 l/m 7,6 km/h (2 Bft) S 191 0 min 0,000 mm 0,0 UV-I 0 W/m 5,8 C 8,9 C 14,5 km/h (3 Bft) 100,00 %
14.04.2016 20:18 9,8 C 76 % 1012,4 hPa 0,0 l/m 7,3 km/h (2 Bft) S-SW 211 0 min 0,000 mm 0,0 UV-I 0 W/m 5,8 C 9,1 C 12,9 km/h (3 Bft) 100,00 %
14.04.2016 20:19 9,8 C 76 % 1012,4 hPa 0,0 l/m 6,9 km/h (2 Bft) SW 231 0 min 0,000 mm 0,0 UV-I 0 W/m 5,8 C 9,4 C 12,9 km/h (3 Bft) 94,74 %
14.04.2016 20:20 9,8 C 76 % 1012,5 hPa 0,0 l/m 6,8 km/h (2 Bft) S-SW 213 0 min 0,000 mm 0,0 UV-I 0 W/m 5,8 C 9,5 C 11,3 km/h (2 Bft) 100,00 %
14.04.2016 20:21 9,8 C 76 % 1012,4 hPa 0,0 l/m 7,5 km/h (2 Bft) SW 215 0 min 0,000 mm 0,0 UV-I 0 W/m 5,8 C 9,0 C 11,3 km/h (2 Bft) 100,00 %
14.04.2016 20:22 9,8 C 76 % 1012,5 hPa 0,0 l/m 8,1 km/h (2 Bft) S-SO 161 0 min 0,000 mm 0,0 UV-I 0 W/m 5,8 C 8,6 C 16,1 km/h (3 Bft) 100,00 %
14.04.2016 20:23 9,7 C 76 % 1012,5 hPa 0,0 l/m 10,8 km/h (2 Bft) S-SW 205 0 min 0,000 mm 0,0 UV-I 0 W/m 5,7 C 6,8 C 14,5 km/h (3 Bft) 100,00 %
14.04.2016 20:24 9,7 C 76 % 1012,5 hPa 0,0 l/m 7,4 km/h (2 Bft) W-SW 248 0 min 0,000 mm 0,0 UV-I 0 W/m 5,7 C 9,0 C 9,7 km/h (2 Bft) 96,30 %
14.04.2016 20:25 9,7 C 76 % 1012,5 hPa 0,0 l/m 5,6 km/h (1 Bft) SW 216 0 min 0,000 mm 0,0 UV-I 0 W/m 5,7 C 9,7 C 12,9 km/h (3 Bft) 100,00 %
14.04.2016 20:26 9,7 C 77 % 1012,5 hPa 0,0 l/m 8,2 km/h (2 Bft) SW 229 0 min 0,000 mm 0,0 UV-I 0 W/m 5,9 C 8,4 C 9,7 km/h (2 Bft) 100,00 %
14.04.2016 20:27 9,6 C 77 % 1012,5 hPa 0,0 l/m 10,2 km/h (2 Bft) SW 234 0 min 0,000 mm 0,0 UV-I 0 W/m 5,8 C 7,0 C 16,1 km/h (3 Bft) 92,86 %
14.04.2016 20:28 9,6 C 77 % 1012,5 hPa 0,0 l/m 9,6 km/h (2 Bft) SW 227 0 min 0,000 mm 0,0 UV-I 0 W/m 5,8 C 7,4 C 17,7 km/h (3 Bft) 100,00 %
14.04.2016 20:29 9,6 C 77 % 1012,5 hPa 0,0 l/m 13,5 km/h (3 Bft) SW 233 0 min 0,000 mm 0,0 UV-I 0 W/m 5,8 C 5,3 C 19,3 km/h (3 Bft) 100,00 %
14.04.2016 20:30 9,5 C 77 % 1012,5 hPa 0,0 l/m 9,9 km/h (2 Bft) SW 236 0 min 0,000 mm 0,0 UV-I 0 W/m 5,7 C 7,1 C 16,1 km/h (3 Bft) 100,00 %
14.04.2016 20:31 9,5 C 77 % 1012,5 hPa 0,0 l/m 11,8 km/h (2 Bft) SW 217 0 min 0,000 mm 0,0 UV-I 0 W/m 5,7 C 6,0 C 16,1 km/h (3 Bft) 98,56 %
14.04.2016 20:32 9,4 C 78 % 1012,6 hPa 0,0 l/m 10,6 km/h (2 Bft) SW 227 0 min 0,000 mm 0,0 UV-I 0 W/m 5,8 C 6,6 C 17,7 km/h (3 Bft) 100,00 %
14.04.2016 20:33 9,4 C 78 % 1012,6 hPa 0,0 l/m 10,6 km/h (2 Bft) W-SW 239 0 min 0,000 mm 0,0 UV-I 0 W/m 5,8 C 6,6 C 16,1 km/h (3 Bft) 100,00 %
14.04.2016 20:34 9,4 C 78 % 1012,7 hPa 0,0 l/m 10,1 km/h (2 Bft) SW 235 0 min 0,000 mm 0,0 UV-I 0 W/m 5,8 C 6,9 C 16,1 km/h (3 Bft) 100,00 %
14.04.2016 20:35 9,4 C 77 % 1012,7 hPa 0,0 l/m 10,9 km/h (2 Bft) W-SW 242 0 min 0,000 mm 0,0 UV-I 0 W/m 5,6 C 6,4 C 16,1 km/h (3 Bft) 96,55 %
14.04.2016 20:36 9,4 C 78 % 1012,7 hPa 0,0 l/m 11,7 km/h (2 Bft) S 180 0 min 0,000 mm 0,0 UV-I 0 W/m 5,8 C 6,0 C 17,7 km/h (3 Bft) 96,30 %
14.04.2016 20:37 9,4 C 77 % 1012,7 hPa 0,0 l/m 10,2 km/h (2 Bft) S 190 0 min 0,000 mm 0,0 UV-I 0 W/m 5,6 C 6,8 C 14,5 km/h (3 Bft) 100,00 %
14.04.2016 20:38 9,4 C 77 % 1012,7 hPa 0,0 l/m 11,1 km/h (2 Bft) S-SW 209 0 min 0,000 mm 0,0 UV-I 0 W/m 5,6 C 6,3 C 17,7 km/h (3 Bft) 100,00 %
14.04.2016 20:39 9,4 C 77 % 1012,7 hPa 0,0 l/m 11,2 km/h (2 Bft) SW 231 0 min 0,000 mm 0,0 UV-I 0 W/m 5,6 C 6,2 C 16,1 km/h (3 Bft) 100,00 %
14.04.2016 20:40 9,4 C 77 % 1012,7 hPa 0,0 l/m 12,4 km/h (3 Bft) W-SW 242 0 min 0,000 mm 0,0 UV-I 0 W/m 5,6 C 5,6 C 17,7 km/h (3 Bft) 96,15 %
14.04.2016 20:41 9,5 C 77 % 1012,7 hPa 0,0 l/m 12,9 km/h (3 Bft) W-SW 240 0 min 0,000 mm 0,0 UV-I 0 W/m 5,7 C 5,5 C 17,7 km/h (3 Bft) 100,00 %
14.04.2016 20:42 9,4 C 78 % 1012,7 hPa 0,0 l/m 12,3 km/h (3 Bft) SW 215 0 min 0,000 mm 0,0 UV-I 0 W/m 5,8 C 5,7 C 17,7 km/h (3 Bft) 96,15 %
14.04.2016 20:43 9,5 C 77 % 1012,8 hPa 0,0 l/m 12,2 km/h (2 Bft) SW 220 0 min 0,000 mm 0,0 UV-I 0 W/m 5,7 C 5,8 C 17,7 km/h (3 Bft) 100,00 %
14.04.2016 20:44 9,4 C 77 % 1012,8 hPa 0,0 l/m 12,4 km/h (3 Bft) W-SW 254 0 min 0,000 mm 0,0 UV-I 0 W/m 5,6 C 5,6 C 19,3 km/h (3 Bft) 100,00 %
14.04.2016 20:45 9,4 C 77 % 1012,8 hPa 0,0 l/m 17,4 km/h (3 Bft) SW 217 0 min 0,000 mm 0,0 UV-I 0 W/m 5,6 C 3,4 C 20,9 km/h (4 Bft) 100,00 %
14.04.2016 20:46 9,5 C 77 % 1012,8 hPa 0,0 l/m 11,1 km/h (2 Bft) S-SW 201 0 min 0,000 mm 0,0 UV-I 0 W/m 5,7 C 6,4 C 17,7 km/h (3 Bft) 96,15 %
14.04.2016 20:47 9,5 C 78 % 1012,8 hPa 0,0 l/m 16,2 km/h (3 Bft) S-SW 204 0 min 0,000 mm 0,0 UV-I 0 W/m 5,9 C 4,0 C 22,5 km/h (4 Bft) 100,00 %
14.04.2016 20:48 9,5 C 77 % 1012,8 hPa 0,0 l/m 17,1 km/h (3 Bft) S-SW 212 0 min 0,000 mm 0,0 UV-I 0 W/m 5,7 C 3,7 C 24,1 km/h (4 Bft) 92,31 %
14.04.2016 20:49 9,5 C 77 % 1012,8 hPa 0,0 l/m 16,6 km/h (3 Bft) SW 232 0 min 0,000 mm 0,0 UV-I 0 W/m 5,7 C 3,9 C 24,1 km/h (4 Bft) 96,30 %
14.04.2016 20:50 9,5 C 78 % 1012,8 hPa 0,0 l/m 11,1 km/h (2 Bft) W-SW 242 0 min 0,000 mm 0,0 UV-I 0 W/m 5,9 C 6,4 C 16,1 km/h (3 Bft) 100,00 %
14.04.2016 20:51 9,5 C 78 % 1012,9 hPa 0,0 l/m 13,3 km/h (3 Bft) W-SW 242 0 min 0,000 mm 0,0 UV-I 0 W/m 5,9 C 5,3 C 17,7 km/h (3 Bft) 93,33 %
14.04.2016 20:52 9,5 C 78 % 1012,8 hPa 0,0 l/m 14,6 km/h (3 Bft) W 259 0 min 0,000 mm 0,0 UV-I 0 W/m 5,9 C 4,7 C 19,3 km/h (3 Bft) 100,00 %
14.04.2016 20:53 9,5 C 78 % 1012,9 hPa 0,0 l/m 13,5 km/h (3 Bft) S-SW 209 0 min 0,000 mm 0,0 UV-I 0 W/m 5,9 C 5,2 C 19,3 km/h (3 Bft) 95,83 %
14.04.2016 20:54 9,4 C 78 % 1012,8 hPa 0,0 l/m 13,4 km/h (3 Bft) SW 234 0 min 0,000 mm 0,0 UV-I 0 W/m 5,8 C 5,1 C 19,3 km/h (3 Bft) 100,00 %
14.04.2016 20:55 9,4 C 78 % 1012,9 hPa 0,0 l/m 9,5 km/h (2 Bft) SW 216 0 min 0,000 mm 0,0 UV-I 0 W/m 5,8 C 7,2 C 14,5 km/h (3 Bft) 94,44 %
14.04.2016 20:56 9,5 C 78 % 1012,8 hPa 0,0 l/m 10,8 km/h (2 Bft) SW 229 0 min 0,000 mm 0,0 UV-I 0 W/m 5,9 C 6,6 C 14,5 km/h (3 Bft) 100,00 %
14.04.2016 20:57 9,5 C 78 % 1012,8 hPa 0,0 l/m 12,3 km/h (3 Bft) SW 235 0 min 0,000 mm 0,0 UV-I 0 W/m 5,9 C 5,8 C 16,1 km/h (3 Bft) 96,15 %
14.04.2016 20:58 9,5 C 78 % 1012,8 hPa 0,0 l/m 11,4 km/h (2 Bft) S-SW 207 0 min 0,000 mm 0,0 UV-I 0 W/m 5,9 C 6,3 C 14,5 km/h (3 Bft) 100,00 %
14.04.2016 20:59 9,5 C 78 % 1012,8 hPa 0,0 l/m 9,9 km/h (2 Bft) SW 217 0 min 0,000 mm 0,0 UV-I 0 W/m 5,9 C 7,1 C 14,5 km/h (3 Bft) 93,10 %
14.04.2016 21:00 9,5 C 78 % 1012,8 hPa 0,0 l/m 8,0 km/h (2 Bft) SW 219 0 min 0,000 mm 0,0 UV-I 0 W/m 5,9 C 8,3 C 11,3 km/h (2 Bft) 93,33 %
14.04.2016 21:01 9,5 C 78 % 1012,9 hPa 0,0 l/m 10,3 km/h (2 Bft) W-SW 246 0 min 0,026 mm 0,0 UV-I 0 W/m 5,9 C 6,9 C 12,9 km/h (3 Bft) 100,00 %
14.04.2016 21:02 9,5 C 78 % 1012,8 hPa 0,0 l/m 9,3 km/h (2 Bft) SW 236 0 min 0,000 mm 0,0 UV-I 0 W/m 5,9 C 7,5 C 14,5 km/h (3 Bft) 93,33 %
14.04.2016 21:03 9,5 C 78 % 1012,8 hPa 0,0 l/m 8,6 km/h (2 Bft) W-SW 247 0 min 0,000 mm 0,0 UV-I 0 W/m 5,9 C 7,9 C 11,3 km/h (2 Bft) 100,00 %
14.04.2016 21:04 9,4 C 79 % 1012,9 hPa 0,0 l/m 9,4 km/h (2 Bft) W-SW 248 0 min 0,000 mm 0,0 UV-I 0 W/m 5,9 C 7,3 C 14,5 km/h (3 Bft) 96,30 %
14.04.2016 21:05 9,4 C 79 % 1012,9 hPa 0,0 l/m 10,9 km/h (2 Bft) W-SW 237 0 min 0,000 mm 0,0 UV-I 0 W/m 5,9 C 6,4 C 17,7 km/h (3 Bft) 95,65 %
14.04.2016 21:06 9,4 C 79 % 1012,9 hPa 0,0 l/m 12,1 km/h (2 Bft) S-SW 208 0 min 0,000 mm 0,0 UV-I 0 W/m 5,9 C 5,8 C 14,5 km/h (3 Bft) 100,00 %
14.04.2016 21:07 9,4 C 79 % 1012,9 hPa 0,0 l/m 11,2 km/h (2 Bft) W-SW 250 0 min 0,000 mm 0,0 UV-I 0 W/m 5,9 C 6,2 C 14,5 km/h (3 Bft) 95,65 %
14.04.2016 21:08 9,4 C 79 % 1012,9 hPa 0,0 l/m 12,2 km/h (2 Bft) SW 232 0 min 0,000 mm 0,0 UV-I 0 W/m 5,9 C 5,7 C 16,1 km/h (3 Bft) 100,00 %
14.04.2016 21:09 9,4 C 79 % 1012,9 hPa 0,0 l/m 11,5 km/h (2 Bft) SW 234 0 min 0,000 mm 0,0 UV-I 0 W/m 5,9 C 6,1 C 16,1 km/h (3 Bft) 96,15 %
14.04.2016 21:10 9,3 C 79 % 1012,9 hPa 0,0 l/m 9,3 km/h (2 Bft) W-SW 242 0 min 0,000 mm 0,0 UV-I 0 W/m 5,8 C 7,3 C 14,5 km/h (3 Bft) 100,00 %
14.04.2016 21:11 9,3 C 79 % 1012,9 hPa 0,0 l/m 9,3 km/h (2 Bft) SW 236 0 min 0,000 mm 0,0 UV-I 0 W/m 5,8 C 7,3 C 14,5 km/h (3 Bft) 96,15 %
14.04.2016 21:12 9,3 C 79 % 1012,9 hPa 0,0 l/m 7,4 km/h (2 Bft) S-SW 205 0 min 0,000 mm 0,0 UV-I 0 W/m 5,8 C 8,6 C 11,3 km/h (2 Bft) 100,00 %
14.04.2016 21:13 9,3 C 79 % 1013,0 hPa 0,0 l/m 8,1 km/h (2 Bft) SW 218 0 min 0,000 mm 0,0 UV-I 0 W/m 5,8 C 8,0 C 9,7 km/h (2 Bft) 94,12 %
14.04.2016 21:14 9,3 C 79 % 1012,9 hPa 0,0 l/m 8,4 km/h (2 Bft) S-SW 204 0 min 0,000 mm 0,0 UV-I 0 W/m 5,8 C 7,8 C 12,9 km/h (3 Bft) 100,00 %
14.04.2016 21:15 9,3 C 79 % 1012,9 hPa 0,0 l/m 6,8 km/h (2 Bft) S-SW 198 0 min 0,000 mm 0,0 UV-I 0 W/m 5,8 C 9,0 C 9,7 km/h (2 Bft) 96,15 %
14.04.2016 21:16 9,3 C 79 % 1012,9 hPa 0,0 l/m 6,3 km/h (2 Bft) W-SW 242 0 min 0,000 mm 0,0 UV-I 0 W/m 5,8 C 9,3 C 8,0 km/h (2 Bft) 95,83 %
14.04.2016 21:17 9,3 C 79 % 1012,9 hPa 0,0 l/m 7,4 km/h (2 Bft) SW 226 0 min 0,000 mm 0,0 UV-I 0 W/m 5,8 C 8,6 C 11,3 km/h (2 Bft) 100,00 %
14.04.2016 21:18 9,2 C 79 % 1013,0 hPa 0,0 l/m 7,2 km/h (2 Bft) SW 232 0 min 0,000 mm 0,0 UV-I 0 W/m 5,8 C 8,6 C 11,3 km/h (2 Bft) 95,83 %
14.04.2016 21:19 9,2 C 79 % 1013,0 hPa 0,0 l/m 8,0 km/h (2 Bft) S-SW 201 0 min 0,000 mm 0,0 UV-I 0 W/m 5,8 C 8,0 C 12,9 km/h (3 Bft) 95,65 %
14.04.2016 21:20 9,2 C 79 % 1013,0 hPa 0,0 l/m 8,6 km/h (2 Bft) W-SW 240 0 min 0,000 mm 0,0 UV-I 0 W/m 5,8 C 7,6 C 11,3 km/h (2 Bft) 95,83 %
14.04.2016 21:21 9,2 C 80 % 1013,0 hPa 0,0 l/m 7,0 km/h (2 Bft) W-SW 237 0 min 0,000 mm 0,0 UV-I 0 W/m 5,9 C 8,8 C 9,7 km/h (2 Bft) 100,00 %
14.04.2016 21:22 9,2 C 80 % 1013,0 hPa 0,0 l/m 7,8 km/h (2 Bft) S-SW 193 0 min 0,000 mm 0,0 UV-I 0 W/m 5,9 C 8,2 C 12,9 km/h (3 Bft) 100,00 %
14.04.2016 21:23 9,1 C 80 % 1013,0 hPa 0,0 l/m 8,3 km/h (2 Bft) S-SW 205 0 min 0,000 mm 0,0 UV-I 0 W/m 5,8 C 7,7 C 14,5 km/h (3 Bft) 100,00 %
14.04.2016 21:24 9,1 C 80 % 1013,0 hPa 0,0 l/m 8,9 km/h (2 Bft) SW 224 0 min 0,000 mm 0,0 UV-I 0 W/m 5,8 C 7,3 C 12,9 km/h (3 Bft) 100,00 %
14.04.2016 21:25 9,1 C 80 % 1013,0 hPa 0,0 l/m 8,8 km/h (2 Bft) W-SW 246 0 min 0,000 mm 0,0 UV-I 0 W/m 5,8 C 7,4 C 12,9 km/h (3 Bft) 96,30 %
14.04.2016 21:26 9,1 C 80 % 1013,0 hPa 0,0 l/m 5,3 km/h (1 Bft) SW 232 0 min 0,000 mm 0,0 UV-I 0 W/m 5,8 C 9,1 C 9,7 km/h (2 Bft) 100,00 %
14.04.2016 21:27 9,0 C 80 % 1013,0 hPa 0,0 l/m 9,3 km/h (2 Bft) W-SW 258 0 min 0,000 mm 0,0 UV-I 0 W/m 5,7 C 6,9 C 12,9 km/h (3 Bft) 100,00 %
14.04.2016 21:28 8,9 C 80 % 1013,0 hPa 0,0 l/m 10,6 km/h (2 Bft) SW 230 0 min 0,000 mm 0,0 UV-I 0 W/m 5,6 C 6,0 C 14,5 km/h (3 Bft) 96,15 %
14.04.2016 21:29 8,9 C 81 % 1013,0 hPa 0,0 l/m 11,1 km/h (2 Bft) W-SW 250 0 min 0,000 mm 0,0 UV-I 0 W/m 5,8 C 5,7 C 14,5 km/h (3 Bft) 100,00 %
14.04.2016 21:30 8,9 C 81 % 1013,0 hPa 0,0 l/m 10,5 km/h (2 Bft) SW 229 0 min 0,000 mm 0,0 UV-I 0 W/m 5,8 C 6,1 C 16,1 km/h (3 Bft) 97,37 %
14.04.2016 21:31 8,9 C 81 % 1013,0 hPa 0,0 l/m 8,3 km/h (2 Bft) SW 235 0 min 0,000 mm 0,0 UV-I 0 W/m 5,8 C 7,5 C 12,9 km/h (3 Bft) 100,00 %
14.04.2016 21:32 8,9 C 81 % 1013,0 hPa 0,0 l/m 8,9 km/h (2 Bft) W-SW 238 0 min 0,000 mm 0,0 UV-I 0 W/m 5,8 C 7,1 C 12,9 km/h (3 Bft) 100,00 %
14.04.2016 21:33 8,8 C 81 % 1013,0 hPa 0,0 l/m 10,0 km/h (2 Bft) SW 236 0 min 0,000 mm 0,0 UV-I 0 W/m 5,7 C 6,3 C 11,3 km/h (2 Bft) 100,00 %
14.04.2016 21:34 8,8 C 81 % 1013,1 hPa 0,0 l/m 11,1 km/h (2 Bft) W-SW 242 0 min 0,000 mm 0,0 UV-I 0 W/m 5,7 C 5,6 C 14,5 km/h (3 Bft) 100,00 %
14.04.2016 21:35 8,8 C 81 % 1013,1 hPa 0,0 l/m 9,7 km/h (2 Bft) SW 226 0 min 0,000 mm 0,0 UV-I 0 W/m 5,7 C 6,5 C 11,3 km/h (2 Bft) 100,00 %
14.04.2016 21:36 8,7 C 81 % 1013,1 hPa 0,0 l/m 10,3 km/h (2 Bft) W-SW 251 0 min 0,000 mm 0,0 UV-I 0 W/m 5,6 C 6,0 C 14,5 km/h (3 Bft) 100,00 %
14.04.2016 21:37 8,7 C 81 % 1013,1 hPa 0,0 l/m 8,8 km/h (2 Bft) SW 235 0 min 0,000 mm 0,0 UV-I 0 W/m 5,6 C 6,9 C 11,3 km/h (2 Bft) 100,00 %
14.04.2016 21:38 8,7 C 82 % 1013,1 hPa 0,0 l/m 10,8 km/h (2 Bft) S-SW 207 0 min 0,000 mm 0,0 UV-I 0 W/m 5,8 C 5,7 C 14,5 km/h (3 Bft) 96,15 %
14.04.2016 21:39 8,6 C 82 % 1013,1 hPa 0,0 l/m 9,0 km/h (2 Bft) SW 223 0 min 0,000 mm 0,0 UV-I 0 W/m 5,7 C 6,7 C 12,9 km/h (3 Bft) 98,52 %
14.04.2016 21:40 8,6 C 82 % 1013,1 hPa 0,0 l/m 8,4 km/h (2 Bft) SW 234 0 min 0,000 mm 0,0 UV-I 0 W/m 5,7 C 7,1 C 9,7 km/h (2 Bft) 97,62 %
14.04.2016 21:41 8,6 C 82 % 1013,1 hPa 0,0 l/m 9,2 km/h (2 Bft) SW 234 0 min 0,000 mm 0,0 UV-I 0 W/m 5,7 C 6,6 C 11,3 km/h (2 Bft) 100,00 %
14.04.2016 21:42 8,6 C 82 % 1013,1 hPa 0,0 l/m 9,9 km/h (2 Bft) SW 229 0 min 0,000 mm 0,0 UV-I 0 W/m 5,7 C 6,1 C 12,9 km/h (3 Bft) 100,00 %
14.04.2016 21:43 8,6 C 82 % 1013,0 hPa 0,0 l/m 9,9 km/h (2 Bft) SW 227 0 min 0,000 mm 0,0 UV-I 0 W/m 5,7 C 6,1 C 12,9 km/h (3 Bft) 100,00 %
14.04.2016 21:44 8,5 C 82 % 1013,0 hPa 0,0 l/m 7,7 km/h (2 Bft) W-SW 239 0 min 0,000 mm 0,0 UV-I 0 W/m 5,6 C 7,5 C 11,3 km/h (2 Bft) 100,00 %
14.04.2016 21:45 8,5 C 82 % 1013,0 hPa 0,0 l/m 7,2 km/h (2 Bft) SW 224 0 min 0,000 mm 0,0 UV-I 0 W/m 5,6 C 7,9 C 9,7 km/h (2 Bft) 95,65 %
14.04.2016 21:46 8,4 C 82 % 1013,0 hPa 0,0 l/m 7,6 km/h (2 Bft) SW 229 0 min 0,000 mm 0,0 UV-I 0 W/m 5,5 C 7,5 C 9,7 km/h (2 Bft) 100,00 %
14.04.2016 21:47 8,4 C 82 % 1013,0 hPa 0,0 l/m 8,9 km/h (2 Bft) SW 234 0 min 0,000 mm 0,0 UV-I 0 W/m 5,5 C 6,5 C 12,9 km/h (3 Bft) 100,00 %
14.04.2016 21:48 8,4 C 82 % 1013,0 hPa 0,0 l/m 7,6 km/h (2 Bft) SW 225 0 min 0,000 mm 0,0 UV-I 0 W/m 5,5 C 7,5 C 9,7 km/h (2 Bft) 100,00 %
14.04.2016 21:49 8,4 C 83 % 1013,0 hPa 0,0 l/m 9,4 km/h (2 Bft) SW 219 0 min 0,000 mm 0,0 UV-I 0 W/m 5,7 C 6,2 C 12,9 km/h (3 Bft) 100,00 %
14.04.2016 21:50 8,4 C 83 % 1013,0 hPa 0,0 l/m 8,4 km/h (2 Bft) S-SW 209 0 min 0,000 mm 0,0 UV-I 0 W/m 5,7 C 6,9 C 11,3 km/h (2 Bft) 100,00 %
14.04.2016 21:51 8,3 C 83 % 1013,0 hPa 0,0 l/m 6,4 km/h (2 Bft) SW 218 0 min 0,000 mm 0,0 UV-I 0 W/m 5,6 C 8,3 C 8,0 km/h (2 Bft) 100,00 %
14.04.2016 21:52 8,3 C 83 % 1013,0 hPa 0,0 l/m 8,0 km/h (2 Bft) SW 228 0 min 0,000 mm 0,0 UV-I 0 W/m 5,6 C 7,1 C 11,3 km/h (2 Bft) 96,15 %
14.04.2016 21:53 8,3 C 83 % 1013,0 hPa 0,0 l/m 8,5 km/h (2 Bft) S-SW 201 0 min 0,000 mm 0,0 UV-I 0 W/m 5,6 C 6,7 C 12,9 km/h (3 Bft) 100,00 %
14.04.2016 21:54 8,3 C 83 % 1013,0 hPa 0,0 l/m 7,5 km/h (2 Bft) S-SW 211 0 min 0,000 mm 0,0 UV-I 0 W/m 5,6 C 7,4 C 9,7 km/h (2 Bft) 100,00 %
14.04.2016 21:55 8,3 C 83 % 1013,0 hPa 0,0 l/m 8,3 km/h (2 Bft) SW 233 0 min 0,000 mm 0,0 UV-I 0 W/m 5,6 C 6,9 C 11,3 km/h (2 Bft) 100,00 %
14.04.2016 21:56 8,2 C 83 % 1013,0 hPa 0,0 l/m 7,8 km/h (2 Bft) S-SW 200 0 min 0,000 mm 0,0 UV-I 0 W/m 5,5 C 7,1 C 9,7 km/h (2 Bft) 100,00 %
14.04.2016 21:57 8,2 C 83 % 1013,1 hPa 0,0 l/m 8,7 km/h (2 Bft) SW 227 0 min 0,000 mm 0,0 UV-I 0 W/m 5,5 C 6,5 C 9,7 km/h (2 Bft) 100,00 %
14.04.2016 21:58 8,2 C 83 % 1013,0 hPa 0,0 l/m 7,6 km/h (2 Bft) SW 225 0 min 0,000 mm 0,0 UV-I 0 W/m 5,5 C 7,3 C 9,7 km/h (2 Bft) 100,00 %
14.04.2016 21:59 8,2 C 83 % 1013,0 hPa 0,0 l/m 8,7 km/h (2 Bft) W-SW 237 0 min 0,000 mm 0,0 UV-I 0 W/m 5,5 C 6,5 C 14,5 km/h (3 Bft) 100,00 %
14.04.2016 22:00 8,2 C 83 % 1013,0 hPa 0,0 l/m 8,9 km/h (2 Bft) SW 227 0 min 0,000 mm 0,0 UV-I 0 W/m 5,5 C 6,3 C 11,3 km/h (2 Bft) 100,00 %
14.04.2016 22:01 8,2 C 83 % 1013,0 hPa 0,0 l/m 9,0 km/h (2 Bft) S 180 0 min 0,025 mm 0,0 UV-I 0 W/m 5,5 C 6,3 C 14,5 km/h (3 Bft) 100,00 %
14.04.2016 22:02 8,2 C 83 % 1013,0 hPa 0,0 l/m 8,1 km/h (2 Bft) SW 221 0 min 0,000 mm 0,0 UV-I 0 W/m 5,5 C 6,9 C 11,3 km/h (2 Bft) 100,00 %
14.04.2016 22:03 8,2 C 83 % 1013,0 hPa 0,0 l/m 8,8 km/h (2 Bft) W-SW 239 0 min 0,000 mm 0,0 UV-I 0 W/m 5,5 C 6,4 C 12,9 km/h (3 Bft) 100,00 %
14.04.2016 22:04 8,2 C 83 % 1013,0 hPa 0,0 l/m 7,5 km/h (2 Bft) SW 217 0 min 0,000 mm 0,0 UV-I 0 W/m 5,5 C 7,3 C 9,7 km/h (2 Bft) 96,15 %
14.04.2016 22:05 8,2 C 83 % 1013,0 hPa 0,0 l/m 7,5 km/h (2 Bft) SW 223 0 min 0,000 mm 0,0 UV-I 0 W/m 5,5 C 7,3 C 8,0 km/h (2 Bft) 96,67 %
14.04.2016 22:06 8,2 C 83 % 1013,0 hPa 0,0 l/m 9,2 km/h (2 Bft) SW 224 0 min 0,000 mm 0,0 UV-I 0 W/m 5,5 C 6,1 C 11,3 km/h (2 Bft) 100,00 %
14.04.2016 22:07 8,2 C 83 % 1013,0 hPa 0,0 l/m 9,3 km/h (2 Bft) SW 232 0 min 0,000 mm 0,0 UV-I 0 W/m 5,5 C 6,1 C 11,3 km/h (2 Bft) 100,00 %
14.04.2016 22:08 8,2 C 83 % 1013,0 hPa 0,0 l/m 8,0 km/h (2 Bft) SW 224 0 min 0,000 mm 0,0 UV-I 0 W/m 5,5 C 7,0 C 11,3 km/h (2 Bft) 100,00 %
14.04.2016 22:09 8,2 C 83 % 1013,0 hPa 0,0 l/m 7,0 km/h (2 Bft) SW 216 0 min 0,000 mm 0,0 UV-I 0 W/m 5,5 C 7,7 C 9,7 km/h (2 Bft) 100,00 %
14.04.2016 22:10 8,2 C 83 % 1013,0 hPa 0,0 l/m 6,4 km/h (2 Bft) SW 236 0 min 0,000 mm 0,0 UV-I 0 W/m 5,5 C 8,2 C 8,0 km/h (2 Bft) 100,00 %
14.04.2016 22:11 8,2 C 83 % 1013,0 hPa 0,0 l/m 9,1 km/h (2 Bft) SW 215 0 min 0,000 mm 0,0 UV-I 0 W/m 5,5 C 6,2 C 12,9 km/h (3 Bft) 100,00 %
14.04.2016 22:12 8,2 C 83 % 1013,0 hPa 0,0 l/m 5,9 km/h (2 Bft) SW 215 0 min 0,000 mm 0,0 UV-I 0 W/m 5,5 C 8,2 C 11,3 km/h (2 Bft) 94,12 %
14.04.2016 22:13 8,2 C 83 % 1013,0 hPa 0,0 l/m 6,5 km/h (2 Bft) SW 217 0 min 0,000 mm 0,0 UV-I 0 W/m 5,5 C 8,1 C 11,3 km/h (2 Bft) 100,00 %
14.04.2016 22:14 8,3 C 83 % 1013,0 hPa 0,0 l/m 7,6 km/h (2 Bft) S-SW 207 0 min 0,000 mm 0,0 UV-I 0 W/m 5,6 C 7,4 C 9,7 km/h (2 Bft) 100,00 %
14.04.2016 22:15 8,3 C 83 % 1013,0 hPa 0,0 l/m 7,5 km/h (2 Bft) S-SW 198 0 min 0,000 mm 0,0 UV-I 0 W/m 5,6 C 7,4 C 9,7 km/h (2 Bft) 100,00 %
14.04.2016 22:16 8,3 C 83 % 1013,0 hPa 0,0 l/m 5,6 km/h (1 Bft) S-SW 194 0 min 0,000 mm 0,0 UV-I 0 W/m 5,6 C 8,3 C 8,0 km/h (2 Bft) 100,00 %
14.04.2016 22:17 8,3 C 83 % 1013,0 hPa 0,0 l/m 6,6 km/h (2 Bft) S-SW 212 0 min 0,000 mm 0,0 UV-I 0 W/m 5,6 C 8,2 C 8,0 km/h (2 Bft) 100,00 %
14.04.2016 22:18 8,3 C 82 % 1013,0 hPa 0,0 l/m 6,3 km/h (2 Bft) S 188 0 min 0,000 mm 0,0 UV-I 0 W/m 5,4 C 8,3 C 9,7 km/h (2 Bft) 100,00 %
14.04.2016 22:19 8,3 C 82 % 1013,0 hPa 0,0 l/m 6,2 km/h (2 Bft) S 187 0 min 0,000 mm 0,0 UV-I 0 W/m 5,4 C 8,3 C 11,3 km/h (2 Bft) 100,00 %
14.04.2016 22:20 8,3 C 82 % 1013,0 hPa 0,0 l/m 6,3 km/h (2 Bft) S-SW 213 0 min 0,000 mm 0,0 UV-I 0 W/m 5,4 C 8,3 C 9,7 km/h (2 Bft) 96,30 %
14.04.2016 22:21 8,4 C 82 % 1013,0 hPa 0,0 l/m 5,8 km/h (2 Bft) S 183 0 min 0,000 mm 0,0 UV-I 0 W/m 5,5 C 8,4 C 6,4 km/h (2 Bft) 100,00 %
14.04.2016 22:22 8,4 C 82 % 1012,9 hPa 0,0 l/m 7,5 km/h (2 Bft) SW 216 0 min 0,000 mm 0,0 UV-I 0 W/m 5,5 C 7,5 C 9,7 km/h (2 Bft) 93,33 %
14.04.2016 22:23 8,4 C 82 % 1012,9 hPa 0,0 l/m 6,5 km/h (2 Bft) S-SW 199 0 min 0,000 mm 0,0 UV-I 0 W/m 5,5 C 8,3 C 11,3 km/h (2 Bft) 100,00 %
14.04.2016 22:24 8,3 C 82 % 1012,9 hPa 0,0 l/m 8,7 km/h (2 Bft) S-SW 210 0 min 0,000 mm 0,0 UV-I 0 W/m 5,4 C 6,6 C 11,3 km/h (2 Bft) 100,00 %
14.04.2016 22:25 8,4 C 82 % 1012,9 hPa 0,0 l/m 7,6 km/h (2 Bft) S 189 0 min 0,000 mm 0,0 UV-I 0 W/m 5,5 C 7,5 C 11,3 km/h (2 Bft) 100,00 %
14.04.2016 22:26 8,4 C 82 % 1013,0 hPa 0,0 l/m 7,2 km/h (2 Bft) S 182 0 min 0,000 mm 0,0 UV-I 0 W/m 5,5 C 7,8 C 9,7 km/h (2 Bft) 100,00 %
14.04.2016 22:27 8,4 C 82 % 1013,0 hPa 0,0 l/m 5,8 km/h (2 Bft) S-SW 204 0 min 0,000 mm 0,0 UV-I 0 W/m 5,5 C 8,4 C 11,3 km/h (2 Bft) 100,00 %
14.04.2016 22:28 8,4 C 82 % 1012,9 hPa 0,0 l/m 6,1 km/h (2 Bft) S 189 0 min 0,000 mm 0,0 UV-I 0 W/m 5,5 C 8,4 C 8,0 km/h (2 Bft) 100,00 %
14.04.2016 22:29 8,4 C 82 % 1012,9 hPa 0,0 l/m 5,4 km/h (1 Bft) SW 220 0 min 0,000 mm 0,0 UV-I 0 W/m 5,5 C 8,4 C 8,0 km/h (2 Bft) 96,15 %
14.04.2016 22:30 8,4 C 82 % 1012,9 hPa 0,0 l/m 6,6 km/h (2 Bft) SW 220 0 min 0,000 mm 0,0 UV-I 0 W/m 5,5 C 8,3 C 8,0 km/h (2 Bft) 95,83 %
14.04.2016 22:31 8,4 C 82 % 1012,9 hPa 0,0 l/m 6,5 km/h (2 Bft) S-SW 198 0 min 0,000 mm 0,0 UV-I 0 W/m 5,5 C 8,3 C 9,7 km/h (2 Bft) 100,00 %
14.04.2016 22:32 8,4 C 82 % 1012,9 hPa 0,0 l/m 7,4 km/h (2 Bft) S 189 0 min 0,000 mm 0,0 UV-I 0 W/m 5,5 C 7,6 C 9,7 km/h (2 Bft) 100,00 %
14.04.2016 22:33 8,3 C 82 % 1012,9 hPa 0,0 l/m 5,8 km/h (2 Bft) S-SW 203 0 min 0,000 mm 0,0 UV-I 0 W/m 5,4 C 8,3 C 8,0 km/h (2 Bft) 100,00 %
14.04.2016 22:34 8,3 C 82 % 1012,9 hPa 0,0 l/m 7,4 km/h (2 Bft) SW 220 0 min 0,000 mm 0,0 UV-I 0 W/m 5,4 C 7,5 C 9,7 km/h (2 Bft) 100,00 %
14.04.2016 22:35 8,3 C 82 % 1012,9 hPa 0,0 l/m 6,5 km/h (2 Bft) S 173 0 min 0,000 mm 0,0 UV-I 0 W/m 5,4 C 8,2 C 9,7 km/h (2 Bft) 96,15 %
14.04.2016 22:36 8,2 C 82 % 1012,9 hPa 0,0 l/m 5,3 km/h (1 Bft) S-SW 197 0 min 0,000 mm 0,0 UV-I 0 W/m 5,3 C 8,2 C 8,0 km/h (2 Bft) 100,00 %
14.04.2016 22:37 8,2 C 83 % 1012,9 hPa 0,0 l/m 4,0 km/h (1 Bft) S-SW 207 0 min 0,000 mm 0,0 UV-I 0 W/m 5,5 C 8,2 C 6,4 km/h (2 Bft) 100,00 %
14.04.2016 22:38 8,1 C 83 % 1013,0 hPa 0,0 l/m 5,8 km/h (2 Bft) SW 214 0 min 0,000 mm 0,0 UV-I 0 W/m 5,4 C 8,1 C 9,7 km/h (2 Bft) 100,00 %
14.04.2016 22:39 8,1 C 83 % 1012,9 hPa 0,0 l/m 6,6 km/h (2 Bft) S-SW 213 0 min 0,000 mm 0,0 UV-I 0 W/m 5,4 C 8,0 C 9,7 km/h (2 Bft) 100,00 %
14.04.2016 22:40 8,0 C 83 % 1013,0 hPa 0,0 l/m 6,5 km/h (2 Bft) S 186 0 min 0,000 mm 0,0 UV-I 0 W/m 5,3 C 7,9 C 8,0 km/h (2 Bft) 100,00 %
14.04.2016 22:41 8,0 C 83 % 1012,9 hPa 0,0 l/m 9,3 km/h (2 Bft) S-SW 205 0 min 0,000 mm 0,0 UV-I 0 W/m 5,3 C 5,8 C 11,3 km/h (2 Bft) 100,00 %
14.04.2016 22:42 8,0 C 83 % 1012,9 hPa 0,0 l/m 6,3 km/h (2 Bft) S-SW 199 0 min 0,000 mm 0,0 UV-I 0 W/m 5,3 C 8,0 C 8,0 km/h (2 Bft) 100,00 %
14.04.2016 22:43 8,1 C 83 % 1013,0 hPa 0,0 l/m 6,9 km/h (2 Bft) S-SW 198 0 min 0,000 mm 0,0 UV-I 0 W/m 5,4 C 7,7 C 11,3 km/h (2 Bft) 100,00 %
14.04.2016 22:44 8,1 C 83 % 1013,0 hPa 0,0 l/m 6,7 km/h (2 Bft) SW 223 0 min 0,000 mm 0,0 UV-I 0 W/m 5,4 C 7,9 C 9,7 km/h (2 Bft) 100,00 %
14.04.2016 22:45 8,1 C 83 % 1013,0 hPa 0,0 l/m 6,8 km/h (2 Bft) SW 215 0 min 0,000 mm 0,0 UV-I 0 W/m 5,4 C 7,8 C 8,0 km/h (2 Bft) 100,00 %
14.04.2016 22:46 8,1 C 83 % 1013,0 hPa 0,0 l/m 6,6 km/h (2 Bft) SW 215 0 min 0,000 mm 0,0 UV-I 0 W/m 5,4 C 8,0 C 9,7 km/h (2 Bft) 100,00 %
14.04.2016 22:47 8,1 C 83 % 1013,0 hPa 0,0 l/m 6,3 km/h (2 Bft) S-SW 204 0 min 0,000 mm 0,0 UV-I 0 W/m 5,4 C 8,1 C 9,7 km/h (2 Bft) 100,00 %
14.04.2016 22:48 8,2 C 83 % 1013,0 hPa 0,0 l/m 5,4 km/h (1 Bft) S-SW 204 0 min 0,000 mm 0,0 UV-I 0 W/m 5,5 C 8,2 C 8,0 km/h (2 Bft) 100,00 %
14.04.2016 22:49 8,2 C 83 % 1013,0 hPa 0,0 l/m 4,3 km/h (1 Bft) SW 215 0 min 0,000 mm 0,0 UV-I 0 W/m 5,5 C 8,2 C 6,4 km/h (2 Bft) 100,00 %
14.04.2016 22:50 8,1 C 83 % 1013,0 hPa 0,0 l/m 4,7 km/h (1 Bft) SW 217 0 min 0,000 mm 0,0 UV-I 0 W/m 5,4 C 8,1 C 6,4 km/h (2 Bft) 100,00 %
14.04.2016 22:51 8,1 C 83 % 1013,0 hPa 0,0 l/m 5,1 km/h (1 Bft) SW 225 0 min 0,000 mm 0,0 UV-I 0 W/m 5,4 C 8,1 C 6,4 km/h (2 Bft) 100,00 %
14.04.2016 22:52 8,0 C 83 % 1013,0 hPa 0,0 l/m 5,1 km/h (1 Bft) SW 225 0 min 0,000 mm 0,0 UV-I 0 W/m 5,3 C 8,0 C 6,4 km/h (2 Bft) 96,15 %
14.04.2016 22:53 7,9 C 84 % 1013,0 hPa 0,0 l/m 3,9 km/h (1 Bft) SW 223 0 min 0,000 mm 0,0 UV-I 0 W/m 5,4 C 7,9 C 6,4 km/h (2 Bft) 92,59 %
14.04.2016 22:54 7,9 C 84 % 1013,0 hPa 0,0 l/m 5,2 km/h (1 Bft) SW 217 0 min 0,000 mm 0,0 UV-I 0 W/m 5,4 C 7,9 C 8,0 km/h (2 Bft) 100,00 %
14.04.2016 22:55 7,8 C 84 % 1013,0 hPa 0,0 l/m 5,8 km/h (2 Bft) SW 234 0 min 0,000 mm 0,0 UV-I 0 W/m 5,3 C 7,8 C 8,0 km/h (2 Bft) 96,30 %
14.04.2016 22:56 7,8 C 84 % 1013,0 hPa 0,0 l/m 6,3 km/h (2 Bft) SW 233 0 min 0,000 mm 0,0 UV-I 0 W/m 5,3 C 7,8 C 8,0 km/h (2 Bft) 100,00 %
14.04.2016 22:57 7,8 C 84 % 1012,9 hPa 0,0 l/m 5,6 km/h (1 Bft) SW 231 0 min 0,000 mm 0,0 UV-I 0 W/m 5,3 C 7,8 C 6,4 km/h (2 Bft) 96,15 %
14.04.2016 22:58 7,8 C 84 % 1012,9 hPa 0,0 l/m 5,2 km/h (1 Bft) W-SW 237 0 min 0,000 mm 0,0 UV-I 0 W/m 5,3 C 7,8 C 6,4 km/h (2 Bft) 100,00 %
14.04.2016 22:59 7,7 C 85 % 1012,9 hPa 0,0 l/m 5,2 km/h (1 Bft) SW 223 0 min 0,000 mm 0,0 UV-I 0 W/m 5,3 C 7,7 C 6,4 km/h (2 Bft) 94,74 %
14.04.2016 23:00 7,7 C 84 % 1012,9 hPa 0,0 l/m 5,4 km/h (1 Bft) SW 227 0 min 0,000 mm 0,0 UV-I 0 W/m 5,2 C 7,7 C 8,0 km/h (2 Bft) 95,83 %
14.04.2016 23:01 7,6 C 85 % 1012,9 hPa 0,0 l/m 4,3 km/h (1 Bft) SW 220 0 min 0,026 mm 0,0 UV-I 0 W/m 5,2 C 7,6 C 4,8 km/h (1 Bft) 95,65 %
14.04.2016 23:02 7,6 C 85 % 1013,0 hPa 0,0 l/m 4,2 km/h (1 Bft) S-SW 207 0 min 0,000 mm 0,0 UV-I 0 W/m 5,2 C 7,6 C 4,8 km/h (1 Bft) 86,67 %
14.04.2016 23:03 7,6 C 85 % 1013,0 hPa 0,0 l/m 3,5 km/h (1 Bft) SW 216 0 min 0,000 mm 0,0 UV-I 0 W/m 5,2 C 7,6 C 4,8 km/h (1 Bft) 100,00 %
14.04.2016 23:04 7,6 C 85 % 1013,0 hPa 0,0 l/m 4,0 km/h (1 Bft) SW 217 0 min 0,000 mm 0,0 UV-I 0 W/m 5,2 C 7,6 C 4,8 km/h (1 Bft) 95,83 %
14.04.2016 23:05 7,5 C 85 % 1013,0 hPa 0,0 l/m 4,0 km/h (1 Bft) S-SW 213 0 min 0,000 mm 0,0 UV-I 0 W/m 5,1 C 7,5 C 4,8 km/h (1 Bft) 100,00 %
14.04.2016 23:06 7,5 C 85 % 1012,9 hPa 0,0 l/m 3,9 km/h (1 Bft) S-SW 212 0 min 0,000 mm 0,0 UV-I 0 W/m 5,1 C 7,5 C 4,8 km/h (1 Bft) 91,67 %
14.04.2016 23:07 7,5 C 85 % 1013,0 hPa 0,0 l/m 3,9 km/h (1 Bft) S-SW 209 0 min 0,000 mm 0,0 UV-I 0 W/m 5,1 C 7,5 C 6,4 km/h (2 Bft) 96,88 %
14.04.2016 23:08 7,4 C 85 % 1012,9 hPa 0,0 l/m 3,5 km/h (1 Bft) S-SW 209 0 min 0,000 mm 0,0 UV-I 0 W/m 5,0 C 7,4 C 4,8 km/h (1 Bft) 100,00 %
14.04.2016 23:09 7,4 C 85 % 1013,0 hPa 0,0 l/m 3,4 km/h (1 Bft) S-SW 209 0 min 0,000 mm 0,0 UV-I 0 W/m 5,0 C 7,4 C 4,8 km/h (1 Bft) 98,55 %
14.04.2016 23:10 7,4 C 86 % 1012,9 hPa 0,0 l/m 3,4 km/h (1 Bft) S-SW 209 0 min 0,000 mm 0,0 UV-I 0 W/m 5,2 C 7,4 C 4,8 km/h (1 Bft) 97,37 %
14.04.2016 23:11 7,4 C 86 % 1013,0 hPa 0,0 l/m 3,3 km/h (1 Bft) S-SW 209 0 min 0,000 mm 0,0 UV-I 0 W/m 5,2 C 7,4 C 4,8 km/h (1 Bft) 96,15 %
14.04.2016 23:12 7,4 C 86 % 1013,0 hPa 0,0 l/m 3,6 km/h (1 Bft) S-SW 209 0 min 0,000 mm 0,0 UV-I 0 W/m 5,2 C 7,4 C 4,8 km/h (1 Bft) 100,00 %
14.04.2016 23:13 7,4 C 86 % 1013,0 hPa 0,0 l/m 3,6 km/h (1 Bft) S-SW 209 0 min 0,000 mm 0,0 UV-I 0 W/m 5,2 C 7,4 C 4,8 km/h (1 Bft) 91,30 %
14.04.2016 23:14 7,4 C 86 % 1013,0 hPa 0,0 l/m 1,5 km/h (1 Bft) S-SW 209 0 min 0,000 mm 0,0 UV-I 0 W/m 5,2 C 7,4 C 3,2 km/h (1 Bft) 100,00 %
14.04.2016 23:15 7,4 C 86 % 1012,9 hPa 0,0 l/m 1,9 km/h (1 Bft) S-SW 209 0 min 0,000 mm 0,0 UV-I 0 W/m 5,2 C 7,4 C 3,2 km/h (1 Bft) 83,33 %
14.04.2016 23:16 7,3 C 86 % 1013,0 hPa 0,0 l/m 1,9 km/h (1 Bft) S-SW 209 0 min 0,000 mm 0,0 UV-I 0 W/m 5,1 C 7,3 C 3,2 km/h (1 Bft) 100,00 %
14.04.2016 23:17 7,3 C 86 % 1013,0 hPa 0,0 l/m 1,1 km/h (1 Bft) S-SW 209 0 min 0,000 mm 0,0 UV-I 0 W/m 5,1 C 7,3 C 1,6 km/h (1 Bft) 95,83 %
14.04.2016 23:18 7,3 C 86 % 1012,9 hPa 0,0 l/m 1,2 km/h (1 Bft) S-SW 209 0 min 0,000 mm 0,0 UV-I 0 W/m 5,1 C 7,3 C 3,2 km/h (1 Bft) 100,00 %
14.04.2016 23:19 7,3 C 86 % 1012,9 hPa 0,0 l/m 1,0 km/h (0 Bft) S-SW 209 0 min 0,000 mm 0,0 UV-I 0 W/m 5,1 C 7,3 C 1,6 km/h (1 Bft) 96,77 %
14.04.2016 23:20 7,3 C 86 % 1012,9 hPa 0,0 l/m 0,1 km/h (0 Bft) S-SW 209 0 min 0,000 mm 0,0 UV-I 0 W/m 5,1 C 7,3 C 1,6 km/h (1 Bft) 95,65 %
14.04.2016 23:21 7,3 C 86 % 1012,9 hPa 0,0 l/m 0,0 km/h (0 Bft) S-SW 209 0 min 0,000 mm 0,0 UV-I 0 W/m 5,1 C 7,3 C 0,0 km/h (0 Bft) 100,00 %
14.04.2016 23:22 7,2 C 86 % 1012,9 hPa 0,0 l/m 0,3 km/h (0 Bft) S-SW 209 0 min 0,000 mm 0,0 UV-I 0 W/m 5,0 C 7,2 C 1,6 km/h (1 Bft) 95,65 %
14.04.2016 23:23 7,2 C 86 % 1012,9 hPa 0,0 l/m 0,1 km/h (0 Bft) S-SW 209 0 min 0,000 mm 0,0 UV-I 0 W/m 5,0 C 7,2 C 1,6 km/h (1 Bft) 96,30 %
14.04.2016 23:24 7,2 C 86 % 1012,9 hPa 0,0 l/m 0,3 km/h (0 Bft) S-SW 209 0 min 0,000 mm 0,0 UV-I 0 W/m 5,0 C 7,2 C 1,6 km/h (1 Bft) 100,00 %
14.04.2016 23:25 7,2 C 86 % 1012,9 hPa 0,0 l/m 0,0 km/h (0 Bft) S-SW 209 0 min 0,000 mm 0,0 UV-I 0 W/m 5,0 C 7,2 C 0,0 km/h (0 Bft) 100,00 %
14.04.2016 23:26 7,1 C 86 % 1012,9 hPa 0,0 l/m 0,0 km/h (0 Bft) S-SW 209 0 min 0,000 mm 0,0 UV-I 0 W/m 4,9 C 7,1 C 0,0 km/h (0 Bft) 96,15 %
14.04.2016 23:27 7,1 C 86 % 1012,9 hPa 0,0 l/m 0,0 km/h (0 Bft) S-SW 209 0 min 0,000 mm 0,0 UV-I 0 W/m 4,9 C 7,1 C 0,0 km/h (0 Bft) 95,83 %
14.04.2016 23:28 7,1 C 86 % 1012,9 hPa 0,0 l/m 0,0 km/h (0 Bft) S-SW 209 0 min 0,000 mm 0,0 UV-I 0 W/m 4,9 C 7,1 C 0,0 km/h (0 Bft) 100,00 %
14.04.2016 23:29 7,1 C 86 % 1012,9 hPa 0,0 l/m 0,2 km/h (0 Bft) S-SW 209 0 min 0,000 mm 0,0 UV-I 0 W/m 4,9 C 7,1 C 1,6 km/h (1 Bft) 100,00 %
14.04.2016 23:30 7,1 C 86 % 1013,0 hPa 0,0 l/m 0,2 km/h (0 Bft) S-SW 209 0 min 0,000 mm 0,0 UV-I 0 W/m 4,9 C 7,1 C 1,6 km/h (1 Bft) 100,00 %
14.04.2016 23:31 7,1 C 87 % 1013,0 hPa 0,0 l/m 0,1 km/h (0 Bft) S-SW 209 0 min 0,000 mm 0,0 UV-I 0 W/m 5,1 C 7,1 C 1,6 km/h (1 Bft) 96,15 %
14.04.2016 23:32 7,1 C 87 % 1013,0 hPa 0,0 l/m 0,0 km/h (0 Bft) S-SW 209 0 min 0,000 mm 0,0 UV-I 0 W/m 5,1 C 7,1 C 0,0 km/h (0 Bft) 100,00 %
14.04.2016 23:33 7,1 C 86 % 1013,0 hPa 0,0 l/m 0,1 km/h (0 Bft) S-SW 209 0 min 0,000 mm 0,0 UV-I 0 W/m 4,9 C 7,1 C 1,6 km/h (1 Bft) 100,00 %
14.04.2016 23:34 7,1 C 86 % 1013,0 hPa 0,0 l/m 0,3 km/h (0 Bft) S-SW 209 0 min 0,000 mm 0,0 UV-I 0 W/m 4,9 C 7,1 C 1,6 km/h (1 Bft) 100,00 %
14.04.2016 23:35 7,1 C 86 % 1013,1 hPa 0,0 l/m 0,2 km/h (0 Bft) S-SW 209 0 min 0,000 mm 0,0 UV-I 0 W/m 4,9 C 7,1 C 1,6 km/h (1 Bft) 100,00 %
14.04.2016 23:36 7,1 C 87 % 1013,0 hPa 0,0 l/m 0,1 km/h (0 Bft) S-SW 209 0 min 0,000 mm 0,0 UV-I 0 W/m 5,1 C 7,1 C 1,6 km/h (1 Bft) 100,00 %
14.04.2016 23:37 7,1 C 86 % 1013,1 hPa 0,0 l/m 0,1 km/h (0 Bft) S-SW 209 0 min 0,000 mm 0,0 UV-I 0 W/m 4,9 C 7,1 C 1,6 km/h (1 Bft) 100,00 %
14.04.2016 23:38 7,1 C 87 % 1013,1 hPa 0,0 l/m 0,0 km/h (0 Bft) S-SW 209 0 min 0,000 mm 0,0 UV-I 0 W/m 5,1 C 7,1 C 0,0 km/h (0 Bft) 100,00 %
14.04.2016 23:39 7,1 C 86 % 1013,0 hPa 0,0 l/m 0,4 km/h (0 Bft) S-SW 209 0 min 0,000 mm 0,0 UV-I 0 W/m 4,9 C 7,1 C 1,6 km/h (1 Bft) 100,00 %
14.04.2016 23:40 7,0 C 87 % 1013,0 hPa 0,0 l/m 0,2 km/h (0 Bft) S-SW 209 0 min 0,000 mm 0,0 UV-I 0 W/m 5,0 C 7,0 C 1,6 km/h (1 Bft) 96,30 %
14.04.2016 23:41 6,9 C 87 % 1013,1 hPa 0,0 l/m 0,4 km/h (0 Bft) S-SW 209 0 min 0,000 mm 0,0 UV-I 0 W/m 4,9 C 6,9 C 1,6 km/h (1 Bft) 100,00 %
14.04.2016 23:42 6,9 C 87 % 1013,1 hPa 0,0 l/m 1,0 km/h (0 Bft) S-SW 202 0 min 0,000 mm 0,0 UV-I 0 W/m 4,9 C 6,9 C 1,6 km/h (1 Bft) 100,00 %
14.04.2016 23:43 6,8 C 87 % 1013,1 hPa 0,0 l/m 2,6 km/h (1 Bft) S 191 0 min 0,000 mm 0,0 UV-I 0 W/m 4,8 C 6,8 C 4,8 km/h (1 Bft) 96,15 %
14.04.2016 23:44 6,7 C 87 % 1013,1 hPa 0,0 l/m 2,2 km/h (1 Bft) S 186 0 min 0,000 mm 0,0 UV-I 0 W/m 4,7 C 6,7 C 3,2 km/h (1 Bft) 100,00 %
14.04.2016 23:45 6,7 C 87 % 1013,0 hPa 0,0 l/m 2,4 km/h (1 Bft) S 184 0 min 0,000 mm 0,0 UV-I 0 W/m 4,7 C 6,7 C 3,2 km/h (1 Bft) 100,00 %
14.04.2016 23:46 6,6 C 87 % 1013,0 hPa 0,0 l/m 1,4 km/h (1 Bft) S 184 0 min 0,000 mm 0,0 UV-I 0 W/m 4,6 C 6,6 C 3,2 km/h (1 Bft) 100,00 %
14.04.2016 23:47 6,5 C 87 % 1013,0 hPa 0,0 l/m 1,3 km/h (1 Bft) S 175 0 min 0,000 mm 0,0 UV-I 0 W/m 4,5 C 6,5 C 1,6 km/h (1 Bft) 92,86 %
14.04.2016 23:48 6,4 C 88 % 1013,0 hPa 0,0 l/m 0,7 km/h (0 Bft) S 175 0 min 0,000 mm 0,0 UV-I 0 W/m 4,6 C 6,4 C 1,6 km/h (1 Bft) 100,00 %
14.04.2016 23:49 6,4 C 88 % 1013,0 hPa 0,0 l/m 1,0 km/h (0 Bft) S 175 0 min 0,000 mm 0,0 UV-I 0 W/m 4,6 C 6,4 C 1,6 km/h (1 Bft) 100,00 %
14.04.2016 23:50 6,3 C 88 % 1013,0 hPa 0,0 l/m 0,9 km/h (0 Bft) S 175 0 min 0,000 mm 0,0 UV-I 0 W/m 4,5 C 6,3 C 1,6 km/h (1 Bft) 100,00 %
14.04.2016 23:51 6,3 C 88 % 1013,0 hPa 0,0 l/m 1,0 km/h (0 Bft) S 175 0 min 0,000 mm 0,0 UV-I 0 W/m 4,5 C 6,3 C 1,6 km/h (1 Bft) 100,00 %
14.04.2016 23:52 6,3 C 88 % 1013,0 hPa 0,0 l/m 1,3 km/h (1 Bft) S 175 0 min 0,000 mm 0,0 UV-I 0 W/m 4,5 C 6,3 C 1,6 km/h (1 Bft) 100,00 %
14.04.2016 23:53 6,3 C 88 % 1013,0 hPa 0,0 l/m 1,0 km/h (0 Bft) S 175 0 min 0,000 mm 0,0 UV-I 0 W/m 4,5 C 6,3 C 1,6 km/h (1 Bft) 100,00 %
14.04.2016 23:54 6,4 C 88 % 1013,0 hPa 0,0 l/m 0,7 km/h (0 Bft) S 175 0 min 0,000 mm 0,0 UV-I 0 W/m 4,6 C 6,4 C 1,6 km/h (1 Bft) 100,00 %
14.04.2016 23:55 6,4 C 88 % 1012,9 hPa 0,0 l/m 0,6 km/h (0 Bft) S 176 0 min 0,000 mm 0,0 UV-I 0 W/m 4,6 C 6,4 C 1,6 km/h (1 Bft) 100,00 %
14.04.2016 23:56 6,5 C 88 % 1012,9 hPa 0,0 l/m 0,3 km/h (0 Bft) S 175 0 min 0,000 mm 0,0 UV-I 0 W/m 4,7 C 6,5 C 1,6 km/h (1 Bft) 100,00 %
14.04.2016 23:57 6,5 C 88 % 1012,9 hPa 0,0 l/m 0,2 km/h (0 Bft) S 175 0 min 0,000 mm 0,0 UV-I 0 W/m 4,7 C 6,5 C 1,6 km/h (1 Bft) 96,67 %
14.04.2016 23:58 6,6 C 88 % 1012,9 hPa 0,0 l/m 0,4 km/h (0 Bft) S 175 0 min 0,000 mm 0,0 UV-I 0 W/m 4,8 C 6,6 C 1,6 km/h (1 Bft) 91,30 %
14.04.2016 23:59 6,6 C 88 % 1012,9 hPa 0,0 l/m 0,0 km/h (0 Bft) S 175 0 min 0,000 mm 0,0 UV-I 0 W/m 4,8 C 6,6 C 0,0 km/h (0 Bft) 100,00 %
_ Min-Zeit 23:50 16:07 01:49 - 23:21 - - - - - - 23:50 10:37 23:21 23:15
Minimum _ 6,3 C 57 % 1006,7 hPa - 0,0 km/h (0 Bft) - - - - - - 4,5 C 1,7 C 0,0 km/h (0 Bft) 83,33 %
_ Max-Zeit 16:06 00:00 21:34 00:00 14:07 - - 16:02 16:02 11:47 15:16 00:00 14:39 12:00 00:00
Maximum _ 13,4 C 92 % 1013,1 hPa 0,0 l/m 26,3 km/h
W-SW (4 Bft)
- - 2 min 0,330 mm 3,2 UV-I 712 W/m 8,4 C 12,0 C 38,6 km/h
W-SW (5 Bft)
100,00 %
Durchschnitt _ 10,1 C 81 % 1009,7 hPa #0,0 l/m 11,6 km/h (2 Bft) W-SW - #3:06 h #1,880 mm 1,6 UV-I 188 W/m 7,0 C 7,2 C 16,5 km/h (3 Bft) 98,57 %